Date StartTime U_cm/s V_cm/s W_cm/s Ustd_cm/s Vstd_cm/s Wstd_cm/s Uvar_(cm/s)^2 Vvar_(cm/s)^2 Wvar_(cm/s)^2 KE_(m/s)^2 TurbulentKE_(m/s)^2 HorizWindSpeed_cm/s FrictionSpeec_cm/s DragCoef SpeedOfSound_m/s SonicTemperature_C Pressure_mb 
09/19/2013  00:00:00     -112.623      -18.361      -21.773       13.165       11.794       12.488      173.315      139.100      155.954        0.698        0.023      114.110        8.857        0.006      339.462       12.811      861.780
09/19/2013  00:01:00     -107.118      -36.275      -17.328       16.804       21.636       12.170      282.374      468.120      148.109        0.699        0.045      113.094        7.148        0.004      339.404       12.715      861.787
09/19/2013  00:02:00     -102.122      -31.298      -19.714       14.441       17.423       12.163      208.543      303.562      147.934        0.623        0.033      106.811       10.657        0.010      339.406       12.720      861.789
09/19/2013  00:03:00      -81.575      -45.268      -14.277       17.774       20.769       15.121      315.914      431.359      228.643        0.494        0.049       93.294        8.503        0.008      339.450       12.791      861.794
09/19/2013  00:04:00      -81.206      -20.810      -12.976       30.877       25.607       15.346      953.409      655.720      235.514        0.452        0.092       83.830       15.334        0.033      339.424       12.747      861.815
09/19/2013  00:05:00      -88.513      -11.564      -12.753       13.550       14.215       11.261      183.607      202.074      126.808        0.432        0.026       89.266        9.501        0.011      339.388       12.688      861.813
09/19/2013  00:06:00      -90.031      -19.430      -15.354       13.364       11.538        8.664      178.600      133.132       75.057        0.455        0.019       92.104        4.240        0.002      339.389       12.689      861.808
09/19/2013  00:07:00     -101.716      -18.937      -12.667       12.793       13.348        8.561      163.663      178.169       73.294        0.564        0.021      103.463        4.714        0.002      339.420       12.740      861.812
09/19/2013  00:08:00      -84.391      -23.603      -11.998       11.816       12.056       10.248      139.617      145.338      105.019        0.411        0.019       87.630        6.047        0.005      339.422       12.744      861.819
09/19/2013  00:09:00      -80.727      -24.065      -16.019       10.282       13.528        9.576      105.717      183.003       91.700        0.387        0.019       84.237        5.856        0.005      339.413       12.729      861.814
09/19/2013  00:10:00      -93.302      -27.026      -12.480        9.442       11.798       11.175       89.154      139.189      124.886        0.497        0.018       97.138        2.995        0.001      339.420       12.742      861.814
09/19/2013  00:11:00      -96.264      -26.868      -16.472        7.978       13.817        7.739       63.647      190.917       59.898        0.529        0.016       99.943        1.979        0.000      339.413       12.730      861.821
09/19/2013  00:12:00      -93.028      -31.600      -12.341        8.210        9.640        7.478       67.410       92.932       55.926        0.501        0.011       98.248        6.032        0.004      339.399       12.706      861.820
09/19/2013  00:13:00      -80.453      -36.237      -12.436       10.960       12.288        8.133      120.125      150.986       66.141        0.414        0.017       88.237        5.609        0.004      339.455       12.802      861.819
09/19/2013  00:14:00      -83.179      -24.774      -13.536        8.624        9.211        8.893       74.366       84.845       79.091        0.398        0.012       86.790        5.526        0.004      339.468       12.822      861.829
09/19/2013  00:15:00      -91.382      -13.012      -17.383       11.657        8.301        8.275      135.878       68.907       68.480        0.455        0.014       92.303        7.196        0.006      339.410       12.725      861.831
09/19/2013  00:16:00      -83.106      -10.990      -16.476       14.123       10.094       10.246      199.459      101.896      104.974        0.385        0.020       83.829        7.517        0.008      339.413       12.730      861.825
09/19/2013  00:17:00      -81.130      -22.742      -15.797       11.042        9.942       11.902      121.932       98.849      141.666        0.386        0.018       84.257        4.596        0.003      339.395       12.699      861.827
09/19/2013  00:18:00      -84.298      -19.370      -16.755        8.493        8.620        7.444       72.128       74.298       55.408        0.398        0.010       86.495        2.702        0.001      339.346       12.615      861.831
09/19/2013  00:19:00      -95.355      -29.962      -17.465       12.142       10.996        8.178      147.425      120.904       66.877        0.532        0.017       99.952        4.990        0.002      339.300       12.539      861.829
09/19/2013  00:20:00      -88.881      -21.124      -14.937        5.567        7.638        4.632       30.996       58.338       21.452        0.434        0.006       91.357        2.799        0.001      339.301       12.539      861.836
09/19/2013  00:21:00      -94.470      -17.277      -13.888        6.658        8.510        7.699       44.329       72.412       59.272        0.480        0.009       96.037        2.634        0.001      339.330       12.588      861.852
09/19/2013  00:22:00     -103.701      -22.784      -17.922       10.314       11.177        9.811      106.386      124.930       96.256        0.596        0.016      106.174        6.095        0.003      339.318       12.569      861.851
09/19/2013  00:23:00      -80.142      -20.016      -16.786       14.967       13.001        8.471      224.016      169.030       71.764        0.378        0.023       82.604        3.876        0.002      339.345       12.614      861.851
09/19/2013  00:24:00      -81.966      -17.169      -19.043       11.274       11.704       10.554      127.098      136.991      111.377        0.388        0.019       83.745        5.333        0.004      339.273       12.492      861.866
09/19/2013  00:25:00      -63.937       -0.446      -12.577       13.733       11.542       11.564      188.604      133.225      133.723        0.235        0.023       63.938        7.282        0.013      339.461       12.811      861.864
09/19/2013  00:26:00      -65.279      -19.619      -15.460        8.854       14.084        9.631       78.396      198.350       92.765        0.263        0.018       68.164        5.700        0.007      339.234       12.427      861.861
09/19/2013  00:27:00      -66.258      -23.057      -12.592       11.934       12.053       10.662      142.430      145.284      113.670        0.274        0.020       70.155        5.911        0.007      339.186       12.346      861.874
09/19/2013  00:28:00      -61.982      -19.258       -8.506       13.180       17.644       11.841      173.724      311.307      140.207        0.246        0.031       64.905        8.835        0.019      339.175       12.328      861.881
09/19/2013  00:29:00      -70.829      -16.629      -10.530       12.604       15.370       12.725      158.869      236.252      161.921        0.298        0.028       72.755       10.448        0.021      339.198       12.367      861.886
09/19/2013  00:30:00      -70.778      -24.414      -13.857       16.846       19.786        9.511      283.779      391.489       90.454        0.328        0.038       74.871        7.274        0.009      339.158       12.299      861.903
09/19/2013  00:31:00     -100.114      -22.341      -15.653       18.420       19.371       14.051      339.279      375.225      197.434        0.584        0.046      102.577       11.630        0.013      339.102       12.205      861.916
09/19/2013  00:32:00     -110.706      -10.282      -15.372       22.598       22.685       14.026      510.669      514.609      196.741        0.691        0.061      111.183       10.696        0.009      339.057       12.129      861.904
09/19/2013  00:33:00      -92.627       -8.941      -13.506       33.723       20.371       13.690     1137.242      414.966      187.429        0.529        0.087       93.057       10.872        0.014      339.073       12.157      861.899
09/19/2013  00:34:00      -78.873      -17.459      -17.903       27.236       14.375       16.867      741.826      206.639      284.505        0.404        0.062       80.783       17.762        0.048      339.135       12.260      861.907
09/19/2013  00:35:00      -84.262      -27.335      -14.871       26.987       26.863       17.142      728.321      721.600      293.832        0.491        0.087       88.585       11.605        0.017      339.159       12.300      861.903
09/19/2013  00:36:00     -111.848      -26.931      -13.623       13.891       18.803       10.531      192.972      353.548      110.894        0.704        0.033      115.045        2.893        0.001      339.087       12.180      861.901
09/19/2013  00:37:00      -86.531      -28.076      -10.099       15.791       13.294       11.187      249.348      176.743      125.140        0.446        0.028       90.971        5.089        0.003      339.188       12.350      861.901
09/19/2013  00:38:00      -53.475      -44.392       -6.284       30.624       21.383       20.008      937.810      457.213      400.331        0.333        0.090       69.500       18.575        0.071      339.169       12.317      861.903
09/19/2013  00:39:00      -86.551      -27.724      -12.142       27.442       18.224       16.607      753.089      332.120      275.785        0.488        0.068       90.883       16.935        0.035      339.204       12.378      861.903
09/19/2013  00:40:00     -118.530      -26.001      -20.270       22.552       13.314       11.972      508.601      177.266      143.336        0.798        0.041      121.349        7.294        0.004      339.144       12.276      861.906
09/19/2013  00:41:00     -112.909      -37.312      -17.707       13.382       17.954       12.631      179.076      322.332      159.541        0.756        0.033      118.914        7.904        0.004      339.078       12.164      861.915
09/19/2013  00:42:00     -107.781      -22.327      -19.872       15.015       19.699       11.218      225.463      388.059      125.849        0.662        0.037      110.069       10.351        0.009      339.066       12.145      861.912
09/19/2013  00:43:00      -87.499      -13.967      -10.844       25.623       23.734       18.200      656.540      563.289      331.229        0.476        0.078       88.607       14.705        0.028      339.079       12.167      861.903
09/19/2013  00:44:00      -71.102      -28.447       -9.843       25.548       17.577       13.192      652.706      308.945      174.031        0.355        0.057       76.581       10.125        0.017      339.017       12.062      861.903
09/19/2013  00:45:00      -58.265      -28.561       -2.350       18.398       23.390       16.654      338.497      547.089      277.371        0.269        0.058       64.889        9.285        0.020      339.077       12.162      861.908
09/19/2013  00:46:00      -62.628      -28.084       -8.524       18.428       17.774       11.881      339.578      315.901      141.151        0.279        0.040       68.637        7.679        0.013      339.033       12.088      861.901
09/19/2013  00:47:00      -76.539       -7.184      -14.305       13.468       18.292        9.493      181.375      334.586       90.120        0.336        0.030       76.876        7.946        0.011      339.128       12.248      861.892
09/19/2013  00:48:00      -92.358      -28.091      -15.091       24.211       24.728       13.482      586.184      611.461      181.775        0.546        0.069       96.535       10.464        0.012      338.992       12.021      861.900
09/19/2013  00:49:00      -76.063      -47.447      -20.886       26.108       24.005       13.516      681.615      576.261      182.676        0.496        0.072       89.648       11.324        0.016      338.983       12.005      861.926
09/19/2013  00:50:00     -106.777      -39.395      -11.990       16.722       23.444       12.582      279.634      549.627      158.315        0.704        0.049      113.812        5.269        0.002      338.985       12.009      861.933
09/19/2013  00:51:00      -87.558      -24.220       -8.950       17.709       22.880       14.865      313.607      523.504      220.980        0.470        0.053       90.846        6.496        0.005      338.946       11.943      861.957
09/19/2013  00:52:00     -101.528      -25.569      -12.859       15.747       13.946       11.078      247.973      194.492      122.730        0.585        0.028      104.698        7.041        0.005      338.909       11.881      861.970
09/19/2013  00:53:00     -111.391      -38.917      -14.052       12.785       16.853       11.966      163.446      284.015      143.181        0.736        0.030      117.994        8.148        0.005      338.915       11.892      861.967
09/19/2013  00:54:00     -102.649      -41.888      -16.555       13.221        9.914        8.324      174.794       98.290       69.293        0.645        0.017      110.867        4.946        0.002      338.900       11.864      861.977
09/19/2013  00:55:00     -105.031      -42.729      -13.702       17.002       16.231       12.702      289.083      263.451      161.351        0.688        0.036      113.390        8.111        0.005      339.021       12.069      861.974
09/19/2013  00:56:00     -108.917      -69.495      -14.453       29.021       18.532       15.913      842.222      343.426      253.225        0.917        0.072      129.199       12.442        0.009      339.011       12.051      861.955
09/19/2013  00:57:00      -85.210      -76.671       -6.947       42.202       30.688       22.593     1781.025      941.752      510.452        0.821        0.162      114.626       16.578        0.021      338.804       11.704      861.947
09/19/2013  00:58:00      -95.477      -49.213       -8.989       25.044       20.936       15.708      627.219      438.335      246.727        0.647        0.066      107.414       13.271        0.015      338.806       11.708      861.954
09/19/2013  00:59:00      -95.660      -42.674      -15.298        9.602       13.638        7.373       92.197      185.997       54.355        0.577        0.017      104.747        3.791        0.001      338.834       11.753      861.937
09/19/2013  01:00:00      -89.074      -34.011       -3.897       13.124       20.382       12.941      172.238      415.427      167.477        0.493        0.038       95.347       10.234        0.012      338.875       11.824      861.938
09/19/2013  01:01:00      -82.821      -45.604       -5.704       19.230       19.159       15.638      369.774      367.073      244.537        0.498        0.049       94.546       11.371        0.014      338.831       11.749      861.947
09/19/2013  01:02:00     -102.050      -44.036      -12.579       14.388       13.042       11.259      207.014      170.105      126.764        0.651        0.025      111.146        3.324        0.001      338.780       11.665      861.947
09/19/2013  01:03:00     -108.404      -34.793      -14.862       14.173       12.866        9.519      200.887      165.546       90.615        0.682        0.023      113.851        7.258        0.004      338.782       11.667      861.948
09/19/2013  01:04:00     -104.387      -51.881      -17.057       12.145       13.639        8.967      147.494      186.032       80.410        0.715        0.021      116.569        4.982        0.002      338.722       11.567      861.960
09/19/2013  01:05:00     -101.328      -55.397      -15.435       13.859       17.261       11.337      192.069      297.944      128.531        0.710        0.031      115.483       10.724        0.009      338.774       11.653      861.953
09/19/2013  01:06:00      -78.433      -51.374      -14.222       30.609       14.994       17.202      936.888      224.828      295.892        0.523        0.073       93.761        5.681        0.004      338.717       11.558      861.938
09/19/2013  01:07:00      -46.745      -33.267        0.292       35.171       22.756       21.282     1236.977      517.817      452.911        0.275        0.110       57.374       15.484        0.073      338.647       11.441      861.946
09/19/2013  01:08:00      -88.397      -28.967      -12.626       20.248       21.127       14.929      409.968      446.357      222.878        0.495        0.054       93.022        9.610        0.011      338.661       11.464      861.934
09/19/2013  01:09:00      -61.177       -9.240       -7.851       24.005       25.269       13.872      576.226      638.535      192.421        0.265        0.070       61.871        7.419        0.014      338.733       11.585      861.931
09/19/2013  01:10:00      -76.006      -28.951      -17.147       19.771       19.354       14.626      390.911      374.569      213.928        0.394        0.049       81.334        4.443        0.003      338.697       11.525      861.935
09/19/2013  01:11:00      -66.201      -27.123       -8.819       29.530       21.865       13.174      872.002      478.078      173.547        0.336        0.076       71.542        7.341        0.011      338.650       11.445      861.928
09/19/2013  01:12:00      -82.769      -29.877      -15.638       21.344       16.007       11.947      455.549      256.209      142.731        0.442        0.043       87.996        8.459        0.009      338.719       11.562      861.931
09/19/2013  01:13:00     -104.129      -39.893       -8.724       20.477       19.374       14.921      419.314      375.352      222.651        0.676        0.051      111.509       10.398        0.009      338.669       11.476      861.935
09/19/2013  01:14:00      -96.481      -36.209      -15.465       17.869       18.492       15.173      319.313      341.960      230.212        0.587        0.045      103.052        6.150        0.004      338.613       11.384      861.935
09/19/2013  01:15:00      -81.826      -43.269       -7.115       15.276       20.659       13.994      233.349      426.780      195.828        0.474        0.043       92.562       11.160        0.015      338.586       11.337      861.924
09/19/2013  01:16:00     -100.379      -28.226      -14.729       21.892       20.534       16.214      479.239      421.664      262.902        0.613        0.058      104.272       12.597        0.015      338.574       11.318      861.921
09/19/2013  01:17:00     -106.667      -37.286      -21.212       19.802       11.622        8.908      392.117      135.071       79.347        0.691        0.030      112.996        3.550        0.001      338.489       11.175      861.919
09/19/2013  01:18:00      -88.453      -51.823      -18.782       23.335       20.981       13.852      544.545      440.197      191.865        0.602        0.059      102.516       12.303        0.014      338.535       11.254      861.909
09/19/2013  01:19:00      -91.837      -34.520      -19.791       28.413       25.351       12.886      807.275      642.672      166.053        0.582        0.081       98.111       13.117        0.018      338.519       11.225      861.902
09/19/2013  01:20:00      -94.129      -30.058      -21.182       16.376       15.237       12.604      268.186      232.162      158.857        0.544        0.033       98.812        7.896        0.006      338.549       11.278      861.903
09/19/2013  01:21:00      -71.166      -31.267      -13.805       15.850       12.310       14.747      251.223      151.529      217.478        0.343        0.031       77.732       11.260        0.021      338.550       11.278      861.899
09/19/2013  01:22:00      -74.596      -21.954      -18.468       17.009       15.330        9.956      289.306      235.010       99.116        0.351        0.031       77.760        9.905        0.016      338.607       11.375      861.910
09/19/2013  01:23:00      -76.031      -39.725      -12.464       15.430       21.167       13.575      238.098      448.025      184.287        0.419        0.044       85.783       10.433        0.015      338.616       11.389      861.903
09/19/2013  01:24:00      -76.694      -14.358      -13.012       14.890       17.043        9.568      221.709      290.452       91.544        0.343        0.030       78.027        3.881        0.002      338.578       11.325      861.893
09/19/2013  01:25:00      -51.079       -9.719      -12.764       17.318       11.949       10.360      299.907      142.784      107.337        0.171        0.028       51.996        9.386        0.033      338.688       11.509      861.896
09/19/2013  01:26:00      -56.339      -18.847      -15.204       14.342       13.945       12.571      205.694      194.459      158.029        0.216        0.028       59.408        9.644        0.026      338.696       11.522      861.885
09/19/2013  01:27:00      -68.561      -19.195      -19.451       13.428       12.267       10.418      180.317      150.479      108.530        0.294        0.022       71.197        7.347        0.011      338.649       11.443      861.873
09/19/2013  01:28:00      -79.529      -22.518      -14.756       12.646       12.541       10.561      159.922      157.289      111.526        0.374        0.021       82.655        5.530        0.004      338.596       11.355      861.871
09/19/2013  01:29:00      -84.558      -24.367      -17.983       14.578       11.740       11.503      212.517      137.818      132.324        0.427        0.024       87.999        3.389        0.001      338.614       11.387      861.870
09/19/2013  01:30:00      -86.419      -23.477      -13.826       15.261       16.583        9.524      232.905      274.996       90.703        0.440        0.030       89.552        6.014        0.005      338.605       11.371      861.848
09/19/2013  01:31:00      -69.563      -20.448       -9.231       19.109       13.023       12.219      365.147      169.604      149.311        0.301        0.034       72.506       10.608        0.021      338.570       11.312      861.845
09/19/2013  01:32:00      -94.358      -43.001      -15.355       11.258       12.781        8.320      126.744      163.350       69.220        0.567        0.018      103.694        4.591        0.002      338.521       11.229      861.861
09/19/2013  01:33:00      -99.216      -40.557      -18.381        9.433       11.984       10.628       88.984      143.609      112.964        0.609        0.017      107.185        4.385        0.002      338.477       11.155      861.860
09/19/2013  01:34:00      -91.982      -33.309      -15.916       10.782        7.799        8.008      116.249       60.827       64.125        0.503        0.012       97.828        3.177        0.001      338.501       11.195      861.846
09/19/2013  01:35:00      -91.428      -20.024      -14.987       10.147       12.101       10.716      102.971      146.426      114.828        0.467        0.018       93.595        7.263        0.006      338.507       11.206      861.842
09/19/2013  01:36:00      -88.406      -15.952      -18.621       16.557       12.139        8.200      274.146      147.366       67.246        0.445        0.024       89.833        6.141        0.005      338.506       11.205      861.839
09/19/2013  01:37:00      -95.922      -22.293      -13.627       12.464       11.285        8.374      155.346      127.352       70.129        0.512        0.018       98.478        5.464        0.003      338.562       11.299      861.828
09/19/2013  01:38:00     -107.036      -23.690      -17.886       10.784        9.768        7.879      116.302       95.419       62.085        0.631        0.014      109.626        6.117        0.003      338.528       11.241      861.825
09/19/2013  01:39:00     -100.122      -45.770      -13.078       12.636       16.612       10.776      159.670      275.975      116.116        0.642        0.028      110.088        7.817        0.005      338.500       11.193      861.825
09/19/2013  01:40:00     -111.019      -56.594      -12.485       17.455       21.141       13.312      304.668      446.949      177.216        0.831        0.046      124.612        6.061        0.002      338.453       11.115      861.838
09/19/2013  01:41:00     -113.759      -36.493      -14.258       10.179       11.287        6.255      103.605      127.405       39.123        0.737        0.014      119.469        4.866        0.002      338.451       11.112      861.836
09/19/2013  01:42:00      -98.622      -42.573      -14.629        8.524        8.102        7.034       72.655       65.636       49.478        0.597        0.009      107.418        2.963        0.001      338.531       11.247      861.836
09/19/2013  01:43:00      -75.497      -46.458       -2.305       36.878       24.070       15.815     1359.986      579.358      250.105        0.503        0.109       88.647       16.676        0.035      338.569       11.309      861.853
09/19/2013  01:44:00      -31.555      -22.062        7.536       26.497       19.923       14.730      702.072      396.912      216.987        0.143        0.066       38.503       14.178        0.136      338.596       11.354      861.861
09/19/2013  01:45:00      -11.236      -33.895        9.362       28.658       25.338       16.977      821.275      642.027      288.228        0.156        0.088       35.709       15.154        0.180      338.616       11.388      861.858
09/19/2013  01:46:00      -48.260      -51.966        3.481       37.472       33.317       26.693     1404.147     1110.021      712.532        0.413        0.161       70.919       20.185        0.081      338.528       11.240      861.849
09/19/2013  01:47:00      -64.400      -69.657       -4.541       31.624       25.347       18.473     1000.063      642.492      341.250        0.550        0.099       94.866       11.680        0.015      338.568       11.307      861.854
09/19/2013  01:48:00      -79.225      -61.109       -1.106       29.247       33.858       25.038      855.381     1146.333      626.906        0.632        0.131      100.055       16.678        0.028      338.420       11.059      861.854
09/19/2013  01:49:00      -98.568      -39.146       -8.900       16.467       28.936       14.430      271.166      837.278      208.225        0.632        0.066      106.057       10.126        0.009      338.491       11.179      861.842
09/19/2013  01:50:00      -94.702      -40.287      -14.787       11.141       10.588       11.111      124.131      112.111      123.450        0.558        0.018      102.915        4.322        0.002      338.459       11.126      861.832
09/19/2013  01:51:00      -87.036      -36.156      -16.284       10.709       10.754        9.782      114.685      115.652       95.684        0.474        0.016       94.248        2.393        0.001      338.503       11.200      861.841
09/19/2013  01:52:00      -90.782      -40.682       -8.035       12.396       10.528        9.714      153.663      110.834       94.371        0.516        0.018       99.481        5.056        0.003      338.488       11.175      861.848
09/19/2013  01:53:00      -94.794      -35.087      -14.571        9.245        8.132        8.617       85.478       66.130       74.257        0.533        0.011      101.079        5.636        0.003      338.428       11.073      861.854
09/19/2013  01:54:00      -94.024      -36.702      -15.742        9.013        8.158        7.323       81.228       66.552       53.629        0.532        0.010      100.934        3.706        0.001      338.393       11.012      861.858
09/19/2013  01:55:00     -102.022      -28.279      -12.612        8.226       11.029        7.606       67.670      121.638       57.858        0.581        0.012      105.869        4.995        0.002      338.417       11.054      861.862
09/19/2013  01:56:00      -86.768      -20.271      -10.396        9.845       14.086        6.544       96.918      198.420       42.822        0.419        0.017       89.105        1.474        0.000      338.416       11.052      861.854
09/19/2013  01:57:00      -81.567      -11.748      -12.598       12.818       10.067       10.051      164.299      101.338      101.017        0.366        0.018       82.409        8.259        0.010      338.411       11.044      861.849
09/19/2013  01:58:00      -75.068      -15.202      -14.524       11.269       10.100        7.121      126.982      102.018       50.714        0.318        0.014       76.592        4.957        0.004      338.404       11.032      861.842
09/19/2013  01:59:00      -87.683      -10.344      -14.263       18.210       13.046       11.570      331.597      170.197      133.866        0.432        0.032       88.291        7.363        0.007      338.433       11.081      861.849
09/19/2013  02:00:00      -87.100      -10.686      -13.019       18.635       13.671        9.624      347.247      186.883       92.623        0.425        0.031       87.753        8.611        0.010      338.435       11.083      861.834
09/19/2013  02:01:00      -69.803       -7.150       -6.731       13.564       11.452        8.764      183.983      131.142       76.800        0.268        0.020       70.168        7.353        0.011      338.456       11.120      861.818
09/19/2013  02:02:00      -54.549      -11.561       -8.578       14.615        9.467        9.763      213.602       89.616       95.312        0.179        0.020       55.761        4.778        0.007      338.499       11.191      861.814
09/19/2013  02:03:00      -52.331      -35.994       -5.035       27.125       16.988       11.837      735.744      288.589      140.106        0.261        0.058       63.514        5.312        0.007      338.396       11.019      861.806
09/19/2013  02:04:00      -53.812      -26.014       -9.622       21.623       12.936       10.120      467.570      167.345      102.406        0.220        0.037       59.770        8.098        0.018      338.336       10.919      861.802
09/19/2013  02:05:00      -89.937      -40.474      -18.583       18.750       11.809       11.598      351.556      139.446      134.507        0.535        0.031       98.625        3.752        0.001      338.290       10.839      861.793
09/19/2013  02:06:00     -101.028      -43.920      -17.690       15.344       15.809        9.732      235.432      249.932       94.710        0.651        0.029      110.162        4.646        0.002      338.222       10.726      861.781
09/19/2013  02:07:00     -119.569      -41.867      -18.130       15.156       13.823       11.655      229.719      191.070      135.837        0.847        0.028      126.687        3.447        0.001      338.237       10.750      861.770
09/19/2013  02:08:00      -97.788      -39.742      -12.030       17.954       15.177       13.007      322.332      230.343      169.171        0.600        0.036      105.555        8.953        0.007      338.292       10.844      861.768
09/19/2013  02:09:00      -92.769      -46.703      -16.971       17.633       19.621       14.782      310.929      384.981      218.514        0.599        0.046      103.861        6.868        0.004      338.315       10.882      861.768
09/19/2013  02:10:00      -71.070      -45.211      -13.983       21.741       16.444       13.855      472.686      270.402      191.949        0.411        0.047       84.231        6.107        0.005      338.292       10.844      861.772
09/19/2013  02:11:00      -90.699      -42.077      -13.570       11.339       11.441        6.478      128.568      130.900       41.964        0.524        0.015       99.984        4.672        0.002      338.234       10.748      861.768
09/19/2013  02:12:00      -85.873      -13.228      -10.398       16.407       17.622       13.361      269.190      310.547      178.523        0.421        0.038       86.886        8.907        0.011      338.319       10.891      861.757
09/19/2013  02:13:00      -70.940      -18.211       -9.961        9.424       11.477        8.014       88.821      131.727       64.230        0.287        0.014       73.240        3.426        0.002      338.337       10.922      861.756
09/19/2013  02:14:00      -73.064      -12.955      -15.095       10.136       10.052        8.649      102.742      101.045       74.806        0.301        0.014       74.204        3.947        0.003      338.373       10.981      861.752
09/19/2013  02:15:00      -79.978      -24.435      -12.815       14.459       12.429       11.593      209.061      154.476      134.398        0.383        0.025       83.628        8.638        0.011      338.386       11.002      861.741
09/19/2013  02:16:00      -86.797      -23.868       -9.202       16.459       17.448       10.788      270.911      304.418      116.382        0.444        0.035       90.018        7.498        0.007      338.433       11.079      861.743
09/19/2013  02:17:00      -98.055      -17.033      -12.417       13.487       13.704       12.365      181.906      187.813      152.886        0.529        0.026       99.523        8.354        0.007      338.343       10.929      861.738
09/19/2013  02:18:00      -99.932      -35.684      -13.396        9.905       12.316       10.181       98.102      151.673      103.655        0.590        0.018      106.111        6.021        0.003      338.281       10.825      861.739
09/19/2013  02:19:00      -87.411      -37.000      -17.926        7.566        9.666        6.774       57.239       93.423       45.884        0.476        0.010       94.920        3.853        0.002      338.246       10.768      861.742
09/19/2013  02:20:00      -96.329      -40.567      -13.713       11.578       14.078        8.030      134.052      198.198       64.481        0.575        0.020      104.523        4.238        0.002      338.235       10.748      861.742
09/19/2013  02:21:00      -94.689      -51.513      -18.142       12.323       14.649       10.487      151.844      214.599      109.979        0.621        0.024      107.795        6.062        0.003      338.190       10.673      861.726
09/19/2013  02:22:00      -92.895      -48.351      -13.014       13.671       11.024       10.439      186.898      121.520      108.962        0.578        0.021      104.725        4.801        0.002      338.115       10.546      861.720
09/19/2013  02:23:00      -58.476      -35.655       -3.277       15.390       11.984       13.348      236.840      143.615      178.168        0.263        0.028       68.489        7.833        0.013      338.149       10.604      861.725
09/19/2013  02:24:00      -81.400      -39.842       -6.376       17.826       13.806        9.494      317.780      190.612       90.129        0.443        0.030       90.628        7.318        0.007      338.195       10.681      861.724
09/19/2013  02:25:00      -95.709      -34.943      -10.822        8.884       10.039        7.158       78.926      100.773       51.238        0.536        0.012      101.888        4.610        0.002      338.215       10.716      861.710
09/19/2013  02:26:00      -89.121      -26.036      -10.518       12.212       13.500        8.290      149.135      182.262       68.725        0.457        0.020       92.846        3.832        0.002      338.201       10.692      861.697
09/19/2013  02:27:00      -96.184      -30.652      -14.441       10.322        9.114       10.263      106.539       83.058      105.335        0.535        0.015      100.950        6.063        0.004      338.140       10.589      861.699
09/19/2013  02:28:00     -108.604      -36.526      -15.124       10.983       10.408        6.371      120.621      108.320       40.584        0.681        0.013      114.582        4.036        0.001      338.128       10.569      861.708
09/19/2013  02:29:00      -99.347      -34.795      -15.121        9.300       11.859        7.899       86.486      140.628       62.391        0.580        0.014      105.264        2.202        0.000      338.124       10.564      861.714
09/19/2013  02:30:00     -103.362      -31.476      -14.047       10.141        9.168        8.593      102.840       84.049       73.832        0.607        0.013      108.049        2.092        0.000      338.084       10.495      861.706
09/19/2013  02:31:00      -87.789      -39.081      -20.141        9.570        9.120        6.602       91.589       83.171       43.588        0.493        0.011       96.095        4.315        0.002      338.052       10.440      861.697
09/19/2013  02:32:00      -85.227      -32.961      -13.497       21.225       16.719       13.505      450.501      279.521      182.384        0.472        0.046       91.379        7.713        0.007      338.120       10.556      861.695
09/19/2013  02:33:00     -117.286      -16.675      -18.104       14.903       10.468        7.692      222.106      109.583       59.164        0.738        0.020      118.466        5.485        0.002      338.122       10.559      861.685
09/19/2013  02:34:00      -87.733       -2.704      -11.410       11.873       12.661       10.524      140.963      160.294      110.760        0.412        0.021       87.775        8.680        0.010      338.028       10.401      861.672
09/19/2013  02:35:00      -82.353      -22.226       -8.680       15.590       20.445       11.068      243.056      417.999      122.506        0.407        0.039       85.300       11.090        0.017      338.024       10.393      861.668
09/19/2013  02:36:00      -82.614      -36.064      -15.865       21.913       18.206       18.018      480.198      331.475      324.637        0.476        0.057       90.142       16.439        0.033      338.020       10.387      861.667
09/19/2013  02:37:00      -86.909      -51.051      -12.286       22.626       22.970       15.144      511.926      527.627      229.350        0.579        0.063      100.794        7.382        0.005      338.024       10.394      861.660
09/19/2013  02:38:00      -84.680      -44.444      -12.530       18.639       20.847       12.988      347.400      434.608      168.687        0.513        0.048       95.635        6.786        0.005      337.916       10.212      861.660
09/19/2013  02:39:00      -97.594      -51.140      -10.457        9.324       13.696       10.562       86.934      187.572      111.556        0.632        0.019      110.181        4.978        0.002      337.988       10.332      861.653
09/19/2013  02:40:00      -99.938      -54.043       -9.917       12.463       14.503        9.786      155.318      210.333       95.761        0.673        0.023      113.614        5.645        0.002      338.048       10.436      861.645
09/19/2013  02:41:00     -102.957      -58.520      -11.922       16.206       17.892       12.581      262.623      320.141      158.277        0.745        0.037      118.426        3.993        0.001      338.039       10.419      861.633
09/19/2013  02:42:00      -98.809      -52.331      -14.391       10.957       15.266       10.618      120.049      233.043      112.736        0.659        0.023      111.811        7.975        0.005      337.954       10.277      861.630
09/19/2013  02:43:00     -101.593      -45.651      -13.017       20.150       11.629        9.070      406.025      135.228       82.271        0.660        0.031      111.378        6.625        0.004      338.022       10.393      861.618
09/19/2013  02:44:00     -110.520      -35.089      -15.706       15.871       12.967       11.557      251.881      168.146      133.553        0.712        0.028      115.957        7.023        0.004      338.031       10.405      861.599
09/19/2013  02:45:00     -104.995      -32.821      -14.630       21.816       23.808       15.103      475.947      566.803      228.108        0.679        0.064      110.005       12.454        0.013      338.024       10.394      861.596
09/19/2013  02:46:00     -110.500      -36.928      -12.663       25.387       14.914       14.192      644.504      222.436      201.408        0.740        0.053      116.507       14.919        0.016      338.009       10.368      861.616
09/19/2013  02:47:00     -145.128      -32.460      -16.878       20.368       18.158       16.190      414.853      329.721      262.110        1.170        0.050      148.714        9.833        0.004      337.939       10.252      861.629
09/19/2013  02:48:00     -141.695      -49.219      -19.915       16.702       20.581       13.447      278.955      423.588      180.830        1.189        0.044      150.000       13.504        0.008      337.914       10.210      861.632
09/19/2013  02:49:00      -89.419      -59.007      -12.772       43.598       28.940       26.538     1900.795      837.523      704.247        0.754        0.172      107.134       22.486        0.044      337.884       10.160      861.635
09/19/2013  02:50:00     -126.989      -31.633       -5.814       50.039       33.371       24.601     2503.911     1113.611      605.188        1.069        0.211      130.870       21.366        0.027      337.889       10.167      861.635
09/19/2013  02:51:00     -108.261      -53.837       -7.952       44.113       33.317       19.424     1945.989     1110.020      377.282        0.906        0.172      120.908       21.092        0.030      337.920       10.221      861.633
09/19/2013  02:52:00      -76.715      -32.615      -10.795       47.691       31.064       19.203     2274.389      964.955      368.771        0.534        0.180       83.360       13.836        0.028      337.944       10.261      861.633
09/19/2013  02:53:00      -47.080      -27.820       -1.634       39.481       32.100       21.904     1558.719     1030.433      479.764        0.303        0.153       54.685       14.175        0.067      337.884       10.161      861.625
09/19/2013  02:54:00      -53.738      -48.260        6.093       50.205       49.250       23.241     2520.525     2425.515      540.153        0.537        0.274       72.227       26.985        0.140      337.850       10.101      861.614
09/19/2013  02:55:00      -87.888      -16.624      -11.513       21.926       27.700       16.910      480.766      767.305      285.962        0.483        0.077       89.447       12.499        0.020      337.868       10.132      861.592
09/19/2013  02:56:00      -51.789      -26.185        5.519       36.457       36.147       23.671     1329.105     1306.603      560.316        0.330        0.160       58.032       13.067        0.051      337.951       10.271      861.569
09/19/2013  02:57:00      -73.870      -11.139       -9.693       29.877       18.233       13.355      892.618      332.454      178.357        0.354        0.070       74.705        7.430        0.010      337.942       10.257      861.570
09/19/2013  02:58:00      -62.280       -8.205       -1.107       29.091       17.285       16.330      846.312      298.767      266.679        0.268        0.071       62.818       14.287        0.052      337.917       10.215      861.564
09/19/2013  02:59:00      -65.524      -43.390      -14.362       27.059       31.862       13.382      732.198     1015.179      179.067        0.415        0.096       78.588        7.632        0.009      337.943       10.258      861.557
09/19/2013  03:00:00      -85.380      -55.248      -14.825       24.385       14.998       17.034      594.622      224.941      290.154        0.584        0.055      101.696       13.265        0.017      337.926       10.230      861.552
09/19/2013  03:01:00      -96.629      -33.844      -15.630       18.662       25.284       14.706      348.256      639.300      216.275        0.597        0.060      102.385       10.855        0.011      338.008       10.368      861.551
09/19/2013  03:02:00      -91.599        2.428      -12.645       13.146       12.460       10.293      172.812      155.256      105.955        0.450        0.022       91.632        7.579        0.007      338.058       10.451      861.544
09/19/2013  03:03:00      -77.254        0.545      -13.864       11.510       10.442        9.317      132.479      109.029       86.804        0.324        0.016       77.256        4.111        0.003      338.239       10.756      861.535
09/19/2013  03:04:00      -64.425       -3.314       -4.722       10.542        8.412        9.131      111.139       70.754       83.375        0.222        0.013       64.510        5.627        0.008      338.227       10.735      861.542
09/19/2013  03:05:00      -60.335        1.849       -6.370       12.480       13.960        8.212      155.756      194.893       67.438        0.205        0.021       60.363        6.688        0.012      338.307       10.870      861.522
09/19/2013  03:06:00      -53.222      -24.078       -8.441       14.529       16.075       12.600      211.080      258.409      158.760        0.206        0.031       58.415        9.967        0.029      338.328       10.905      861.506
09/19/2013  03:07:00      -80.769      -26.884      -12.276       16.801       10.159       11.078      282.272      103.200      122.717        0.395        0.025       85.126       10.293        0.015      338.112       10.543      861.483
09/19/2013  03:08:00      -80.806      -16.772      -20.091       10.151       16.245        9.580      103.044      263.895       91.776        0.384        0.023       82.529        9.503        0.013      338.063       10.459      861.482
09/19/2013  03:09:00      -69.363      -27.480      -13.443       21.791       14.796       12.123      474.827      218.922      146.958        0.329        0.042       74.609       10.940        0.022      338.126       10.566      861.476
09/19/2013  03:10:00      -80.275      -56.426      -13.170       21.916       22.221       14.328      480.299      493.780      205.288        0.549        0.059       98.122       10.852        0.012      338.013       10.375      861.468
09/19/2013  03:11:00     -106.878      -39.475      -23.689       11.894       13.276       13.954      141.459      176.245      194.717        0.703        0.026      113.935        5.199        0.002      337.983       10.326      861.472
09/19/2013  03:12:00      -96.846      -49.790      -21.039       10.397       18.896       10.139      108.088      357.053      102.791        0.643        0.028      108.895        8.317        0.006      337.897       10.181      861.478
09/19/2013  03:13:00     -108.381       -9.632      -21.964       11.396       14.105       10.299      129.866      198.946      106.063        0.638        0.022      108.808        7.095        0.004      337.928       10.233      861.483
09/19/2013  03:14:00      -71.546      -12.198      -13.084       19.902       17.337       12.146      396.087      300.558      147.528        0.314        0.042       72.578       11.540        0.025      337.896       10.179      861.478
09/19/2013  03:15:00      -88.411      -33.634      -10.769       12.209       12.228        8.407      149.064      149.523       70.677        0.472        0.018       94.593        7.174        0.006      337.883       10.156      861.477
09/19/2013  03:16:00     -134.187      -32.083      -21.554       23.849       11.785       11.391      568.756      138.875      129.759        1.017        0.042      137.969       14.010        0.010      337.982       10.324      861.458
09/19/2013  03:17:00     -140.594      -23.596      -23.572       14.228       14.084       12.233      202.447      198.349      149.642        1.071        0.028      142.561        9.287        0.004      337.952       10.273      861.441
09/19/2013  03:18:00     -106.085      -30.883      -17.609       19.928       11.794       12.908      397.116      139.106      166.624        0.661        0.035      110.488       10.483        0.009      337.922       10.222      861.431
09/19/2013  03:19:00      -78.092      -42.087      -23.765       15.450       17.448       11.373      238.702      304.441      129.343        0.455        0.034       88.711        9.991        0.013      337.958       10.282      861.426
09/19/2013  03:20:00      -87.330      -46.998      -15.781       23.928       25.054       14.767      572.550      627.692      218.051        0.575        0.071       99.173       12.037        0.015      338.028       10.401      861.435
09/19/2013  03:21:00     -110.733      -54.387      -14.683       18.300       17.443       12.251      334.878      304.253      150.089        0.811        0.039      123.368        6.580        0.003      337.866       10.129      861.447
09/19/2013  03:22:00      -76.571      -77.853       -0.344       38.899       32.082       26.788     1513.142     1029.259      717.577        0.759        0.163      109.198       25.450        0.054      337.814       10.042      861.467
09/19/2013  03:23:00      -89.253      -52.965       -6.066       30.932       38.910       20.403      956.813     1513.990      416.266        0.685        0.144      103.785       14.145        0.019      337.693        9.841      861.476
09/19/2013  03:24:00      -71.947      -69.581       -6.851       55.480       42.490       19.958     3078.015     1805.410      398.323        0.767        0.264      100.089       23.000        0.053      337.666        9.793      861.470
09/19/2013  03:25:00      -98.883      -73.195      -10.885       32.129       25.646       17.051     1032.243      657.695      290.744        0.862        0.099      123.026        9.209        0.006      337.676        9.811      861.449
09/19/2013  03:26:00      -97.802      -71.264       -6.958       32.305       20.227       21.008     1043.629      409.143      441.330        0.829        0.095      121.011       15.053        0.015      337.564        9.623      861.452
09/19/2013  03:27:00      -72.176      -73.834        1.253       43.170       33.443       28.904     1863.631     1118.420      835.440        0.724        0.191      103.251       23.580        0.052      337.498        9.513      861.463
09/19/2013  03:28:00     -108.509      -60.816        0.353       58.955       32.062       30.954     3475.701     1027.997      958.145        1.047        0.273      124.390       33.696        0.073      337.446        9.425      861.474
09/19/2013  03:29:00      -66.085      -42.304       10.499       71.821       46.802       28.373     5158.296     2190.387      805.008        0.721        0.408       78.465       27.821        0.126      337.521        9.551      861.483
09/19/2013  03:30:00     -189.255     -115.065      -19.483       44.826       43.467       24.625     2009.332     1889.348      606.393        2.697        0.225      221.489       17.225        0.006      337.511        9.530      861.494
09/19/2013  03:31:00     -135.915      -79.756      -15.897       25.042       37.906       17.343      627.082     1436.865      300.766        1.373        0.118      157.588       18.368        0.014      337.445        9.422      861.522
09/19/2013  03:32:00     -142.350      -71.610      -16.829       16.990       24.799       13.311      288.651      615.004      177.193        1.338        0.054      159.347        6.561        0.002      337.523        9.556      861.531
09/19/2013  03:33:00     -142.971      -71.125      -10.601       29.063       21.601       16.254      844.667      466.597      264.203        1.359        0.079      159.685       14.794        0.009      337.498        9.514      861.537
09/19/2013  03:34:00      -84.205      -55.597        0.529       33.585       29.234       23.155     1127.971      854.645      536.176        0.635        0.126      100.903       17.270        0.029      337.525        9.557      861.549
09/19/2013  03:35:00      -63.223      -38.301        6.111       43.535       21.942       18.830     1895.319      481.442      354.568        0.412        0.137       73.920       21.963        0.088      337.542        9.587      861.558
09/19/2013  03:36:00      -95.078      -30.753       -7.389       17.600       14.384       12.325      309.752      206.897      151.902        0.535        0.033       99.928        3.101        0.001      337.595        9.676      861.544
09/19/2013  03:37:00     -104.604      -39.128       -9.780       12.678       23.866       12.507      160.728      569.576      156.420        0.673        0.044      111.682        8.307        0.006      337.561        9.618      861.539
09/19/2013  03:38:00     -115.288      -37.293       -9.621       18.002       13.826       13.580      324.060      191.151      184.419        0.774        0.035      121.170        7.309        0.004      337.624        9.725      861.532
09/19/2013  03:39:00     -120.957      -54.326      -11.339       12.664        9.996        9.584      160.373       99.920       91.855        0.903        0.018      132.597        4.114        0.001      337.539        9.581      861.526
09/19/2013  03:40:00     -130.701      -38.764      -14.903       15.893       17.522        8.868      252.597      307.032       78.638        0.972        0.032      136.328        7.903        0.003      337.525        9.557      861.527
09/19/2013  03:41:00      -99.282      -76.797       -4.793       39.261       28.128       22.716     1541.387      791.203      516.015        0.931        0.142      125.517       18.258        0.021      337.475        9.474      861.527
09/19/2013  03:42:00      -41.251      -45.515        7.921       38.028       29.929       16.033     1446.151      895.765      257.054        0.322        0.130       61.427       13.982        0.052      337.516        9.542      861.558
09/19/2013  03:43:00      -38.101      -31.493        0.086       22.393       18.697       15.802      501.430      349.585      249.700        0.177        0.055       49.431       10.221        0.043      337.518        9.546      861.590
09/19/2013  03:44:00      -90.447      -44.847      -13.010       15.419       17.706       13.513      237.741      313.504      182.612        0.555        0.037      100.955        4.625        0.002      337.498        9.513      861.585
09/19/2013  03:45:00      -79.676      -26.513      -18.843       13.022       12.839        9.593      169.564      164.851       92.031        0.392        0.021       83.972        5.591        0.004      337.538        9.580      861.575
09/19/2013  03:46:00      -73.296      -43.039       -4.306       21.969       15.513       14.579      482.622      240.668      212.533        0.409        0.047       84.998        7.896        0.009      337.605        9.692      861.576
09/19/2013  03:47:00     -104.896      -54.197      -14.065       18.688       13.016       14.001      349.247      169.419      196.033        0.743        0.036      118.069        9.806        0.007      337.554        9.606      861.572
09/19/2013  03:48:00     -119.212      -48.859      -16.524        6.717       10.078        8.931       45.123      101.563       79.763        0.855        0.011      128.836        3.478        0.001      337.494        9.506      861.571
09/19/2013  03:49:00     -123.171      -64.596      -13.944       17.719       11.398       12.229      313.953      129.911      149.550        1.007        0.030      139.082       10.649        0.006      337.470        9.466      861.576
09/19/2013  03:50:00     -110.585      -86.210        0.390       28.999       27.077       24.825      840.969      733.191      616.287        1.093        0.110      140.218       20.038        0.020      337.407        9.360      861.569
09/19/2013  03:51:00      -77.002      -63.823        2.259       50.536       35.888       30.269     2553.903     1287.948      916.231        0.738        0.238      100.013       27.064        0.073      337.282        9.152      861.576
09/19/2013  03:52:00      -73.714      -62.924        5.385       50.677       45.118       26.701     2568.158     2035.678      712.939        0.737        0.266       96.918       33.701        0.121      337.210        9.031      861.601
09/19/2013  03:53:00      -68.940      -59.055        1.927       35.418       30.024       20.627     1254.457      901.467      425.470        0.541        0.129       90.776       13.533        0.022      337.243        9.086      861.599
09/19/2013  03:54:00      -81.018      -66.918       -2.107       44.367       30.930       23.032     1968.419      956.675      530.481        0.725        0.173      105.080       23.601        0.050      337.247        9.092      861.579
09/19/2013  03:55:00      -95.614      -43.021       -0.363       25.326       25.704       15.984      641.390      660.713      255.495        0.627        0.078      104.847       12.405        0.014      337.249        9.096      861.557
09/19/2013  03:56:00      -88.849      -50.305       -1.201       20.860       18.784       12.095      435.159      352.847      146.285        0.568        0.047      102.102       11.508        0.013      337.307        9.192      861.554
09/19/2013  03:57:00      -98.371      -44.441      -14.449       11.263       14.633        8.857      126.865      214.139       78.442        0.614        0.021      107.943        4.641        0.002      337.258        9.111      861.537
09/19/2013  03:58:00     -115.923      -45.995      -18.128       16.727       15.539       12.406      279.792      241.460      153.903        0.828        0.034      124.714        4.588        0.001      337.273        9.136      861.521
09/19/2013  03:59:00      -93.090      -68.015       -7.420       28.193       17.392       14.576      794.825      302.484      212.447        0.733        0.065      115.290        9.697        0.007      337.290        9.163      861.517
09/19/2013  04:00:00      -83.386      -58.832      -13.356       29.650       16.323       17.039      879.144      266.437      290.327        0.601        0.072      102.051       18.032        0.031      337.248        9.095      861.520
09/19/2013  04:01:00     -101.908      -47.389       -5.513       22.258       31.152       16.441      495.416      970.431      270.308        0.720        0.087      112.388       10.571        0.009      337.280        9.147      861.512
09/19/2013  04:02:00     -134.915      -42.746      -10.364       15.191       15.706       11.484      230.758      246.666      131.879        1.037        0.030      141.525        6.603        0.002      337.238        9.078      861.500
09/19/2013  04:03:00     -111.554      -60.600       -0.804       30.050       22.882       16.495      903.011      523.580      272.076        0.891        0.085      126.951       16.255        0.016      337.183        8.986      861.492
09/19/2013  04:04:00      -93.010      -54.566       -1.611       32.780       20.299       18.558     1074.514      412.045      344.404        0.673        0.092      107.835       16.310        0.023      337.234        9.070      861.496
09/19/2013  04:05:00      -64.620      -55.537        0.284       28.613       28.091       18.901      818.722      789.111      357.243        0.461        0.098       85.206       18.391        0.047      337.224        9.054      861.490
09/19/2013  04:06:00      -93.740      -59.466       -8.160       18.384       16.538       16.606      337.981      273.495      275.745        0.664        0.044      111.011        8.834        0.006      337.224        9.055      861.487
09/19/2013  04:07:00     -119.646      -59.701      -12.865       17.486       18.810       10.463      305.756      353.833      109.469        0.941        0.038      133.714        4.462        0.001      337.219        9.045      861.485
09/19/2013  04:08:00     -114.172      -53.607      -10.144       12.833       11.377       12.271      164.695      129.446      150.571        0.823        0.022      126.131        4.846        0.001      337.173        8.969      861.491
09/19/2013  04:09:00     -104.720      -71.305      -13.619       15.581       21.342       16.985      242.760      455.482      288.490        0.861        0.049      126.691        8.796        0.005      337.152        8.931      861.486
09/19/2013  04:10:00     -102.731      -71.769       -8.807       18.576       22.733       16.178      345.071      516.798      261.740        0.845        0.056      125.317       12.852        0.011      337.175        8.971      861.481
09/19/2013  04:11:00     -104.534      -61.083       -4.469       35.289       21.187       19.979     1245.347      448.908      399.142        0.839        0.105      121.072       19.153        0.025      337.189        8.995      861.475
09/19/2013  04:12:00      -84.536      -54.026       -5.885       34.388       22.006       17.277     1182.528      484.251      298.512        0.603        0.098      100.325        8.723        0.008      337.202        9.017      861.480
09/19/2013  04:13:00      -98.667      -62.094      -10.136       28.664       17.234       12.339      821.615      297.027      152.244        0.748        0.064      116.580       12.830        0.012      337.177        8.975      861.475
09/19/2013  04:14:00      -68.557      -61.244       -4.104       40.849       23.350       18.624     1668.645      545.237      346.868        0.551        0.128       91.929       21.335        0.054      337.163        8.951      861.472
09/19/2013  04:15:00      -95.481      -66.952       -3.713       29.032       26.771       18.238      842.837      716.676      332.619        0.775        0.095      116.615       16.898        0.021      337.217        9.040      861.473
09/19/2013  04:16:00     -122.827      -52.175      -15.547       17.057       18.310       15.460      290.938      335.263      239.003        0.946        0.043      133.449        4.102        0.001      337.213        9.036      861.458
09/19/2013  04:17:00     -131.081      -40.626      -18.405       11.748       14.950       10.898      138.010      223.499      118.777        0.983        0.024      137.232        7.515        0.003      337.166        8.956      861.437
09/19/2013  04:18:00     -132.187      -52.355      -15.133       17.466       17.791       15.532      305.049      316.527      241.238        1.065        0.043      142.178        7.253        0.003      337.175        8.972      861.425
09/19/2013  04:19:00     -136.916      -49.628      -19.608       11.914       15.856       12.117      141.951      251.419      146.819        1.107        0.027      145.633        8.906        0.004      337.136        8.906      861.440
09/19/2013  04:20:00     -112.574      -57.165      -16.422       18.341       17.134       15.279      336.398      293.575      233.444        0.854        0.043      126.257        9.817        0.006      337.150        8.930      861.459
09/19/2013  04:21:00      -98.818      -53.522      -14.338       22.788       14.868       12.847      519.304      221.061      165.054        0.687        0.045      112.382       11.595        0.011      337.126        8.889      861.471
09/19/2013  04:22:00     -118.944      -46.757      -16.300       14.080       14.146       10.018      198.244      200.122      100.365        0.855        0.025      127.804        6.414        0.003      337.137        8.908      861.461
09/19/2013  04:23:00     -118.901      -58.282      -14.762       19.863       17.516       16.647      394.542      306.805      277.128        0.937        0.049      132.416        8.798        0.004      337.172        8.966      861.470
09/19/2013  04:24:00     -121.592      -74.317      -20.925       19.092       21.960       12.519      364.511      482.238      156.722        1.087        0.050      142.505        4.477        0.001      337.184        8.987      861.474
09/19/2013  04:25:00     -124.110      -70.826       -2.753       26.376       27.299       17.880      695.671      745.255      319.691        1.109        0.088      142.897       11.392        0.006      337.121        8.881      861.469
09/19/2013  04:26:00     -132.583      -54.004       -8.391       18.156       21.464       14.534      329.638      460.698      211.228        1.078        0.050      143.160        9.810        0.005      337.066        8.788      861.481
09/19/2013  04:27:00      -77.693      -49.481       -4.149       35.722       23.596       23.293     1276.056      556.779      542.542        0.544        0.119       92.112       12.346        0.018      337.040        8.744      861.495
09/19/2013  04:28:00      -73.054      -49.677        5.814       42.796       29.934       23.860     1831.465      896.018      569.297        0.557        0.165       88.344       27.308        0.096      337.035        8.736      861.514
09/19/2013  04:29:00     -113.302      -48.037       -7.841       29.912       21.637       16.923      894.725      468.159      286.384        0.843        0.082      123.065       10.080        0.007      337.108        8.860      861.516
09/19/2013  04:30:00      -74.315      -42.558       -7.425       23.790       15.138       14.374      565.973      229.155      206.623        0.420        0.050       85.638       12.686        0.022      337.111        8.864      861.518
09/19/2013  04:31:00      -49.039      -46.315       -0.322       28.855       24.028       17.398      832.629      577.323      302.690        0.313        0.086       67.453       14.575        0.047      337.062        8.783      861.532
09/19/2013  04:32:00      -61.880      -56.034       -9.895       29.033       20.399       11.792      842.933      416.124      139.046        0.423        0.070       83.481        7.571        0.008      337.114        8.869      861.532
09/19/2013  04:33:00      -81.582      -53.321       -8.866       17.803       12.055       11.058      316.938      145.327      122.270        0.508        0.029       97.461        5.305        0.003      337.108        8.858      861.541
09/19/2013  04:34:00      -75.998      -53.590       -6.275       22.671       16.435       14.095      513.960      270.116      198.663        0.483        0.049       92.992       11.715        0.016      337.097        8.840      861.559
09/19/2013  04:35:00      -46.652      -44.945        5.300       32.029       26.274       20.002     1025.828      690.330      400.069        0.317        0.106       64.780       17.435        0.072      337.026        8.723      861.566
09/19/2013  04:36:00      -85.017      -49.477       -5.909       53.823       25.831       18.943     2896.883      667.248      358.825        0.682        0.196       98.366       19.414        0.039      337.001        8.680      861.560
09/19/2013  04:37:00     -135.356      -59.156      -14.783       19.842       12.499       15.054      393.693      156.219      226.623        1.141        0.039      147.718       12.949        0.008      337.023        8.718      861.559
09/19/2013  04:38:00     -135.456      -71.330      -20.270       14.739       16.272       11.988      217.239      264.768      143.717        1.224        0.031      153.090        7.309        0.002      337.002        8.681      861.565
09/19/2013  04:39:00     -125.078      -61.948      -11.631       14.519       20.562       11.731      210.815      422.792      137.614        1.019        0.039      139.578        5.459        0.002      336.972        8.631      861.573
09/19/2013  04:40:00     -114.369      -64.078      -11.437       16.976       21.872       15.844      288.186      478.401      251.043        0.917        0.051      131.097       11.933        0.008      336.979        8.642      861.578
09/19/2013  04:41:00      -95.688      -62.512      -10.328       35.006       20.940       14.078     1225.393      438.492      198.176        0.752        0.093      114.298        9.381        0.007      336.987        8.655      861.586
09/19/2013  04:42:00      -52.840      -45.252        9.808       33.455       25.026       20.944     1119.262      626.282      438.656        0.356        0.109       69.569       19.053        0.075      336.973        8.634      861.607
09/19/2013  04:43:00     -102.879      -72.089       -9.764       32.739       18.258       17.428     1071.837      333.358      303.736        0.879        0.085      125.622       17.464        0.019      336.972        8.631      861.612
09/19/2013  04:44:00     -142.531      -71.569      -20.690       19.677       18.015       16.566      387.201      324.549      274.434        1.343        0.049      159.490       12.098        0.006      336.993        8.666      861.596
09/19/2013  04:45:00     -140.421      -66.836      -12.452       16.038       21.003       15.717      257.226      441.114      247.023        1.264        0.047      155.515       11.037        0.005      336.930        8.563      861.586
09/19/2013  04:46:00     -126.634      -59.113      -13.666       17.792       18.223       15.283      316.555      332.060      233.556        1.030        0.044      139.751        8.087        0.003      336.934        8.568      861.586
09/19/2013  04:47:00     -114.310      -53.029       -9.239       21.656       20.098       18.709      468.962      403.911      350.014        0.859        0.061      126.011       14.830        0.014      336.971        8.627      861.584
09/19/2013  04:48:00     -100.652      -45.524       -3.679       19.481       10.000        7.815      379.495       99.997       61.067        0.638        0.027      110.468        5.419        0.002      336.959        8.610      861.571
09/19/2013  04:49:00     -115.576      -47.006      -12.435       11.513       15.258       10.103      132.540      232.810      102.075        0.809        0.023      124.769        6.362        0.003      337.046        8.756      861.566
09/19/2013  04:50:00     -118.028      -44.345      -14.863       11.997       14.889       13.667      143.938      221.675      186.796        0.834        0.028      126.083        7.462        0.004      337.036        8.739      861.553
09/19/2013  04:51:00     -123.885      -50.867      -18.593       17.887       15.568        9.649      319.932      242.366       93.104        0.947        0.033      133.922        6.449        0.002      337.015        8.702      861.535
09/19/2013  04:52:00     -133.492      -54.743      -17.035       11.735       15.303        9.337      137.701      234.193       87.176        1.078        0.023      144.280        6.153        0.002      336.995        8.670      861.536
09/19/2013  04:53:00     -126.863      -57.944      -15.758       15.392       17.633       12.884      236.902      310.939      165.991        1.021        0.036      139.470        5.821        0.002      337.013        8.699      861.545
09/19/2013  04:54:00      -88.794      -67.890        2.043       45.134       22.980       22.503     2037.044      528.081      506.405        0.778        0.154      111.773       22.295        0.040      337.025        8.720      861.552
09/19/2013  04:55:00      -93.253      -80.893       -1.708       45.128       28.636       30.061     2036.507      820.002      903.643        0.950        0.188      123.450       28.706        0.054      336.950        8.594      861.570
09/19/2013  04:56:00     -107.447      -71.743       -4.492       37.037       32.865       27.214     1371.752     1080.116      740.601        0.995        0.160      129.197       23.388        0.033      336.947        8.590      861.562
09/19/2013  04:57:00     -119.367      -69.257       -9.027       31.902       24.620       20.010     1017.734      606.124      400.388        1.057        0.101      138.004       14.790        0.011      336.967        8.622      861.535
09/19/2013  04:58:00     -123.749      -47.651       -3.940       20.452       21.303       13.239      418.290      453.811      175.269        0.932        0.052      132.606        8.362        0.004      336.927        8.556      861.525
09/19/2013  04:59:00      -83.230      -61.601       -6.659       25.334       22.171       18.749      641.796      491.562      351.517        0.613        0.074      103.547       11.078        0.011      336.939        8.576      861.531
09/19/2013  05:00:00      -75.069      -46.051        0.554       28.054       20.259       15.879      787.004      410.408      252.151        0.460        0.072       88.068       14.429        0.027      336.961        8.613      861.526
09/19/2013  05:01:00      -88.652      -43.131      -11.298       10.657        9.821        8.315      113.579       96.450       69.145        0.506        0.014       98.587        5.354        0.003      336.987        8.656      861.521
09/19/2013  05:02:00      -86.644      -31.434      -11.197       14.391       12.438       10.396      207.107      154.704      108.073        0.455        0.023       92.170        4.820        0.003      337.022        8.716      861.533
09/19/2013  05:03:00      -87.739      -28.001      -12.159       11.274        8.812        8.792      127.114       77.646       77.308        0.446        0.014       92.099        6.511        0.005      336.957        8.605      861.531
09/19/2013  05:04:00     -104.254      -39.380      -12.359        9.522        9.421        7.340       90.677       88.755       53.872        0.640        0.012      111.444        3.923        0.001      337.020        8.709      861.527
09/19/2013  05:05:00      -80.211      -56.031      -10.465       22.411       14.908       12.760      502.275      222.251      162.830        0.528        0.044       97.843        8.060        0.007      337.035        8.737      861.517
09/19/2013  05:06:00      -72.155      -56.689       -5.270       18.779       20.389       12.419      352.653      415.725      154.224        0.468        0.046       91.760        6.798        0.005      337.051        8.763      861.531
09/19/2013  05:07:00      -65.756      -52.995       -4.208       23.754       22.219       14.077      564.265      493.686      198.167        0.420        0.063       84.453       10.914        0.017      337.024        8.719      861.540
09/19/2013  05:08:00      -42.930      -42.733        1.099       35.794       23.687       16.998     1281.235      561.094      288.919        0.290        0.107       60.573       17.006        0.079      336.953        8.600      861.547
09/19/2013  05:09:00      -85.018      -41.231      -10.693       26.343       18.744       13.445      693.956      351.322      180.779        0.513        0.061       94.488        4.994        0.003      337.010        8.694      861.554
09/19/2013  05:10:00     -105.841      -57.041      -10.788       26.613       25.052       15.173      708.275      627.598      230.229        0.807        0.078      120.233        9.582        0.006      336.982        8.647      861.552
09/19/2013  05:11:00      -53.729      -50.159        2.881       39.724       36.544       21.856     1577.995     1335.437      477.699        0.440        0.170       73.503       24.858        0.114      336.878        8.475      861.548
09/19/2013  05:12:00     -107.315      -83.753       -2.940       43.847       27.393       20.407     1922.592      750.385      416.431        1.081        0.154      136.129       24.577        0.033      336.960        8.611      861.556
09/19/2013  05:13:00     -114.341      -71.828       -2.517       44.450       28.717       26.476     1975.845      824.694      700.966        1.087        0.175      135.030       25.464        0.036      336.911        8.530      861.558
09/19/2013  05:14:00      -83.869      -78.132        7.908       46.664       38.151       26.954     2177.517     1455.518      726.493        0.878        0.218      114.623       27.316        0.057      336.806        8.354      861.558
09/19/2013  05:15:00     -100.742      -71.628       -0.521       55.112       32.938       22.894     3037.287     1084.917      524.135        0.996        0.232      123.610       26.411        0.046      336.804        8.352      861.555
09/19/2013  05:16:00     -145.650      -52.055       -8.906       30.157       26.558       14.153      909.436      705.327      200.297        1.291        0.091      154.673       12.527        0.007      336.882        8.482      861.549
09/19/2013  05:17:00      -65.763      -47.384        1.266       27.616       17.622       15.940      762.627      310.540      254.089        0.395        0.066       81.056       13.555        0.028      336.854        8.435      861.555
09/19/2013  05:18:00      -39.117      -69.184       10.455       62.212       60.891       25.199     3870.388     3707.766      634.967        0.732        0.411       79.477       35.271        0.197      336.914        8.533      861.566
09/19/2013  05:19:00     -149.111      -66.216      -13.503       19.428       37.251       14.726      377.451     1387.620      216.870        1.439        0.099      163.152       14.159        0.008      336.908        8.524      861.563
09/19/2013  05:20:00     -116.404      -50.458       -5.547       35.099       18.319       18.038     1231.908      335.601      325.373        0.901        0.095      126.870       19.270        0.023      336.952        8.599      861.573
09/19/2013  05:21:00      -67.901      -40.507        1.291       36.303       27.238       16.729     1317.915      741.933      279.851        0.430        0.117       79.066       12.795        0.026      336.823        8.385      861.597
09/19/2013  05:22:00     -108.571      -79.591       -4.835       32.060       31.724       23.385     1027.867     1006.401      546.881        1.036        0.129      134.620       18.166        0.018      336.908        8.524      861.611
09/19/2013  05:23:00     -121.393      -68.705       -3.207       41.740       28.708       25.504     1742.230      824.155      650.474        1.134        0.161      139.487       21.282        0.023      336.841        8.414      861.621
09/19/2013  05:24:00     -127.704      -91.111       -6.237       54.858       49.195       23.631     3009.407     2420.190      558.401        1.532        0.299      156.874       17.617        0.013      336.848        8.425      861.631
09/19/2013  05:25:00     -135.168      -91.197       -4.390       55.402       52.988       27.974     3069.327     2807.688      782.523        1.663        0.333      163.056       28.759        0.031      336.829        8.392      861.631
09/19/2013  05:26:00     -122.142     -103.638       -5.509       55.671       40.529       29.301     3099.301     1642.579      858.566        1.564        0.280      160.186       31.955        0.040      336.779        8.310      861.652
09/19/2013  05:27:00     -156.869     -131.788       -6.719       40.631       45.420       32.662     1650.866     2062.937     1066.792        2.340        0.239      204.880       23.130        0.013      336.713        8.199      861.660
09/19/2013  05:28:00     -178.517     -125.726      -14.833       61.804       50.434       31.724     3819.680     2543.538     1006.385        2.763        0.368      218.347       25.212        0.013      336.657        8.105      861.650
09/19/2013  05:29:00      -83.956      -51.741        7.574       60.692       36.641       27.670     3683.468     1342.579      765.603        0.779        0.290       98.619       28.118        0.081      336.718        8.209      861.634
09/19/2013  05:30:00      -79.630      -40.329        8.877       47.497       43.592       27.585     2255.961     1900.232      760.940        0.648        0.246       89.260       26.046        0.085      336.687        8.156      861.637
09/19/2013  05:31:00     -106.750      -94.115       -3.833       54.659       32.563       24.417     2987.620     1060.358      596.195        1.246        0.232      142.314       26.726        0.035      336.653        8.101      861.623
09/19/2013  05:32:00      -99.058      -55.981       -0.313       45.238       28.462       25.744     2046.500      810.105      662.751        0.823        0.176      113.782       21.708        0.036      336.703        8.185      861.611
09/19/2013  05:33:00      -29.889      -47.586        1.742       46.721       35.225       23.418     2182.846     1240.812      548.384        0.357        0.199       56.194       26.272        0.219      336.717        8.208      861.613
09/19/2013  05:34:00      -87.021      -66.091       -1.805       45.169       27.898       24.113     2040.280      778.276      581.429        0.767        0.170      109.273       16.984        0.024      336.725        8.221      861.615
09/19/2013  05:35:00     -111.898      -68.261        0.701       34.345       23.940       19.312     1179.562      573.145      372.966        0.965        0.106      131.075       15.628        0.014      336.728        8.225      861.630
09/19/2013  05:36:00      -74.706      -63.612        1.194       47.949       37.565       27.322     2299.074     1411.127      746.477        0.704        0.223       98.120       24.004        0.060      336.725        8.222      861.642
09/19/2013  05:37:00      -35.056      -38.491       18.279       42.811       36.181       26.238     1832.754     1309.090      688.429        0.344        0.192       52.062       24.627        0.224      336.702        8.183      861.659
09/19/2013  05:38:00      -42.800      -33.864        9.594       49.912       29.206       24.947     2491.169      852.972      622.332        0.352        0.198       54.576       28.813        0.279      336.668        8.125      861.669
09/19/2013  05:39:00      -67.406      -48.433        2.700       37.938       31.167       15.482     1439.260      971.365      239.705        0.477        0.133       83.002       14.748        0.032      336.649        8.093      861.677
09/19/2013  05:40:00      -57.336      -29.605       13.062       45.291       19.450       20.415     2051.313      378.320      416.774        0.359        0.142       64.528       25.217        0.153      336.660        8.113      861.686
09/19/2013  05:41:00      -11.958      -43.395       23.891       54.054       25.588       23.235     2921.879      654.741      539.867        0.336        0.206       45.012       31.765        0.498      336.681        8.147      861.693
09/19/2013  05:42:00      -80.056      -74.024       -8.768       39.525       40.336       21.823     1562.199     1626.966      476.264        0.781        0.183      109.035       23.595        0.047      336.727        8.224      861.694
09/19/2013  05:43:00      -73.548      -76.588        4.442       44.481       33.705       23.773     1978.600     1136.052      565.147        0.749        0.184      106.184       21.752        0.042      336.656        8.105      861.691
09/19/2013  05:44:00     -126.952      -90.210       -2.002       39.172       31.439       21.858     1534.428      988.399      477.794        1.363        0.150      155.739       14.608        0.009      336.667        8.124      861.687
09/19/2013  05:45:00      -69.083      -53.476        8.587       42.172       38.079       26.779     1778.442     1450.038      717.129        0.582        0.197       87.362       22.345        0.065      336.599        8.011      861.690
09/19/2013  05:46:00      -64.283      -51.863        2.885       39.914       31.660       18.290     1593.088     1002.326      334.510        0.488        0.146       82.596       16.357        0.039      336.607        8.023      861.702
09/19/2013  05:47:00      -85.027      -59.353       -3.796       29.934       16.760       14.513      896.017      280.908      210.630        0.608        0.069      103.693       11.231        0.012      336.615        8.036      861.719
09/19/2013  05:48:00      -75.883      -59.040       -1.990       30.449       25.893       15.488      927.148      670.442      239.881        0.554        0.092       96.145       12.221        0.016      336.607        8.024      861.719
09/19/2013  05:49:00      -82.283      -68.230       -1.417       29.317       22.038       17.150      859.465      485.665      294.133        0.653        0.082      106.891       10.837        0.010      336.626        8.055      861.716
09/19/2013  05:50:00      -94.007      -58.349       -1.317       29.087       23.394       17.822      846.064      547.271      317.636        0.698        0.086      110.643       15.748        0.020      336.634        8.069      861.716
09/19/2013  05:51:00      -90.955      -50.569      -13.482       17.545       18.197       12.803      307.835      331.139      163.924        0.591        0.040      104.067        4.774        0.002      336.688        8.159      861.717
09/19/2013  05:52:00      -90.838      -45.463       -4.954       23.109       24.822       17.306      534.022      616.131      299.493        0.590        0.072      101.580       13.950        0.019      336.710        8.195      861.714
09/19/2013  05:53:00      -72.427      -40.411       -4.235       27.932       16.574       14.295      780.176      274.709      204.346        0.408        0.063       82.938        8.343        0.010      336.653        8.100      861.722
09/19/2013  05:54:00      -76.009      -37.910       -6.802       15.264       15.563       10.728      232.975      242.199      115.090        0.393        0.030       84.939        5.416        0.004      336.690        8.163      861.732
09/19/2013  05:55:00      -64.174      -38.017       -2.864       14.763       18.086       11.025      217.936      327.103      121.547        0.312        0.033       74.590        8.201        0.012      336.814        8.369      861.730
09/19/2013  05:56:00      -50.086      -28.502       -2.764       17.096       12.840       10.232      292.261      164.855      104.684        0.195        0.028       57.628        7.170        0.015      336.791        8.331      861.737
09/19/2013  05:57:00      -65.053      -41.125      -14.139       15.337        8.995        8.382      235.234       80.904       70.259        0.325        0.019       76.962        3.543        0.002      336.785        8.320      861.738
09/19/2013  05:58:00      -47.951      -24.057       -5.228       22.363       14.881       11.411      500.098      221.433      130.210        0.188        0.043       53.647        4.653        0.008      336.838        8.409      861.746
09/19/2013  05:59:00      -58.212      -31.170       -4.517       17.322       15.077       12.047      300.043      227.303      145.122        0.253        0.034       66.032        6.641        0.010      336.851        8.430      861.751
09/19/2013  06:00:00      -60.602      -34.915       -7.311       29.868       14.656       14.961      892.071      214.812      223.841        0.314        0.067       69.940       14.774        0.045      336.766        8.289      861.756
09/19/2013  06:01:00      -60.025      -44.284       -1.370       23.935       17.141       13.907      572.870      293.815      193.415        0.331        0.053       74.592        8.040        0.012      336.720        8.212      861.770
09/19/2013  06:02:00      -34.000      -24.809        9.299       41.838       22.456       16.384     1750.390      504.283      268.431        0.219        0.126       42.089       18.728        0.198      336.640        8.078      861.786
09/19/2013  06:03:00      -44.400      -48.965        2.743       34.537       22.697       22.797     1192.827      515.175      519.704        0.330        0.111       66.098       16.226        0.060      336.624        8.052      861.800
09/19/2013  06:04:00      -75.134      -33.545       -4.299       34.425       26.257       19.392     1185.053      689.435      376.040        0.452        0.113       82.282       12.736        0.024      336.637        8.073      861.809
09/19/2013  06:05:00      -66.717      -39.061       -8.717       22.688       29.407       14.548      514.743      864.801      211.634        0.382        0.080       77.311       12.849        0.028      336.660        8.112      861.820
09/19/2013  06:06:00      -68.126      -45.176        1.064       43.852       24.583       22.204     1923.010      604.303      493.029        0.485        0.151       81.744       25.984        0.101      336.570        7.961      861.831
09/19/2013  06:07:00     -126.355      -61.638       -4.040       37.384       30.874       22.131     1397.565      953.230      489.791        1.131        0.142      140.588       18.752        0.018      336.518        7.875      861.830
09/19/2013  06:08:00      -85.603      -59.705        0.691       36.716       30.565       20.703     1348.043      934.234      428.629        0.680        0.136      104.367       15.819        0.023      336.480        7.810      861.835
09/19/2013  06:09:00      -63.496      -53.513        5.081       50.590       28.380       18.659     2559.301      805.405      348.157        0.532        0.186       83.039       17.500        0.044      336.415        7.702      861.848
09/19/2013  06:10:00      -97.161      -55.366       -0.465       40.136       26.615       20.309     1610.862      708.347      412.472        0.762        0.137      111.828       18.554        0.028      336.453        7.764      861.850
09/19/2013  06:11:00     -125.202      -70.137      -13.472       18.722       22.631       12.621      350.495      512.181      159.287        1.090        0.051      143.509        7.350        0.003      336.468        7.790      861.842
09/19/2013  06:12:00      -77.154      -55.804       -2.528       39.919       27.025       25.064     1593.502      730.351      628.222        0.601        0.148       95.219       22.361        0.055      336.502        7.848      861.842
09/19/2013  06:13:00     -109.742      -45.612      -11.875       30.504       29.162       15.366      930.524      850.420      236.106        0.814        0.101      118.844        7.859        0.004      336.464        7.784      861.852
09/19/2013  06:14:00      -98.254      -39.987       -1.422       31.785       26.461       14.351     1010.264      700.183      205.948        0.659        0.096      106.079       13.558        0.016      336.446        7.752      861.861
09/19/2013  06:15:00      -74.028      -51.934       -2.254       44.268       24.440       25.356     1959.667      597.298      642.924        0.569        0.160       90.428       27.000        0.089      336.428        7.724      861.880
09/19/2013  06:16:00      -49.832      -45.726        6.874       45.683       28.283       21.899     2086.896      799.936      479.586        0.399        0.168       67.632       19.610        0.084      336.399        7.675      861.886
09/19/2013  06:17:00      -39.693      -43.357        6.111       52.616       30.684       22.383     2768.444      941.527      500.994        0.385        0.211       58.783       20.657        0.123      336.405        7.684      861.882
09/19/2013  06:18:00      -40.085      -45.491        9.875       43.020       32.830       20.843     1850.714     1077.781      434.436        0.357        0.168       60.632       20.959        0.119      336.434        7.734      861.886
09/19/2013  06:19:00      -47.747      -33.071        6.584       51.279       28.892       19.073     2629.487      834.735      363.790        0.362        0.191       58.081       18.705        0.104      336.493        7.831      861.893
09/19/2013  06:20:00      -37.236      -44.938        9.368       48.609       26.506       22.182     2362.870      702.555      492.024        0.352        0.178       58.360       26.243        0.202      336.451        7.761      861.900
09/19/2013  06:21:00      -42.992      -41.551        7.317       37.434       30.245       19.526     1401.331      914.737      381.264        0.316        0.135       59.789       18.389        0.095      336.473        7.800      861.893
09/19/2013  06:22:00      -61.016      -51.296        6.008       47.605       31.859       24.318     2266.253     1014.987      591.381        0.513        0.194       79.714       25.603        0.103      336.394        7.666      861.890
09/19/2013  06:23:00      -55.685      -61.014        3.776       63.718       36.220       31.976     4060.001     1311.887     1022.484        0.661        0.320       82.605       31.470        0.145      336.391        7.662      861.893
09/19/2013  06:24:00     -100.817      -65.211        1.335       53.428       49.540       29.933     2854.525     2454.245      895.989        1.031        0.310      120.069       26.216        0.048      336.307        7.521      861.909
09/19/2013  06:25:00     -105.887      -70.689       -9.959       45.938       33.280       19.982     2110.324     1107.563      399.284        0.996        0.181      127.315       22.677        0.032      336.311        7.526      861.928
09/19/2013  06:26:00      -74.909      -56.758        1.149       46.470       27.559       18.239     2159.479      759.499      332.664        0.604        0.163       93.983       17.566        0.035      336.302        7.513      861.941
09/19/2013  06:27:00      -63.969      -53.243        2.703       44.466       27.588       19.643     1977.234      761.105      385.830        0.503        0.156       83.227       22.714        0.074      336.248        7.422      861.956
09/19/2013  06:28:00      -69.561      -49.197        1.446       39.250       23.379       18.924     1540.567      546.564      358.118        0.485        0.122       85.200       18.741        0.048      336.293        7.497      861.954
09/19/2013  06:29:00      -94.795      -76.722       -4.817       27.982       22.738       18.616      782.978      517.025      346.557        0.827        0.082      121.952       13.114        0.012      336.335        7.568      861.966
09/19/2013  06:30:00      -67.452      -65.457        7.165       43.150       38.309       26.136     1861.946     1467.597      683.075        0.645        0.201       93.992       29.542        0.099      336.296        7.503      861.981
09/19/2013  06:31:00      -70.456      -46.833        5.407       42.236       28.425       23.251     1783.883      808.004      540.627        0.516        0.157       84.601       19.257        0.052      336.298        7.506      861.994
09/19/2013  06:32:00      -72.981      -70.456        4.624       40.803       32.335       20.981     1664.895     1045.544      440.192        0.673        0.158      101.441       19.157        0.036      336.285        7.484      862.013
09/19/2013  06:33:00      -70.827      -66.638       -1.034       50.342       38.369       23.675     2534.329     1472.160      560.507        0.701        0.228       97.248       25.628        0.069      336.282        7.479      862.022
09/19/2013  06:34:00      -38.632      -46.445       10.104       49.040       32.495       26.700     2404.935     1055.945      712.895        0.396        0.209       60.411       27.338        0.205      336.265        7.450      862.033
09/19/2013  06:35:00      -94.911      -78.401        1.130       40.888       34.687       24.712     1671.806     1203.157      610.667        0.932        0.174      123.105       16.994        0.019      336.292        7.496      862.044
09/19/2013  06:36:00      -60.727      -52.989        2.468       56.052       29.577       23.443     3141.817      874.800      549.588        0.553        0.228       80.595       29.029        0.130      336.324        7.549      862.051
09/19/2013  06:37:00     -108.559      -82.782      -10.642       45.911       39.682       30.766     2107.857     1574.643      946.553        1.169        0.231      136.520       31.548        0.053      336.269        7.456      862.044
09/19/2013  06:38:00      -97.645      -61.903       -1.179       49.290       33.098       23.751     2429.506     1095.469      564.112        0.873        0.204      115.614       20.088        0.030      336.279        7.474      862.050
09/19/2013  06:39:00      -62.811      -38.609        7.224       28.155       20.938       18.844      792.717      438.407      355.109        0.354        0.079       73.728       13.623        0.034      336.245        7.418      862.061
09/19/2013  06:40:00      -92.012      -35.328       -6.491       46.167       18.757       14.651     2131.375      351.829      214.645        0.623        0.135       98.561       16.765        0.029      336.339        7.573      862.064
09/19/2013  06:41:00      -90.185      -58.604       -3.960       36.154       25.194       21.801     1307.089      634.722      475.269        0.700        0.121      107.554       12.746        0.014      336.350        7.593      862.063
09/19/2013  06:42:00      -94.352      -64.813        0.239       36.193       29.401       25.269     1309.916      864.441      638.521        0.796        0.141      114.469       17.890        0.024      336.316        7.534      862.068
09/19/2013  06:43:00      -80.739      -40.693       12.835       52.024       32.024       22.007     2706.508     1025.526      484.304        0.628        0.211       90.414       24.068        0.071      336.284        7.484      862.096
09/19/2013  06:44:00      -54.660      -61.568       10.204       51.909       35.793       26.139     2694.579     1281.125      683.271        0.577        0.233       82.330       27.773        0.114      336.305        7.516      862.123
09/19/2013  06:45:00      -76.468      -58.909        7.315       47.261       33.568       24.074     2233.575     1126.779      579.565        0.665        0.197       96.528       23.264        0.058      336.242        7.412      862.134
09/19/2013  06:46:00      -66.574      -45.148        7.771       53.742       32.205       21.459     2888.221     1037.166      460.474        0.546        0.219       80.439       19.700        0.060      336.188        7.321      862.133
09/19/2013  06:47:00      -56.291      -46.497        0.701       31.428       35.243       20.343      987.745     1242.035      413.833        0.399        0.132       73.012       16.810        0.053      336.215        7.366      862.137
09/19/2013  06:48:00     -124.636      -85.292       -4.668       33.435       26.786       21.412     1117.920      717.491      458.488        1.256        0.115      151.026       18.844        0.016      336.207        7.353      862.143
09/19/2013  06:49:00      -59.551      -57.104        7.098       45.686       29.427       23.052     2087.179      865.952      531.401        0.517        0.174       82.506       18.883        0.052      336.205        7.351      862.154
09/19/2013  06:50:00      -90.918      -62.927       -3.746       28.239       27.046       19.803      797.463      731.464      392.173        0.708        0.096      110.571       14.250        0.017      336.224        7.382      862.177
09/19/2013  06:51:00     -111.385      -51.451      -10.399       28.188       22.533       13.940      794.539      507.752      194.326        0.833        0.075      122.694        7.226        0.003      336.262        7.445      862.189
09/19/2013  06:52:00     -125.422      -47.359       -7.169       15.652       15.750       12.223      244.997      248.078      149.400        0.933        0.032      134.066        7.282        0.003      336.231        7.393      862.208
09/19/2013  06:53:00      -51.151      -39.216       13.795       36.091       30.732       22.570     1302.532      944.471      509.406        0.355        0.138       64.454       21.643        0.113      336.239        7.408      862.221
09/19/2013  06:54:00      -81.189      -60.839       -5.063       33.427       27.731       13.479     1117.365      769.007      181.674        0.619        0.103      101.454       12.301        0.015      336.328        7.556      862.238
09/19/2013  06:55:00      -93.962      -66.421        2.618       34.356       23.293       23.650     1180.355      542.576      559.331        0.776        0.114      115.068       20.016        0.030      336.343        7.580      862.238
09/19/2013  06:56:00      -71.709      -53.307        8.102       41.585       33.272       25.595     1729.344     1107.041      655.128        0.577        0.175       89.353       21.146        0.056      336.314        7.532      862.232
09/19/2013  06:57:00      -26.926      -35.652       13.277       32.278       29.431       22.431     1041.864      866.181      503.141        0.229        0.121       44.678       18.885        0.179      336.368        7.623      862.242
09/19/2013  06:58:00      -53.071      -69.029        1.698       37.845       39.990       25.005     1432.231     1599.233      625.234        0.562        0.183       87.072       24.761        0.081      336.330        7.558      862.252
09/19/2013  06:59:00      -88.918      -74.014       -0.864       46.563       28.223       20.726     2168.126      796.543      429.560        0.839        0.170      115.691       21.969        0.036      336.325        7.550      862.274
09/19/2013  07:00:00      -70.495      -51.932        7.748       54.624       36.261       29.564     2983.735     1314.878      874.035        0.645        0.259       87.558       31.090        0.126      336.318        7.538      862.290
09/19/2013  07:01:00     -112.737      -88.082        1.253       28.539       32.837       19.996      814.485     1078.264      399.835        1.138        0.115      143.066       15.739        0.012      336.319        7.540      862.310
09/19/2013  07:02:00      -54.162      -39.308        8.448       47.349       31.232       27.483     2241.959      975.437      755.318        0.426        0.199       66.923       28.579        0.182      336.353        7.598      862.321
09/19/2013  07:03:00      -89.040      -53.467        0.335       30.046       32.609       24.100      902.780     1063.326      580.797        0.667        0.127      103.860       19.883        0.037      336.316        7.536      862.317
09/19/2013  07:04:00     -125.145      -57.055       -1.517       25.993       21.185       14.180      675.627      448.798      201.081        1.012        0.066      137.537       11.792        0.007      336.359        7.607      862.312
09/19/2013  07:05:00      -31.856      -31.462       13.031       35.368       23.994       23.488     1250.919      575.715      551.701        0.228        0.119       44.773       18.027        0.162      336.514        7.867      862.324
09/19/2013  07:06:00      -49.210      -50.401        7.089       68.511       50.779       28.883     4693.694     2578.509      834.228        0.656        0.405       70.441       36.155        0.263      336.509        7.860      862.335
09/19/2013  07:07:00      -87.347      -69.238        6.189       52.910       43.234       28.548     2799.418     1869.159      814.966        0.897        0.274      111.460       28.405        0.065      336.378        7.638      862.346
09/19/2013  07:08:00      -89.750      -82.341       11.012       52.808       38.758       27.502     2788.736     1502.204      756.371        1.000        0.252      121.799       26.325        0.047      336.355        7.602      862.356
09/19/2013  07:09:00      -65.645      -84.097        3.745       48.291       44.672       27.615     2332.033     1995.550      762.615        0.824        0.255      106.684       29.555        0.077      336.347        7.588      862.378
09/19/2013  07:10:00     -101.233      -62.153       -0.146       39.980       46.235       23.902     1598.384     2137.694      571.311        0.921        0.215      118.790       23.990        0.041      336.312        7.529      862.390
09/19/2013  07:11:00      -85.349      -59.158        6.327       65.736       36.457       32.467     4321.286     1329.112     1054.122        0.876        0.335      103.847       35.835        0.119      336.359        7.607      862.403
09/19/2013  07:12:00     -120.388     -100.037       -2.616       38.912       32.761       28.492     1514.105     1073.300      811.799        1.395        0.170      156.527       23.325        0.022      336.239        7.406      862.401
09/19/2013  07:13:00      -88.667      -80.442       -0.909       44.454       27.947       27.033     1976.186      781.009      730.785        0.891        0.174      119.719       26.699        0.050      336.247        7.420      862.405
09/19/2013  07:14:00      -96.494      -61.726       -0.622       36.685       24.727       19.233     1345.771      611.428      369.917        0.772        0.116      114.548       16.692        0.021      336.350        7.592      862.418
09/19/2013  07:15:00      -52.650      -47.378        3.888       41.773       30.085       25.817     1744.943      905.107      666.529        0.417        0.166       70.829       23.684        0.112      336.396        7.669      862.437
09/19/2013  07:16:00      -57.123      -56.112        9.408       48.099       37.987       28.228     2313.505     1442.977      796.826        0.553        0.228       80.073       30.586        0.146      336.399        7.674      862.449
09/19/2013  07:17:00      -91.986      -66.976        2.040       44.706       31.680       27.013     1998.625     1003.640      729.708        0.834        0.187      113.786       27.032        0.056      336.358        7.606      862.465
09/19/2013  07:18:00      -94.967      -88.781       -3.407       47.160       44.055       21.923     2224.042     1940.841      480.626        1.078        0.232      130.004       21.438        0.027      336.332        7.562      862.478
09/19/2013  07:19:00     -124.540     -108.666       -7.367       31.533       37.932       21.071      994.358     1438.852      444.006        1.512        0.144      165.283       17.813        0.012      336.328        7.557      862.486
09/19/2013  07:20:00     -108.804     -101.898       -3.381       42.245       45.400       25.414     1784.653     2061.201      645.871        1.336        0.225      149.069       22.237        0.022      336.317        7.538      862.481
09/19/2013  07:21:00      -97.615      -81.441        4.074       41.289       35.181       28.948     1704.748     1237.691      837.983        0.998        0.189      127.128       22.557        0.031      336.371        7.628      862.473
09/19/2013  07:22:00     -114.195      -94.769       -3.617       51.775       33.645       27.073     2680.691     1131.954      732.950        1.329        0.227      148.397       30.149        0.041      336.399        7.674      862.464
09/19/2013  07:23:00      -92.160      -80.447        3.041       44.307       38.754       23.135     1963.093     1501.878      535.212        0.949        0.200      122.332       26.203        0.046      336.453        7.765      862.445
09/19/2013  07:24:00      -55.479      -59.801        9.605       43.716       32.892       27.238     1911.108     1081.856      741.932        0.524        0.187       81.573       19.613        0.058      336.511        7.862      862.455
09/19/2013  07:25:00      -69.138      -41.095        1.763       45.292       32.140       20.492     2051.336     1032.963      419.909        0.499        0.175       80.429       25.877        0.104      336.573        7.967      862.447
09/19/2013  07:26:00      -57.757      -33.717       -0.538       41.793       23.881       17.201     1746.615      570.310      295.864        0.354        0.131       66.878       13.099        0.038      336.620        8.046      862.463
09/19/2013  07:27:00      -96.292      -61.134       -4.352       31.328       18.187       19.426      981.429      330.764      377.376        0.736        0.084      114.060        5.237        0.002      336.631        8.064      862.475
09/19/2013  07:28:00      -95.806      -56.219       -1.070       35.469       23.347       21.242     1258.031      545.096      451.240        0.730        0.113      111.083       19.798        0.032      336.640        8.080      862.497
09/19/2013  07:29:00      -41.514      -56.855       15.093       48.463       36.671       22.208     2348.660     1344.726      493.212        0.468        0.209       70.398       24.380        0.120      336.697        8.174      862.514
09/19/2013  07:30:00      -58.517      -55.124        5.913       48.290       33.710       24.467     2331.929     1136.382      598.648        0.528        0.203       80.392       25.311        0.099      336.661        8.113      862.531
09/19/2013  07:31:00      -74.419      -63.509        1.443       41.079       25.839       25.758     1687.513      667.655      663.479        0.630        0.151       97.834       22.659        0.054      336.669        8.126      862.517
09/19/2013  07:32:00      -99.601      -76.692       -1.740       33.636       38.476       21.608     1131.360     1480.380      466.892        0.944        0.154      125.706       18.260        0.021      336.627        8.059      862.517
09/19/2013  07:33:00      -71.186      -63.651       -1.005       39.193       36.655       24.701     1536.123     1343.615      610.136        0.630        0.174       95.493       22.745        0.057      336.677        8.140      862.518
09/19/2013  07:34:00      -44.427      -48.133       11.592       36.433       28.338       21.587     1327.341      803.034      466.017        0.351        0.130       65.502       21.337        0.106      336.790        8.329      862.528
09/19/2013  07:35:00      -54.910      -58.878       10.699       39.647       24.836       25.803     1571.899      616.825      665.807        0.472        0.143       80.510       22.800        0.080      336.851        8.429      862.541
09/19/2013  07:36:00      -39.884      -45.820       12.014       49.571       36.188       28.740     2457.262     1309.541      825.961        0.421        0.230       60.747       30.452        0.251      336.919        8.544      862.544
09/19/2013  07:37:00      -62.935      -59.889        0.651       43.453       33.354       26.436     1888.148     1112.486      698.855        0.562        0.185       86.876       26.115        0.090      336.840        8.412      862.557
09/19/2013  07:38:00      -77.029      -50.679        7.522       46.346       26.794       21.096     2147.927      717.921      445.042        0.593        0.166       92.205       20.878        0.051      336.841        8.413      862.554
09/19/2013  07:39:00      -77.184      -75.156        3.816       28.413       36.990       19.154      807.304     1368.241      366.894        0.708        0.127      107.730       17.200        0.025      336.884        8.485      862.554
09/19/2013  07:40:00      -76.357      -70.874       -0.226       36.772       34.393       19.739     1352.172     1182.908      389.628        0.689        0.146      104.180       16.513        0.025      336.936        8.572      862.556
09/19/2013  07:41:00      -93.784      -79.512       -2.666       37.031       33.917       21.712     1371.293     1150.342      471.420        0.906        0.150      122.954       21.641        0.031      336.980        8.644      862.553
09/19/2013  07:42:00      -76.994      -78.726       -7.054       31.386       30.116       19.942      985.085      906.974      397.678        0.723        0.114      110.118       17.774        0.026      336.981        8.647      862.559
09/19/2013  07:43:00      -70.817      -84.962       -8.874       24.155       25.935       20.971      583.479      672.619      439.783        0.700        0.085      110.605       17.870        0.026      337.005        8.686      862.552
09/19/2013  07:44:00      -51.775      -74.052        1.724       25.492       27.257       14.897      649.857      742.939      221.930        0.489        0.081       90.356       14.472        0.026      337.048        8.757      862.550
09/19/2013  07:45:00      -73.737      -87.653      -11.845       21.244       24.947       15.013      451.292      622.377      225.387        0.728        0.065      114.543        9.158        0.006      337.059        8.776      862.553
09/19/2013  07:46:00      -63.851      -92.538       -5.642       30.172       22.486       15.994      910.368      505.618      255.804        0.717        0.084      112.429       13.547        0.015      337.107        8.856      862.561
09/19/2013  07:47:00      -40.458      -47.874        3.049       24.259       29.004       22.311      588.515      841.222      497.761        0.293        0.096       62.680       16.622        0.070      337.243        9.086      862.563
09/19/2013  07:48:00      -26.342     -102.063        8.121       26.691       44.731       15.342      712.429     2000.841      235.369        0.706        0.147      105.408       11.997        0.013      337.210        9.031      862.582
09/19/2013  07:49:00      -27.016      -62.291        1.385       36.822       27.065       22.650     1355.854      732.514      513.018        0.361        0.130       67.897       14.973        0.049      337.371        9.299      862.606
09/19/2013  07:50:00       -9.265      -45.794       -0.364       33.680       30.362       22.484     1134.313      921.832      505.513        0.237        0.128       46.722       20.136        0.186      337.415        9.372      862.617
09/19/2013  07:51:00      -18.627      -58.019        6.234       26.345       46.372       24.528      694.076     2150.403      601.630        0.360        0.172       60.936       26.580        0.190      337.455        9.441      862.632
09/19/2013  07:52:00      -29.331      -48.068        2.120       46.680       33.499       22.887     2179.001     1122.181      523.804        0.350        0.191       56.310        3.217        0.003      337.293        9.170      862.635
09/19/2013  07:53:00      -75.810      -54.041        5.697       47.477       38.606       31.323     2254.082     1490.453      981.132        0.671        0.236       93.100       31.162        0.112      337.339        9.247      862.620
09/19/2013  07:54:00     -102.192      -83.142       -3.978       49.051       44.247       26.799     2405.995     1957.808      718.180        1.123        0.254      131.741       25.695        0.038      337.261        9.118      862.621
09/19/2013  07:55:00     -111.346      -97.562      -14.373       26.621       33.751       22.463      708.675     1139.153      504.589        1.224        0.118      148.041       13.788        0.009      337.257        9.110      862.621
09/19/2013  07:56:00      -61.982      -31.379        4.542       47.684       58.826       29.464     2273.742     3460.555      868.122        0.572        0.330       69.473       28.741        0.171      337.366        9.292      862.628
09/19/2013  07:57:00     -105.199      -84.636       -5.266       36.633       43.171       30.022     1342.001     1863.720      901.324        1.118        0.205      135.019       20.563        0.023      337.322        9.218      862.626
09/19/2013  07:58:00     -118.026      -99.862       -9.472       26.408       21.145       13.814      697.409      447.091      190.820        1.266        0.067      154.605       12.767        0.007      337.355        9.270      862.615
09/19/2013  07:59:00      -95.625      -73.267        0.163       35.410       32.199       22.962     1253.898     1036.791      527.235        0.866        0.141      120.466       22.300        0.034      337.409        9.364      862.608
09/19/2013  08:00:00      -81.921      -89.673       -2.317       38.055       30.336       26.594     1448.169      920.280      707.233        0.892        0.154      121.459       21.976        0.033      337.409        9.363      862.594
09/19/2013  08:01:00      -57.437      -90.427       -6.652       38.676       33.609       20.370     1495.817     1129.554      414.933        0.728        0.152      107.126       17.976        0.028      337.562        9.620      862.590
09/19/2013  08:02:00      -55.052      -35.297        2.756       23.793       46.676       21.662      566.125     2178.663      469.247        0.375        0.161       65.395       24.269        0.138      337.631        9.737      862.587
09/19/2013  08:03:00      -29.125      -44.535        0.278       25.370       26.818       13.550      643.651      719.187      183.593        0.219        0.077       53.214        8.454        0.025      337.671        9.803      862.588
09/19/2013  08:04:00      -27.259      -84.364       -2.072       13.409       14.063        9.187      179.805      197.757       84.408        0.416        0.023       88.659        4.555        0.003      337.742        9.921      862.594
09/19/2013  08:05:00      -30.969      -80.110       -5.789        7.822       10.349        8.083       61.181      107.108       65.333        0.382        0.012       85.888        4.990        0.003      337.740        9.918      862.593
09/19/2013  08:06:00      -36.527      -69.391       -3.936       20.062       27.564       13.948      402.490      759.788      194.549        0.376        0.068       78.418       15.299        0.038      337.754        9.942      862.593
09/19/2013  08:07:00      -44.514      -72.184      -12.923       16.600       37.896       12.952      275.563     1436.099      167.746        0.462        0.094       84.806       14.646        0.030      337.785        9.993      862.596
09/19/2013  08:08:00      -31.966      -27.282       -1.382       22.778       27.973       17.423      518.818      782.477      303.558        0.169        0.080       42.026       15.962        0.144      337.973       10.308      862.596
09/19/2013  08:09:00      -25.934      -31.786       -1.327       15.420       27.373       13.585      237.788      749.289      184.543        0.143        0.059       41.023       12.152        0.088      337.901       10.188      862.598
09/19/2013  08:10:00      -35.745      -41.453       -3.813       18.784       19.204       12.040      352.843      368.799      144.965        0.194        0.043       54.736        6.037        0.012      337.954       10.277      862.591
09/19/2013  08:11:00      -42.727      -28.846       -5.473       16.089       22.426       12.157      258.859      502.944      147.798        0.180        0.045       51.553       13.648        0.070      338.014       10.379      862.592
09/19/2013  08:12:00      -40.665      -26.403      -11.900       22.880       15.345       12.310      523.485      235.457      151.530        0.170        0.046       48.485       10.121        0.044      338.047       10.433      862.585
09/19/2013  08:13:00      -33.614      -33.175       -4.047       15.576       17.307        8.969      242.622      299.532       80.452        0.143        0.031       47.228        6.015        0.016      338.058       10.453      862.588
09/19/2013  08:14:00      -28.610      -17.562        3.059       24.051       19.156       14.557      578.448      366.941      211.921        0.115        0.058       33.570       10.803        0.104      338.181       10.657      862.584
09/19/2013  08:15:00      -19.254      -10.084        2.772       15.180       11.330       12.848      230.431      128.366      165.068        0.050        0.026       21.735        9.195        0.179      338.394       11.016      862.586
09/19/2013  08:16:00       -9.581       -7.749        4.728       15.299       11.481        8.033      234.074      131.805       64.531        0.030        0.022       12.322        8.275        0.451      338.490       11.179      862.588
09/19/2013  08:17:00        8.266        3.638       23.560       17.968       19.390       17.792      322.867      375.990      316.550        0.083        0.051        9.031       12.058        1.782      338.910       11.883      862.581
09/19/2013  08:18:00       -3.014       25.663       23.208       10.679       13.604       20.121      114.046      185.058      404.863        0.095        0.035       25.840        9.526        0.136      338.775       11.657      862.580
09/19/2013  08:19:00      -20.056       -0.187       17.874       12.100       12.119       14.925      146.403      146.868      222.744        0.062        0.026       20.057       12.241        0.372      338.690       11.513      862.580
09/19/2013  08:20:00       -3.350      -38.142        0.308       14.529       28.261       22.865      211.094      798.695      522.814        0.150        0.077       38.288       11.111        0.084      338.564       11.302      862.583
09/19/2013  08:21:00       -3.268        6.490       35.428       10.369       29.744       11.800      107.508      884.692      139.236        0.122        0.057        7.266       11.368        2.447      339.124       12.244      862.580
09/19/2013  08:22:00       -6.119       -3.501       39.671       10.025       23.043       11.889      100.494      530.991      141.352        0.120        0.039        7.050       12.254        3.021      339.335       12.598      862.579
09/19/2013  08:23:00      -20.243      -26.070       28.099       13.846       48.699       21.852      191.707     2371.581      477.501        0.246        0.152       33.007       16.588        0.253      338.835       11.757      862.581
09/19/2013  08:24:00        0.746       -2.302       36.609       25.864       38.301       21.781      668.954     1466.946      474.425        0.198        0.131        2.420       18.076       55.798      338.897       11.862      862.587
09/19/2013  08:25:00      -14.879       28.909        4.852       33.518       17.896       14.639     1123.435      320.269      214.291        0.137        0.083       32.513       15.984        0.242      338.613       11.384      862.593
09/19/2013  08:26:00      -37.162        2.889        1.449       27.053       18.994       13.889      731.866      360.754      192.907        0.134        0.064       37.274       11.300        0.092      338.631       11.414      862.596
09/19/2013  08:27:00      -26.990      -18.333        3.336       14.767       22.501       13.905      218.070      506.301      193.339        0.100        0.046       32.628       13.857        0.180      338.621       11.396      862.592
09/19/2013  08:28:00      -33.320      -16.812       -2.201       17.777       11.715        8.673      316.011      137.244       75.217        0.096        0.026       37.321        8.863        0.056      338.555       11.286      862.582
09/19/2013  08:29:00      -20.396        2.757       11.742       18.198       13.259       15.129      331.168      175.799      228.899        0.065        0.037       20.581       12.719        0.382      339.132       12.257      862.581
09/19/2013  08:30:00      -17.592        3.864       20.157       17.253       15.251       19.333      297.666      232.604      373.751        0.082        0.045       18.012       15.227        0.715      339.451       12.794      862.586
09/19/2013  08:31:00      -33.260      -22.660        3.889       32.052       16.370       15.433     1027.357      267.986      238.187        0.158        0.077       40.245       10.446        0.067      338.762       11.635      862.599
09/19/2013  08:32:00      -58.606      -35.427       -3.343       23.567       20.460       14.310      555.426      418.626      204.763        0.294        0.059       68.482       12.759        0.035      338.561       11.295      862.599
09/19/2013  08:33:00      -32.491       -2.337        4.945       19.914       19.996       18.092      396.583      399.851      327.329        0.110        0.056       32.575       17.305        0.282      338.949       11.949      862.593
09/19/2013  08:34:00       -5.922      -11.329        6.728       21.495       21.128       14.966      462.035      446.411      223.967        0.067        0.057       12.783       10.463        0.670      339.075       12.161      862.587
09/19/2013  08:35:00      -53.211      -49.429       -7.082       31.655       27.879       18.563     1002.008      777.215      344.586        0.372        0.106       72.626       14.210        0.038      338.673       11.486      862.581
09/19/2013  08:36:00      -46.349      -41.901       -2.901       34.780       19.897       17.936     1209.620      395.909      321.689        0.292        0.096       62.482       20.984        0.113      338.827       11.744      862.579
09/19/2013  08:37:00      -32.277      -11.075       -2.471       17.627       15.795       10.918      310.708      249.491      119.210        0.092        0.034       34.124       11.969        0.123      338.897       11.861      862.579
09/19/2013  08:38:00      -29.299       19.067        1.035       12.603       12.695       14.494      158.841      161.160      210.082        0.088        0.027       34.957        7.678        0.048      339.071       12.154      862.574
09/19/2013  08:39:00        1.165       15.219       22.237       15.815       17.678       12.507      250.119      312.496      156.430        0.072        0.036       15.264        6.220        0.166      339.693       13.202      862.560
09/19/2013  08:40:00       36.260       22.025       18.121       19.051       19.845       20.636      362.927      393.844      425.829        0.166        0.059       42.425       15.779        0.138      339.299       12.537      862.550
09/19/2013  08:41:00       44.471       43.760        8.653       18.012       18.979       17.782      324.422      360.195      316.211        0.248        0.050       62.391       12.928        0.043      339.176       12.329      862.534
09/19/2013  08:42:00       63.774       56.563       -5.141       19.550       15.574       17.243      382.199      242.536      297.331        0.411        0.046       85.244       10.161        0.014      339.043       12.107      862.529
09/19/2013  08:43:00       58.558       16.937       -0.096        9.216       11.794       12.270       84.942      139.091      150.559        0.205        0.019       60.958        6.234        0.010      338.943       11.938      862.523
09/19/2013  08:44:00       68.763       49.763       -1.202       13.394        9.315        9.884      179.404       86.775       97.689        0.378        0.018       84.881        2.425        0.001      338.961       11.966      862.519
09/19/2013  08:45:00       45.040       47.046       10.737       15.360       11.548       15.032      235.921      133.349      225.975        0.248        0.030       65.130        6.767        0.011      339.031       12.087      862.516
09/19/2013  08:46:00       54.751       49.362        6.564       21.907       18.251       21.826      479.899      333.092      476.356        0.338        0.064       73.718       15.859        0.046      339.366       12.651      862.517
09/19/2013  08:47:00       36.636       34.637       13.678       26.147       26.894       22.075      683.651      723.286      487.321        0.231        0.095       50.417       14.812        0.086      339.577       13.006      862.518
09/19/2013  08:48:00       40.670       53.004      -13.668       16.137       18.940       17.360      260.393      358.736      301.355        0.279        0.046       66.810        9.282        0.019      339.191       12.357      862.517
09/19/2013  08:49:00       47.998       19.405       -5.485        7.835       10.999       11.061       61.392      120.971      122.343        0.151        0.015       51.772        5.044        0.009      339.128       12.247      862.514
09/19/2013  08:50:00       -0.463        2.932        2.119       19.490       15.541       18.231      379.879      241.513      332.359        0.048        0.048        2.968       15.089       25.846      339.614       13.069      862.507
09/19/2013  08:51:00       15.977       26.027        6.879       14.238       24.543       19.285      202.716      602.371      371.916        0.108        0.059       30.539       11.881        0.151      339.522       12.913      862.504
09/19/2013  08:52:00        8.690       41.960       10.495       18.697       36.566       20.534      349.559     1337.083      421.635        0.203        0.105       42.851       18.925        0.195      339.896       13.544      862.511
09/19/2013  08:53:00       20.047       10.605       -2.564       23.945       17.543       24.487      573.379      307.763      599.596        0.100        0.074       22.680       17.326        0.584      339.592       13.030      862.514
09/19/2013  08:54:00      -29.697        9.888       10.237       18.681       20.469       19.817      348.969      418.972      392.711        0.112        0.058       31.300       14.910        0.227      340.003       13.725      862.512
09/19/2013  08:55:00      -38.601        7.068      -16.808       12.391       12.719        7.597      153.535      161.765       57.720        0.110        0.019       39.243        3.927        0.010      339.450       12.792      862.514
09/19/2013  08:56:00      -23.920      -11.517       -1.621       13.597       11.709       10.873      184.877      137.102      118.218        0.057        0.022       26.548        7.272        0.075      339.480       12.843      862.516
09/19/2013  08:57:00       11.962       -9.104       21.490       15.838       13.720       23.790      250.857      188.234      565.973        0.085        0.050       15.033       16.590        1.218      340.290       14.210      862.514
09/19/2013  08:58:00       -1.001       -5.279       19.464       11.437       18.317       16.993      130.806      335.526      288.760        0.058        0.038        5.373       10.925        4.135      340.361       14.329      862.507
09/19/2013  08:59:00        8.441       14.801       24.134       21.457       25.236       23.896      460.401      636.875      571.037        0.127        0.083       17.038       12.068        0.502      339.922       13.587      862.510
09/19/2013  09:00:00        2.682       14.958       16.615       16.534       22.466       22.415      273.364      504.739      502.437        0.089        0.064       15.197        5.739        0.143      340.150       13.973      862.505
09/19/2013  09:01:00       -9.346       12.897       23.071       10.442       18.100       19.657      109.029      327.622      386.384        0.080        0.041       15.927       16.185        1.033      340.512       14.582      862.502
09/19/2013  09:02:00       18.846       34.448       11.968       24.453       21.439       23.227      597.956      459.651      539.495        0.164        0.080       39.266       17.108        0.190      339.955       13.643      862.500
09/19/2013  09:03:00       30.355       34.619       13.156       25.707       34.494       26.697      660.860     1189.816      712.755        0.243        0.128       46.042       20.288        0.194      340.064       13.828      862.496
09/19/2013  09:04:00       42.415       61.019        3.328       25.051       32.350       30.175      627.542     1046.535      910.559        0.406        0.129       74.313       21.847        0.086      339.974       13.676      862.487
09/19/2013  09:05:00       35.512       35.637       17.020       36.704       33.982       27.423     1347.167     1154.809      752.024        0.304        0.163       50.310       21.502        0.183      340.246       14.136      862.478
09/19/2013  09:06:00       57.020       74.120        2.377       41.977       44.999       29.240     1762.031     2024.930      854.955        0.670        0.232       93.516       26.843        0.082      340.092       13.873      862.464
09/19/2013  09:07:00       20.413       10.557        5.399       21.850       38.953       25.994      477.434     1517.307      675.686        0.161        0.134       22.982       17.508        0.580      340.215       14.081      862.461
09/19/2013  09:08:00       46.309      -14.141       20.876       28.302       42.975       24.944      800.982     1846.808      622.214        0.302        0.164       48.420       15.676        0.105      340.055       13.813      862.454
09/19/2013  09:09:00       21.800      -32.879       -2.571       30.288       23.193       24.287      917.363      537.898      589.855        0.180        0.102       39.450       18.060        0.210      339.982       13.688      862.457
09/19/2013  09:10:00       12.651       27.231       33.641       17.602       27.511       27.457      309.829      756.875      753.870        0.193        0.091       30.027       13.469        0.201      340.593       14.723      862.457
09/19/2013  09:11:00       55.634      -16.190       19.443       31.429       47.710       37.356      987.800     2276.224     1395.453        0.420        0.233       57.942       35.975        0.385      339.943       13.623      862.456
09/19/2013  09:12:00       73.370      -61.536       -2.258       30.515       30.324       24.569      931.145      919.571      603.642        0.581        0.123       95.759       13.804        0.021      339.644       13.120      862.448
09/19/2013  09:13:00       48.415      -23.262       13.231       49.671       33.923       31.838     2467.194     1150.753     1013.637        0.384        0.232       53.714       25.679        0.229      340.041       13.789      862.437
09/19/2013  09:14:00       27.036        8.167       16.154       26.377       22.572       20.224      695.757      509.501      409.022        0.134        0.081       28.242       11.563        0.168      340.306       14.235      862.425
09/19/2013  09:15:00       57.626       72.943       51.497       43.768       37.927       38.885     1915.660     1438.430     1512.005        0.808        0.243       92.960       27.761        0.089      340.267       14.170      862.412
09/19/2013  09:16:00      119.534       84.155       26.030       61.983       44.423       38.273     3841.895     1973.413     1464.817        1.466        0.364      146.187       32.073        0.048      340.119       13.920      862.399
09/19/2013  09:17:00       93.972       71.215       29.036       50.124       32.351       28.821     2512.436     1046.601      830.643        0.957        0.219      117.908       20.630        0.031      340.146       13.964      862.391
09/19/2013  09:18:00       81.448       49.208       36.627       45.277       31.968       47.869     2050.023     1021.974     2291.463        0.788        0.268       95.158       30.763        0.105      340.202       14.060      862.386
09/19/2013  09:19:00       62.414       60.186       45.665       43.717       31.262       31.054     1911.159      977.305      964.327        0.673        0.193       86.705       20.614        0.057      340.233       14.111      862.385
09/19/2013  09:20:00      104.664       85.732       26.363       48.476       30.802       27.663     2349.900      948.793      765.233        1.153        0.203      135.294       21.087        0.024      340.054       13.811      862.394
09/19/2013  09:21:00       59.664       53.591       34.606       65.991       36.466       39.153     4354.851     1329.736     1532.945        0.742        0.361       80.198       35.815        0.199      340.060       13.821      862.404
09/19/2013  09:22:00      103.338       89.418       17.525       27.614       27.124       32.454      762.525      735.734     1053.236        1.077        0.128      136.654       12.781        0.009      340.045       13.794      862.414
09/19/2013  09:23:00       96.735       67.803       23.852       25.005       24.305       24.766      625.251      590.728      613.332        0.818        0.091      118.131       10.516        0.008      340.031       13.773      862.413
09/19/2013  09:24:00       14.425       34.403       18.623       31.007       36.938       30.951      961.421     1364.429      957.939        0.251        0.164       37.305       27.102        0.528      340.636       14.794      862.409
09/19/2013  09:25:00       14.194       26.243       26.218       28.387       17.076       20.551      805.842      291.604      422.333        0.155        0.076       29.836       14.887        0.249      340.801       15.073      862.396
09/19/2013  09:26:00       92.498       35.255       23.721       49.108       44.839       27.782     2411.612     2010.509      771.841        0.778        0.260       98.989        4.237        0.002      340.351       14.310      862.399
09/19/2013  09:27:00       99.633       69.233       25.887       46.871       44.212       33.777     2196.853     1954.670     1140.859        1.034        0.265      121.326       23.789        0.038      340.347       14.305      862.391
09/19/2013  09:28:00       74.961       56.560       13.699       37.067       31.431       25.791     1373.967      987.888      665.193        0.602        0.151       93.905       16.225        0.030      340.442       14.466      862.391
09/19/2013  09:29:00       18.879       -2.827        8.385       28.193       37.929       28.786      794.843     1438.634      828.615        0.175        0.153       19.090       18.808        0.971      340.655       14.826      862.389
09/19/2013  09:30:00       58.566       30.979       28.766       61.856       54.040       40.319     3826.183     2920.371     1625.615        0.679        0.419       66.255       34.640        0.273      340.546       14.641      862.389
09/19/2013  09:31:00      105.968       65.622       35.542       51.187       36.553       37.371     2620.139     1336.157     1396.628        1.107        0.268      124.641       21.063        0.029      340.378       14.357      862.385
09/19/2013  09:32:00       97.897       69.228       39.219       79.139       51.842       45.087     6263.010     2687.564     2032.864        1.345        0.549      119.901       41.360        0.119      340.504       14.569      862.375
09/19/2013  09:33:00       19.200       54.245       69.238       68.355       44.731       36.072     4672.440     2000.819     1301.189        0.804        0.399       57.543       39.333        0.467      340.811       15.088      862.378
09/19/2013  09:34:00      -10.592       33.077        7.349       18.099       69.657       32.636      327.586     4852.116     1065.105        0.375        0.312       34.731       36.002        1.075      340.597       14.728      862.382
09/19/2013  09:35:00        4.437       16.112       19.427       25.388       37.348       18.623      644.534     1394.899      346.802        0.152        0.119       16.712       16.879        1.020      341.192       15.735      862.381
09/19/2013  09:36:00       -5.290      -29.529       11.738       20.755       25.914       12.640      430.752      671.554      159.772        0.115        0.063       29.999        9.234        0.095      340.754       14.992      862.380
09/19/2013  09:37:00        1.647      -14.471        3.590       12.837       19.275       16.343      164.779      371.511      267.105        0.051        0.040       14.565        8.338        0.328      340.857       15.169      862.381
09/19/2013  09:38:00       34.389        5.797        1.484       20.485       26.317       21.775      419.648      692.561      474.130        0.140        0.079       34.874       12.333        0.125      340.828       15.119      862.373
09/19/2013  09:39:00       44.189       42.208       10.634       42.958       30.333       29.311     1845.426      920.083      859.130        0.374        0.181       61.108       26.548        0.189      341.040       15.476      862.357
09/19/2013  09:40:00       35.022       58.032       16.633       33.960       47.262       39.040     1153.314     2233.693     1524.133        0.489        0.246       67.781       34.894        0.265      341.253       15.837      862.355
09/19/2013  09:41:00       40.056       40.119       12.664       22.871       28.416       34.053      523.095      807.480     1159.585        0.293        0.125       56.692       22.505        0.158      341.149       15.661      862.350
09/19/2013  09:42:00       20.381      -36.168       -2.307       22.844       33.910       30.281      521.851     1149.874      916.940        0.216        0.129       41.515       20.060        0.233      340.870       15.190      862.349
09/19/2013  09:43:00       20.769      -51.732       -0.095       36.858       37.334       26.688     1358.534     1393.798      712.249        0.329        0.173       55.745       18.185        0.106      340.455       14.487      862.363
09/19/2013  09:44:00       -4.068       15.181       24.010       25.120       33.662       29.912      630.989     1133.108      894.725        0.174        0.133       15.717       19.890        1.602      341.179       15.713      862.361
09/19/2013  09:45:00       56.332       75.860       44.150       36.147       36.637       32.654     1306.598     1342.285     1066.257        0.730        0.186       94.488       20.500        0.047      340.776       15.029      862.377
09/19/2013  09:46:00       19.998       19.734       43.636       34.769       30.529       32.828     1208.896      932.017     1077.687        0.296        0.161       28.095       14.282        0.258      341.153       15.667      862.381
09/19/2013  09:47:00       18.600        7.331        8.382       26.536       33.647       24.166      704.156     1132.119      583.992        0.144        0.121       19.992       15.801        0.625      340.931       15.292      862.381
09/19/2013  09:48:00       12.181       26.702       23.113       30.599       19.091       24.827      936.285      364.483      616.398        0.166        0.096       29.349       17.853        0.370      340.919       15.272      862.379
09/19/2013  09:49:00       10.526      -19.264       -9.815       42.118       29.435       21.065     1773.960      866.432      443.729        0.183        0.154       21.952       11.979        0.298      340.744       14.975      862.364
09/19/2013  09:50:00       32.633      -56.581       -3.970       28.646       35.157       20.075      820.588     1235.982      403.015        0.337        0.123       65.317       17.418        0.071      340.652       14.820      862.355
09/19/2013  09:51:00       25.324       -7.620       28.155       25.072       30.776       26.022      628.587      947.187      677.153        0.187        0.113       26.446       10.093        0.146      341.128       15.626      862.341
09/19/2013  09:52:00       18.894      -23.918       19.229       22.620       29.751       23.025      511.648      885.098      530.144        0.161        0.096       30.480       19.590        0.413      340.938       15.304      862.335
09/19/2013  09:53:00       58.403      -67.040       -2.077       55.072       34.921       26.849     3032.889     1219.511      720.843        0.644        0.249       88.911       22.660        0.065      340.353       14.315      862.332
09/19/2013  09:54:00       58.170      -21.112       18.124       44.571       27.622       30.374     1986.613      762.974      922.591        0.391        0.184       61.883       24.921        0.162      340.809       15.087      862.331
09/19/2013  09:55:00       51.457      -45.495       15.785       40.353       60.824       38.109     1628.397     3699.584     1452.292        0.587        0.339       68.684       37.289        0.295      340.841       15.142      862.309
09/19/2013  09:56:00      119.100       64.060       17.539       81.696       52.697       41.390     6674.167     2776.946     1713.156        1.488        0.558      135.235       34.930        0.067      341.236       15.808      862.302
09/19/2013  09:57:00      102.619       68.762       13.490       50.854       55.113       45.237     2586.122     3037.437     2046.418        1.155        0.383      123.527       19.437        0.025      341.321       15.953      862.305
09/19/2013  09:58:00       54.429      139.191      -23.039       41.956       42.137       35.001     1760.304     1775.513     1225.103        1.381        0.238      149.454       28.381        0.036      341.163       15.685      862.293
09/19/2013  09:59:00        9.784      119.125      -12.185       39.367       47.815       30.472     1549.760     2286.308      928.560        0.960        0.238      119.526       26.692        0.050      341.320       15.951      862.275
09/19/2013  10:00:00        6.091       48.512       20.453       36.367       68.967       33.249     1322.537     4756.414     1105.472        0.500        0.359       48.893       35.498        0.527      341.756       16.690      862.266
09/19/2013  10:01:00       33.946       24.894       10.507       40.987       36.994       25.827     1679.932     1368.532      667.051        0.280        0.186       42.096       21.361        0.258      341.673       16.549      862.266
09/19/2013  10:02:00       78.202       57.794       49.636       49.982       63.990       27.982     2498.204     4094.682      783.016        0.965        0.369       97.240       14.333        0.022      341.681       16.564      862.269
09/19/2013  10:03:00       59.930       49.369       28.673       35.894       39.707       35.984     1288.358     1576.646     1294.820        0.550        0.208       77.646       20.747        0.071      341.843       16.836      862.273
09/19/2013  10:04:00      171.732      103.615        2.234       45.317       35.459       38.660     2053.615     1257.318     1494.589        2.252        0.240      200.570       17.541        0.008      341.175       15.704      862.264
09/19/2013  10:05:00      140.864       65.026        3.710       37.547       37.352       29.489     1409.808     1395.182      869.589        1.388        0.184      155.149       20.226        0.017      341.095       15.571      862.270
09/19/2013  10:06:00       42.818       27.278        4.331       51.168       35.808       29.056     2618.179     1282.190      844.279        0.367        0.237       50.769       15.031        0.088      341.479       16.220      862.258
09/19/2013  10:07:00       69.493       34.160       18.001       30.999       25.839       19.972      960.929      667.639      398.886        0.417        0.101       77.435       11.094        0.021      341.551       16.343      862.251
09/19/2013  10:08:00      110.396       67.769        9.692       35.729       40.518       35.279     1276.577     1641.742     1244.630        1.052        0.208      129.537       27.017        0.044      341.519       16.287      862.251
09/19/2013  10:09:00       67.574       35.473       26.405       53.588       39.558       31.667     2871.624     1564.858     1002.789        0.598        0.272       76.319       25.129        0.108      341.934       16.991      862.244
09/19/2013  10:10:00      131.638       61.448       17.890       75.337       55.055       45.283     5675.735     3031.001     2050.538        1.609        0.538      145.274       16.494        0.013      341.736       16.655      862.244
09/19/2013  10:11:00       96.214      101.974        4.593       51.199       37.700       42.364     2621.369     1421.318     1794.686        1.276        0.292      140.199       23.741        0.029      341.478       16.218      862.249
09/19/2013  10:12:00       60.716       52.899       -3.371       32.500       38.040       32.900     1056.250     1447.077     1082.421        0.504        0.179       80.528       21.921        0.074      341.833       16.820      862.252
09/19/2013  10:13:00       40.302       33.603       23.656       49.886       38.967       37.256     2488.645     1518.443     1387.982        0.435        0.270       52.473       31.738        0.366      342.016       17.132      862.250
09/19/2013  10:14:00       78.179       67.151       11.386       62.944       52.159       42.072     3962.009     2720.516     1770.020        0.960        0.423      103.059       28.170        0.075      341.887       16.911      862.245
09/19/2013  10:15:00      156.064       82.106       31.672       41.375       38.181       29.792     1711.888     1457.796      887.587        1.808        0.203      176.345       14.938        0.007      341.646       16.504      862.239
09/19/2013  10:16:00      176.250       98.937       30.564       61.811       49.935       38.693     3820.623     2493.467     1497.110        2.480        0.391      202.120       27.777        0.019      341.543       16.325      862.237
09/19/2013  10:17:00      131.864       94.570       35.676       74.431       56.884       64.330     5539.912     3235.802     4138.347        2.026        0.646      162.270       28.718        0.031      341.451       16.173      862.228
09/19/2013  10:18:00       94.864       63.790       15.451       57.853       47.115       40.395     3346.917     2219.785     1631.768        1.025        0.360      114.317       21.788        0.036      341.775       16.721      862.233
09/19/2013  10:19:00       25.256       92.609      -19.324       54.718       39.139       32.330     2994.009     1531.829     1045.242        0.758        0.279       95.991       17.533        0.033      341.618       16.456      862.222
09/19/2013  10:20:00       96.293       89.846       -2.787       50.268       44.501       39.605     2526.921     1980.352     1568.591        1.171        0.304      131.699       32.792        0.062      341.863       16.871      862.200
09/19/2013  10:21:00       76.398       55.053       11.737       58.359       44.933       32.763     3405.825     2018.970     1073.390        0.775        0.325       94.167       13.156        0.020      342.201       17.444      862.197
09/19/2013  10:22:00        0.752      -81.044       11.181       62.524       48.167       41.613     3909.293     2320.021     1731.614        0.733        0.398       81.048       25.926        0.102      341.610       16.442      862.186
09/19/2013  10:23:00       45.040       55.600       51.146       33.364       29.272       27.166     1113.174      856.851      737.996        0.522        0.135       71.554       15.177        0.045      342.249       17.526      862.178
09/19/2013  10:24:00       72.004       55.404        2.148       36.851       32.352       33.927     1357.969     1046.633     1151.028        0.591        0.178       90.853       20.937        0.053      341.944       17.009      862.175
09/19/2013  10:25:00       21.171       -4.281        8.937       34.319       71.392       41.599     1177.779     5096.755     1730.517        0.427        0.400       21.600       30.786        2.031      341.635       16.484      862.163
09/19/2013  10:26:00       14.153      -29.148        9.119       35.739       26.197       25.015     1277.283      686.303      625.762        0.186        0.129       32.403       23.269        0.516      341.613       16.446      862.163
09/19/2013  10:27:00       80.312       89.960       17.385       75.184       68.712       34.773     5652.699     4721.396     1209.155        1.321        0.579      120.594       30.918        0.066      342.211       17.461      862.163
09/19/2013  10:28:00       87.248       37.307       34.618       63.143       72.577       37.626     3987.080     5267.447     1415.738        1.043        0.534       94.890       33.810        0.127      342.246       17.520      862.170
09/19/2013  10:29:00       19.451       17.780       35.795       35.651       40.530       35.971     1270.974     1642.676     1293.929        0.309        0.210       26.353       26.989        1.049      342.558       18.052      862.169
09/19/2013  10:30:00       39.055       36.224       10.535       62.180       53.408       42.158     3866.297     2852.428     1777.270        0.572        0.425       53.268       36.674        0.474      342.410       17.799      862.188
09/19/2013  10:31:00       58.052       41.942       33.012       51.016       50.407       29.526     2602.612     2540.843      871.798        0.612        0.301       71.618       24.772        0.120      342.554       18.046      862.178
09/19/2013  10:32:00      129.311       95.094       24.785       46.293       38.442       38.200     2143.019     1477.804     1459.241        1.573        0.254      160.512       17.735        0.012      342.232       17.497      862.184
09/19/2013  10:33:00      127.770       98.186       20.645       79.052       62.875       48.219     6249.220     3953.219     2325.101        1.946        0.626      161.139       39.855        0.061      342.282       17.581      862.174
09/19/2013  10:34:00       60.099       54.397       53.360       58.090       40.742       37.744     3374.461     1659.874     1424.601        0.794        0.323       81.061       30.557        0.142      342.695       18.284      862.182
09/19/2013  10:35:00       -7.825      -14.695       41.187       33.025       57.486       45.617     1090.663     3304.632     2080.945        0.422        0.324       16.648       40.998        6.064      342.704       18.302      862.176
09/19/2013  10:36:00       21.499      -78.720       31.147       47.123       72.663       37.795     2220.593     5279.873     1428.430        0.828        0.446       81.603       32.522        0.159      342.713       18.315      862.181
09/19/2013  10:37:00       71.780     -156.527      -15.460       59.747       58.483       36.894     3569.671     3420.255     1361.132        1.912        0.418      172.200       26.688        0.024      342.165       17.382      862.172
09/19/2013  10:38:00       89.542     -126.609      -31.903       48.350       49.235       29.069     2337.722     2424.086      844.994        1.533        0.280      155.073       20.354        0.017      342.207       17.455      862.160
09/19/2013  10:39:00       48.083      -91.145        0.938       48.800       53.226       34.004     2381.429     2833.035     1156.267        0.849        0.319      103.050       22.247        0.047      342.413       17.805      862.145
09/19/2013  10:40:00       61.446     -132.459      -12.127       54.453       48.001       28.308     2965.132     2304.125      801.337        1.377        0.304      146.017       17.894        0.015      342.360       17.715      862.134
09/19/2013  10:41:00       26.411      -82.375       11.528       50.717       79.389       39.247     2572.179     6302.643     1540.324        0.901        0.521       86.505       46.156        0.285      342.660       18.225      862.111
09/19/2013  10:42:00       53.093       70.417       20.443       49.112       51.378       37.266     2411.989     2639.689     1388.749        0.732        0.322       88.189       28.329        0.103      342.763       18.399      862.110
09/19/2013  10:43:00       54.528       39.793       30.707       37.973       36.296       22.281     1441.973     1317.409      496.443        0.438        0.163       67.504        3.270        0.002      342.875       18.591      862.117
09/19/2013  10:44:00        1.183      -12.513       18.907       25.485       34.558       27.956      649.482     1194.262      781.525        0.157        0.131       12.569       18.968        2.278      342.851       18.550      862.116
09/19/2013  10:45:00       14.055       -2.261       49.813       41.706       55.535       29.574     1739.354     3084.168      874.630        0.419        0.285       14.236       15.427        1.174      342.784       18.437      862.112
09/19/2013  10:46:00       40.463       -9.175       12.502       33.332       23.730       23.902     1110.999      563.098      571.320        0.206        0.112       41.490        9.092        0.048      342.194       17.434      862.113
09/19/2013  10:47:00       11.063       -8.329        3.160       25.534       57.540       25.437      651.995     3310.821      647.059        0.240        0.230       13.848       17.837        1.659      342.525       17.996      862.099
09/19/2013  10:48:00       52.102     -124.185       -9.512       78.973       74.148       39.534     6236.743     5497.934     1562.957        1.576        0.665      134.672       44.838        0.111      342.479       17.919      862.099
09/19/2013  10:49:00       86.811     -198.197       -8.306       80.498      121.128       57.870     6479.896    14671.883     3348.984        3.569        1.225      216.376       59.154        0.075      342.284       17.582      862.082
09/19/2013  10:50:00       73.763     -156.724       -6.570       56.621       55.299       47.953     3205.983     3057.998     2299.471        1.930        0.428      173.215       36.040        0.043      342.203       17.447      862.091
09/19/2013  10:51:00       32.871      -42.458       26.083       44.789       85.352       52.893     2006.073     7284.993     2797.719        0.782        0.604       53.696       59.044        1.209      342.433       17.838      862.069
09/19/2013  10:52:00       19.076       -0.051       42.011       43.598       59.878       44.480     1900.811     3585.427     1978.480        0.480        0.373       19.076       49.921        6.849      342.926       18.678      862.058
09/19/2013  10:53:00        5.285        5.730       30.980       39.119       24.066       21.110     1530.310      579.196      445.612        0.179        0.128        7.796       18.577        5.679      342.728       18.343      862.028
09/19/2013  10:54:00       -8.615      -17.700        9.866       24.790       22.864       18.232      614.536      522.780      332.404        0.098        0.073       19.685       15.670        0.634      342.974       18.759      862.015
09/19/2013  10:55:00       43.989       48.893       49.128       48.777       35.374       32.734     2379.234     1251.331     1071.533        0.572        0.235       65.769       18.883        0.082      342.922       18.672      862.008
09/19/2013  10:56:00       89.035       52.125       25.253       31.138       36.642       33.704      969.593     1342.663     1135.969        0.736        0.172      103.171       11.215        0.012      342.579       18.088      862.001
09/19/2013  10:57:00       39.132       25.182        3.476       44.084       33.562       27.757     1943.410     1126.386      770.428        0.301        0.192       46.535       23.723        0.260      342.320       17.648      861.990
09/19/2013  10:58:00       13.967       12.648       -1.480       29.513       36.019       16.623      871.015     1297.395      276.311        0.140        0.122       18.843       12.015        0.407      342.761       18.397      861.971
09/19/2013  10:59:00       60.424       47.330       34.433       45.938       37.716       39.186     2110.263     1422.482     1535.582        0.607        0.253       76.754       19.923        0.067      343.181       19.111      861.968
09/19/2013  11:00:00       26.643       48.674       26.329       36.588       46.613       36.007     1338.713     2172.740     1296.490        0.429        0.240       55.488       31.258        0.317      342.888       18.614      861.963
09/19/2013  11:01:00      116.651       68.021       30.867       83.891       50.136       39.068     7037.748     2513.621     1526.286        1.513        0.554      135.035       37.034        0.075      342.573       18.077      861.954
09/19/2013  11:02:00      143.531       86.091        7.570      101.608       45.532       39.332    10324.198     2073.165     1546.972        2.100        0.697      167.371       25.486        0.023      342.636       18.182      861.941
09/19/2013  11:03:00      155.574      133.573       25.321       48.615       45.550       36.929     2363.464     2074.818     1363.714        2.424        0.290      205.049       19.634        0.009      342.366       17.723      861.947
09/19/2013  11:04:00       62.186       38.384       29.200       45.956       47.019       24.499     2111.958     2210.748      600.203        0.556        0.246       73.078       29.000        0.157      342.742       18.365      861.943
09/19/2013  11:05:00       19.536       -1.884       -0.416       24.096       25.103       24.243      580.640      630.172      587.723        0.109        0.090       19.627       15.276        0.606      342.601       18.123      861.943
09/19/2013  11:06:00       60.519       42.928       12.525       86.664       51.021       36.272     7510.658     2603.112     1315.635        0.854        0.571       74.199       27.340        0.136      342.680       18.259      861.941
09/19/2013  11:07:00       66.988       43.964       21.952       58.184       44.886       34.343     3385.358     2014.743     1179.426        0.674        0.329       80.127       21.788        0.074      343.124       19.015      861.948
09/19/2013  11:08:00      119.847       80.088       46.981       64.880       56.993       51.763     4209.434     3248.150     2679.388        1.656        0.507      144.144       27.456        0.036      343.130       19.025      861.933
09/19/2013  11:09:00      196.872      132.247       65.760       99.041       64.988       66.349     9809.128     4223.417     4402.219        3.950        0.922      237.167       53.402        0.051      342.784       18.433      861.947
09/19/2013  11:10:00      120.142       90.479       92.499      100.080       62.263       53.292    10016.078     3876.660     2840.034        2.395        0.837      150.401       31.275        0.043      342.611       18.139      861.964
09/19/2013  11:11:00       72.601       63.766       50.678       58.688       49.477       53.967     3444.340     2447.975     2912.466        1.035        0.440       96.628       18.376        0.036      342.489       17.933      861.972
09/19/2013  11:12:00       44.507      -79.004        3.355       36.640       73.939       37.273     1342.461     5466.992     1389.247        0.821        0.410       90.678       37.889        0.175      342.650       18.209      861.970
09/19/2013  11:13:00       52.772       -8.319       25.238       43.431       38.199       35.176     1886.294     1459.139     1237.375        0.404        0.229       53.423       30.710        0.330      343.035       18.864      861.972
09/19/2013  11:14:00       51.933      -13.060       35.510       52.774       63.640       36.099     2785.077     4050.008     1303.155        0.613        0.407       53.550       41.677        0.606      342.896       18.627      861.972
09/19/2013  11:15:00       40.017      -68.051      -10.417       41.514       41.486       28.538     1723.414     1721.062      814.392        0.530        0.213       78.945       11.736        0.022      342.388       17.763      861.969
09/19/2013  11:16:00        7.962      -31.013        2.017       23.858       23.198       14.270      569.225      538.153      203.642        0.117        0.066       32.018       13.118        0.168      342.718       18.324      861.964
09/19/2013  11:17:00      -75.830       53.063       -8.259       40.894       42.472       26.546     1672.354     1803.855      704.670        0.641        0.209       92.552       13.224        0.020      342.781       18.430      861.935
09/19/2013  11:18:00      -81.065        9.135       -1.613       48.250       43.298       24.316     2328.064     1874.712      591.280        0.572        0.240       81.578       27.849        0.117      342.782       18.434      861.926
09/19/2013  11:19:00       27.403       17.409        2.702       56.758       57.087       45.336     3221.479     3258.982     2055.370        0.480        0.427       32.465       15.822        0.238      343.119       19.005      861.912
09/19/2013  11:20:00       63.555       76.242        4.861       60.559       57.214       53.701     3667.365     3273.423     2883.813        0.985        0.491       99.257       42.324        0.182      343.222       19.181      861.907
09/19/2013  11:21:00      178.617      123.797       17.270       70.339       61.063       47.971     4947.525     3728.654     2301.174        2.925        0.549      217.324       24.051        0.012      343.159       19.073      861.903
09/19/2013  11:22:00       47.594       99.968        1.367       64.413       51.704       43.368     4148.987     2673.305     1880.818        1.048        0.435      110.719       36.405        0.108      343.197       19.139      861.900
09/19/2013  11:23:00       54.771       65.162       16.088       51.006       32.406       32.070     2601.659     1050.123     1028.497        0.609        0.234       85.123       15.863        0.035      343.275       19.271      861.891
09/19/2013  11:24:00      135.189       96.194       22.557       85.832       49.978       51.193     7367.203     2497.823     2620.698        2.026        0.624      165.920       37.590        0.051      343.171       19.093      861.879
09/19/2013  11:25:00      106.553      100.361        3.041       97.720       76.060       54.837     9549.286     5785.162     3007.090        1.988        0.917      146.375       30.117        0.042      343.243       19.216      861.869
09/19/2013  11:26:00       96.556       72.144       21.306       48.074       36.681       42.119     2311.085     1345.529     1773.971        1.021        0.272      120.532       12.501        0.011      343.339       19.380      861.859
09/19/2013  11:27:00       65.179       91.527        4.008       61.128       66.493       39.763     3736.661     4421.312     1581.097        1.119        0.487      112.363       34.934        0.097      343.411       19.503      861.845
09/19/2013  11:28:00      149.857      120.914       19.706       93.142       73.576       58.415     8675.348     5413.459     3412.267        2.748        0.875      192.554       26.267        0.019      343.334       19.371      861.831
09/19/2013  11:29:00      173.231      132.230       27.954       73.761       60.920       55.911     5440.661     3711.294     3126.000        3.027        0.614      217.931       42.472        0.038      343.115       18.997      861.826
09/19/2013  11:30:00       35.383       64.121       64.793       76.617       55.918       48.461     5870.198     3126.783     2348.484        1.045        0.567       73.236       35.981        0.241      343.741       20.067      861.815
09/19/2013  11:31:00      213.643      109.306       64.846       70.925       53.772       54.339     5030.312     2891.462     2952.774        3.633        0.544      239.982       32.074        0.018      343.211       19.159      861.824
09/19/2013  11:32:00      131.111       63.141       29.019       75.357       52.467       45.438     5678.616     2752.760     2064.590        1.626        0.525      145.523       28.067        0.037      343.344       19.388      861.819
09/19/2013  11:33:00       86.880       87.605       44.682       60.977       47.679       43.444     3718.148     2273.275     1887.369        1.255        0.394      123.381       19.808        0.026      343.459       19.585      861.812
09/19/2013  11:34:00      136.073       94.797        4.162       53.229       52.441       41.044     2833.288     2750.013     1684.602        1.739        0.363      165.838       15.729        0.009      343.439       19.551      861.803
09/19/2013  11:35:00       63.483       22.196        7.359       58.857       91.355       42.357     3464.193     8345.795     1794.123        0.909        0.680       67.251       41.123        0.374      343.501       19.657      861.801
09/19/2013  11:36:00      116.927     -110.050       12.180       63.495       81.247       38.732     4031.654     6601.045     1500.161        1.903        0.607      160.570       34.153        0.045      343.169       19.091      861.803
09/19/2013  11:37:00       42.416      -30.823       29.394       41.514       61.346       35.293     1723.377     3763.309     1245.578        0.517        0.337       52.433       26.818        0.262      343.588       19.806      861.797
09/19/2013  11:38:00       57.653     -108.998        2.421       80.291       61.114       39.498     6446.626     3734.888     1560.100        1.347        0.587      123.306       31.468        0.065      343.293       19.302      861.793
09/19/2013  11:39:00       87.005       75.429       27.583       50.591       48.131       44.634     2559.470     2316.571     1992.190        1.044        0.343      115.150       40.761        0.125      343.590       19.809      861.757
09/19/2013  11:40:00       24.928       42.370       74.502       42.383       36.160       30.507     1796.326     1307.570      930.703        0.600        0.202       49.159       19.280        0.154      343.674       19.952      861.749
09/19/2013  11:41:00        1.999        7.283       50.559       25.969       35.682       24.485      674.405     1273.205      599.501        0.258        0.127        7.552       23.999       10.099      343.962       20.444      861.743
09/19/2013  11:42:00       73.731     -153.084      -13.327       73.216       75.944       50.873     5360.602     5767.443     2588.111        2.138        0.686      169.914       44.214        0.068      343.477       19.615      861.722
09/19/2013  11:43:00      109.915     -104.928       17.528       69.391       75.851       38.024     4815.167     5753.400     1445.861        1.770        0.601      151.958       37.738        0.062      343.397       19.478      861.729
09/19/2013  11:44:00       55.468       12.053       34.060       60.236       45.634       37.904     3628.348     2082.484     1436.705        0.576        0.357       56.763       26.560        0.219      343.571       19.777      861.720
09/19/2013  11:45:00      116.038       86.656       28.904       38.406       33.804       34.422     1475.030     1142.721     1184.842        1.281        0.190      144.824       19.495        0.018      343.178       19.107      861.710
09/19/2013  11:46:00       54.997       50.784       27.956       43.940       42.690       33.774     1930.737     1822.450     1140.690        0.564        0.245       74.857       23.090        0.095      343.686       19.975      861.695
09/19/2013  11:47:00       51.233       18.812       14.744       39.693       39.188       33.340     1575.526     1535.697     1111.553        0.371        0.211       54.577       19.406        0.126      343.862       20.272      861.672
09/19/2013  11:48:00       46.052       33.977       15.061       31.089       28.977       23.808      966.511      839.686      566.798        0.294        0.119       57.230       11.671        0.042      343.844       20.240      861.662
09/19/2013  11:49:00       46.284        1.174        6.433       36.917       36.194       28.180     1362.838     1310.038      794.127        0.283        0.173       46.299       14.109        0.093      343.619       19.859      861.656
09/19/2013  11:50:00      127.748       74.772        0.523       56.524       39.555       35.333     3194.931     1564.620     1248.412        1.396        0.300      148.022       20.610        0.019      343.712       20.016      861.643
09/19/2013  11:51:00       -5.075       76.713       12.199       53.957       69.316       36.516     2911.333     4804.706     1333.403        0.755        0.452       76.881       36.155        0.221      344.036       20.571      861.638
09/19/2013  11:52:00       35.379        5.547       25.230       25.869       25.877       23.322      669.184      669.603      543.922        0.190        0.094       35.811       10.847        0.092      344.189       20.831      861.631
09/19/2013  11:53:00       29.602      -22.377      -10.653       40.367       33.977       38.070     1629.487     1154.429     1449.357        0.286        0.212       37.108       35.445        0.912      343.399       19.482      861.619
09/19/2013  11:54:00       41.938      -17.635       15.631       37.934       42.353       45.993     1439.009     1793.812     2115.369        0.383        0.267       45.495       28.421        0.390      343.604       19.835      861.609
09/19/2013  11:55:00       88.805       82.078       54.344       63.433       53.272       39.724     4023.724     2837.912     1577.985        1.301        0.422      120.926       29.388        0.059      343.616       19.854      861.593
09/19/2013  11:56:00       34.187      -41.027       -3.261       28.110       28.887       24.961      790.161      834.472      623.036        0.255        0.112       53.403       12.031        0.051      343.557       19.753      861.581
09/19/2013  11:57:00       64.406       13.981        4.193       40.169       43.263       26.176     1613.571     1871.695      685.164        0.426        0.209       65.906       16.694        0.064      343.469       19.603      861.556
09/19/2013  11:58:00      179.286       93.396       28.680      110.594       80.836       50.642    12231.108     6534.426     2564.630        3.151        1.067      202.154       18.475        0.008      343.673       19.948      861.526
09/19/2013  11:59:00      108.343       91.375       31.264       47.867       39.219       36.191     2291.294     1538.093     1309.824        1.310        0.257      141.731       20.150        0.020      343.722       20.034      861.518
09/19/2013  12:00:00       98.754       89.719       64.522       47.947       27.576       31.683     2298.911      760.447     1003.816        1.301        0.203      133.424       21.863        0.027      343.688       19.975      861.502
09/19/2013  12:01:00      215.062      116.287       36.444      115.869       58.905       52.480    13425.528     3469.839     2754.187        4.037        0.982      244.488       47.047        0.037      343.540       19.722      861.513
09/19/2013  12:02:00      132.876       27.260      104.023      133.547      181.407      113.515    17834.902    32908.491    12885.677        4.641        3.181      135.644      112.743        0.691      344.048       20.588      861.447
09/19/2013  12:03:00       74.386       90.351       89.443       99.520       58.745       64.413     9904.156     3450.991     4149.073        1.960        0.875      117.032       46.831        0.160      344.231       20.902      861.479
09/19/2013  12:04:00      107.534       77.982       52.324      106.990       59.142       49.862    11446.818     3497.719     2486.196        1.890        0.872      132.834       55.629        0.175      344.254       20.940      861.466
09/19/2013  12:05:00       73.113      -42.810       12.271       66.709      143.250       70.677     4450.108    20520.480     4995.246        1.864        1.498       84.724       78.497        0.858      343.905       20.346      861.461
09/19/2013  12:06:00       60.259      -13.158       20.195       48.194       50.985       49.312     2322.708     2599.462     2431.685        0.578        0.368       61.679       38.349        0.387      343.845       20.243      861.446
09/19/2013  12:07:00      145.239     -169.774      -10.795       77.694      115.043       71.958     6036.329    13234.815     5178.011        3.724        1.222      223.422       84.038        0.141      343.854       20.258      861.424
09/19/2013  12:08:00       96.956     -190.001       13.459      102.740      149.685       63.323    10555.540    22405.594     4009.740        4.132        1.849      213.309       67.819        0.101      344.022       20.543      861.411
09/19/2013  12:09:00      179.470      -18.153       37.159      119.236      221.381       77.882    14217.111    49009.655     6065.578        5.159        3.465      180.385       82.929        0.211      344.122       20.715      861.378
09/19/2013  12:10:00      184.621       92.934       32.493      113.663       93.732       72.356    12919.332     8785.661     5235.366        3.535        1.347      206.692       56.379        0.074      343.780       20.130      861.380
09/19/2013  12:11:00       92.046       38.436       59.364       90.330       73.136       60.991     8159.469     5348.827     3719.937        1.535        0.861       99.748       57.442        0.332      343.942       20.408      861.390
09/19/2013  12:12:00      105.360      123.488       54.214      102.137       56.267       63.776    10431.936     3165.978     4067.432        2.347        0.883      162.327       59.229        0.133      344.026       20.551      861.371
09/19/2013  12:13:00       96.280       96.801       29.837       65.041       57.815       54.707     4230.389     3342.552     2992.833        1.505        0.528      136.529       33.671        0.061      344.092       20.665      861.339
09/19/2013  12:14:00      135.116       66.060       41.328       95.281       63.290       51.288     9078.428     4005.618     2630.476        2.002        0.786      150.400       34.908        0.054      344.313       21.041      861.320
09/19/2013  12:15:00      174.814      101.975        7.930       94.614       68.099       67.868     8951.891     4637.460     4606.132        2.961        0.910      202.383       20.784        0.011      344.276       20.978      861.300
09/19/2013  12:16:00      101.649     -155.740        0.949       97.942      110.630       55.751     9592.633    12239.030     3108.161        2.976        1.247      185.977       64.033        0.119      344.360       21.121      861.307
09/19/2013  12:17:00      143.132      -29.155       63.965      123.792      113.817       77.143    15324.420    12954.238     5951.047        2.982        1.711      146.071       61.977        0.180      344.325       21.063      861.297
09/19/2013  12:18:00      141.241       39.390      104.423      138.166      123.831       89.930    19089.826    15334.004     8087.387        3.745        2.126      146.630      100.577        0.470      344.098       20.673      861.286
09/19/2013  12:19:00       94.569       -4.360       28.372       79.150       72.474       41.511     6264.759     5252.510     1723.127        1.150        0.662       94.669       24.416        0.067      344.126       20.724      861.278
09/19/2013  12:20:00       85.569     -101.541       17.247      122.841      136.893       71.662    15089.844    18739.742     5135.454        2.844        1.948      132.788       71.337        0.289      344.323       21.057      861.251
09/19/2013  12:21:00      172.568     -286.783      -61.636       86.979       97.264       53.827     7565.378     9460.230     2897.360        6.787        0.996      334.700       47.494        0.020      343.931       20.387      861.246
09/19/2013  12:22:00      129.569     -203.620      -24.999       88.423      137.258       58.865     7818.551    18839.793     3465.097        4.449        1.506      241.349       71.160        0.087      343.978       20.469      861.249
09/19/2013  12:23:00      208.027     -278.170      -40.325      118.635      116.031       54.100    14074.285    13463.301     2926.813        7.637        1.523      347.352       63.168        0.033      343.955       20.428      861.226
09/19/2013  12:24:00       74.145     -245.175       -9.308      126.716      104.523       49.422    16056.937    10925.148     2442.517        4.755        1.471      256.141       30.777        0.014      343.938       20.399      861.227
09/19/2013  12:25:00       19.677       27.547       95.042       94.521      123.627       77.000     8934.163    15283.642     5928.983        2.016        1.507       33.853       83.240        6.046      344.329       21.069      861.207
09/19/2013  12:26:00       48.154       25.984       86.638       64.682      102.942       59.969     4183.754    10597.129     3596.319        1.443        0.919       54.717       72.728        1.767      344.017       20.536      861.222
09/19/2013  12:27:00       64.296       76.150       55.196       67.521       61.087       38.090     4559.068     3731.621     1450.827        1.136        0.487       99.663       34.720        0.121      343.948       20.420      861.182
09/19/2013  12:28:00       23.945      -19.438        8.351       35.199       35.240       24.321     1238.948     1241.853      591.506        0.205        0.154       30.842       16.053        0.271      344.120       20.714      861.168
09/19/2013  12:29:00        4.929      -72.154       35.083       89.814      130.741       93.585     8066.618    17093.113     8758.131        2.018        1.696       72.322       96.261        1.772      344.057       20.604      861.153
09/19/2013  12:30:00       66.439       64.310       98.576      109.595      130.774       88.146    12011.006    17101.719     7769.800        2.757        1.844       92.466      104.135        1.268      343.999       20.506      861.143
09/19/2013  12:31:00      202.908     -214.951      -46.111      101.666      135.105       74.204    10335.976    18253.412     5506.214        6.179        1.705      295.594       60.218        0.042      344.082       20.647      861.128
09/19/2013  12:32:00       15.059     -102.402      -22.028       77.730       91.225       55.819     6042.003     8321.977     3115.807        1.434        0.874      103.503       40.235        0.151      344.201       20.850      861.133
09/19/2013  12:33:00      -26.128      -63.817        5.374       83.363       58.634       49.603     6949.467     3437.913     2460.489        0.881        0.642       68.959       46.189        0.449      344.647       21.614      861.121
09/19/2013  12:34:00       21.195      -47.743       28.307       60.143       91.328       48.276     3617.132     8340.815     2330.553        0.891        0.714       52.236       61.743        1.397      344.694       21.694      861.112
09/19/2013  12:35:00      -26.885      -77.015        4.261       54.711       67.477       37.391     2993.298     4553.092     1398.094        0.781        0.447       81.573       34.037        0.174      344.501       21.364      861.109
09/19/2013  12:36:00       32.031       -4.083       16.494       43.703       64.564       29.773     1909.923     4168.506      886.426        0.414        0.348       32.291       14.984        0.215      344.423       21.233      861.092
09/19/2013  12:37:00       12.130       12.011       21.946       42.632       29.794       34.477     1817.528      887.679     1188.690        0.233        0.195       17.071       29.337        2.953      344.548       21.445      861.088
09/19/2013  12:38:00       61.530        4.127       40.639       68.303       71.438       56.063     4665.251     5103.353     3143.057        0.918        0.646       61.669       46.513        0.569      344.280       20.987      861.078
09/19/2013  12:39:00       90.365       67.471       53.078       75.630       42.383       45.355     5719.941     1796.317     2057.111        1.255        0.479      112.775       22.297        0.039      344.308       21.034      861.065
09/19/2013  12:40:00      187.366      162.264       38.349      105.179       74.267       70.907    11062.536     5515.644     5027.852        4.225        1.080      247.862       40.141        0.026      344.397       21.184      861.041
09/19/2013  12:41:00       81.557       48.483       10.981      101.381       69.228       42.497    10278.199     4792.573     1806.009        1.300        0.844       94.880       28.119        0.088      344.837       21.938      861.021
09/19/2013  12:42:00       -6.742       13.845       34.082       61.350       43.845       26.872     3763.801     1922.387      722.092        0.390        0.320       15.399        8.715        0.320      345.050       22.304      860.997
09/19/2013  12:43:00       28.114       30.611       46.823       60.506       56.072       43.109     3661.009     3144.087     1858.392        0.629        0.433       41.562       33.960        0.668      344.998       22.216      860.993
09/19/2013  12:44:00      182.193      107.546       21.600      125.498       71.614       56.335    15749.638     5128.510     3173.600        3.463        1.203      211.566       42.261        0.040      344.412       21.212      860.984
09/19/2013  12:45:00      149.064      120.685       28.136       75.507       62.569       58.529     5701.379     3914.889     3425.589        2.531        0.652      191.794       42.626        0.049      344.366       21.131      860.985
09/19/2013  12:46:00      147.234       92.257       24.484       98.028       58.085       59.636     9609.522     3373.914     3556.491        2.366        0.827      173.750       44.774        0.066      344.898       22.042      860.973
09/19/2013  12:47:00      152.418      162.110       14.845      103.093       79.429       63.867    10628.129     6309.039     4079.020        3.537        1.051      222.510       55.112        0.061      344.420       21.222      860.955
09/19/2013  12:48:00       80.022      110.298        0.355       80.277       79.403       56.431     6444.356     6304.836     3184.469        1.725        0.797      136.269       43.411        0.101      344.482       21.332      860.939
09/19/2013  12:49:00      238.121      204.752       22.197      200.441      100.301       79.548    40176.630    10060.274     6327.830        7.783        2.828      314.046       48.973        0.024      344.624       21.572      860.906
09/19/2013  12:50:00      349.531      213.248       43.253      105.292       91.011       75.344    11086.495     8282.974     5676.788        9.728        1.252      409.446       39.168        0.009      344.425       21.232      860.912
09/19/2013  12:51:00      226.288      131.233       34.266      102.618       85.941       63.405    10530.510     7385.871     4020.225        4.577        1.097      261.588       47.789        0.033      344.472       21.311      860.925
09/19/2013  12:52:00       51.955       39.947       57.861       90.456       98.186       62.948     8182.317     9640.564     3962.474        1.471        1.089       65.536       64.048        0.955      344.720       21.738      860.935
09/19/2013  12:53:00      132.062      -44.989       41.410       95.673      118.473       87.086     9153.360    14035.920     7583.951        2.597        1.539      139.515       87.028        0.389      344.501       21.362      860.942
09/19/2013  12:54:00       81.387     -128.280       -4.510       52.119       61.011       31.115     2716.425     3722.363      968.142        1.525        0.370      151.920       27.525        0.033      344.120       20.714      860.956
09/19/2013  12:55:00       48.986      -59.119       10.526       28.425       56.072       30.999      807.995     3144.103      960.914        0.546        0.246       76.777       27.698        0.130      344.630       21.585      860.932
09/19/2013  12:56:00       40.240      -16.705       -4.701       37.442       88.768       41.833     1401.912     7879.807     1750.031        0.647        0.552       43.570       45.117        1.072      344.484       21.336      860.914
09/19/2013  12:57:00       25.871      -24.075       -5.012       28.589       66.082       22.276      817.339     4366.807      496.235        0.348        0.284       35.340       14.895        0.178      344.579       21.497      860.900
09/19/2013  12:58:00        0.189      -47.219       18.444       32.210       70.515       33.767     1037.467     4972.352     1140.188        0.486        0.358       47.219       25.090        0.282      344.909       22.063      860.886
09/19/2013  12:59:00       23.503      -60.653       18.869       44.963      100.938       46.987     2021.702    10188.413     2207.739        0.950        0.721       65.048       64.339        0.978      344.854       21.969      860.866
09/19/2013  13:00:00       23.495       34.952       40.283       34.537       22.605       26.164     1192.797      510.987      684.568        0.289        0.119       42.115       20.884        0.246      344.506       21.373      860.847
09/19/2013  13:01:00       56.305       17.938       44.867       49.137       66.406       44.555     2414.452     4409.808     1985.114        0.716        0.440       59.093       30.642        0.269      344.635       21.594      860.846
09/19/2013  13:02:00       41.686       63.029       86.490       71.217       76.439       69.660     5071.909     5842.969     4852.565        1.448        0.788       75.567       55.124        0.532      344.776       21.835      860.818
09/19/2013  13:03:00      121.893      109.446       65.229       71.374       55.468       61.877     5094.215     3076.741     3828.718        2.154        0.600      163.818       48.714        0.088      344.573       21.487      860.811
09/19/2013  13:04:00      186.564      104.644       54.823      115.625       78.164       68.595    13369.235     6109.671     4705.299        3.647        1.209      213.907       51.978        0.059      344.849       21.957      860.788
09/19/2013  13:05:00      206.366      120.126       65.002      116.381      101.811       70.156    13544.472    10365.462     4921.812        4.503        1.442      238.783       61.240        0.066      344.772       21.824      860.759
09/19/2013  13:06:00      163.532      118.877       22.391      105.082       86.683       71.308    11042.211     7513.970     5084.797        3.250        1.182      202.174       33.618        0.028      344.998       22.213      860.731
09/19/2013  13:07:00      170.216       97.486       49.735      132.942       87.529       77.940    17673.532     7661.357     6074.715        3.617        1.570      196.155       64.195        0.107      344.828       21.922      860.736
09/19/2013  13:08:00       18.606       98.876       -1.464       34.972      106.544       37.646     1223.030    11351.563     1417.188        1.206        0.700      100.612       20.870        0.043      344.648       21.615      860.740
09/19/2013  13:09:00       33.728       12.957       26.464       69.426       59.170       46.397     4819.983     3501.079     2152.679        0.624        0.524       36.131       36.355        1.012      344.759       21.806      860.701
09/19/2013  13:10:00      106.524       71.761       34.511       47.555       45.639       42.978     2261.471     2082.905     1847.078        1.194        0.310      128.441       28.978        0.051      344.479       21.327      860.685
09/19/2013  13:11:00      136.096       95.309       35.255      108.434       96.833       43.749    11757.963     9376.632     1914.006        2.594        1.152      166.150       42.703        0.066      344.500       21.361      860.677
09/19/2013  13:12:00      174.224      122.083       22.782       83.884       53.399       45.364     7036.529     2851.458     2057.934        2.886        0.597      212.740       26.653        0.016      344.557       21.455      860.636
09/19/2013  13:13:00      146.639      162.651      119.894       93.493       75.521       76.383     8740.962     5703.450     5834.311        4.130        1.014      218.994       63.641        0.084      344.801       21.874      860.611
09/19/2013  13:14:00      268.394      124.730       92.885      126.513      105.226       94.741    16005.439    11072.430     8975.885        6.613        1.803      295.961       86.668        0.086      344.560       21.462      860.595
09/19/2013  13:15:00      127.455      119.814      100.620       97.907       88.580       81.494     9585.842     7846.378     6641.327        3.239        1.204      174.929       72.733        0.173      344.632       21.585      860.594
09/19/2013  13:16:00      108.259       77.908       64.812       89.462       93.368       62.176     8003.469     8717.608     3865.793        2.128        1.029      133.378       51.143        0.147      344.533       21.417      860.596
09/19/2013  13:17:00      140.425       86.610       66.182       88.055       60.087       51.912     7753.700     3610.408     2694.864        2.283        0.703      164.987       37.770        0.052      344.812       21.894      860.576
09/19/2013  13:18:00       82.563       60.578       13.203       74.441       70.803       52.102     5541.420     5013.100     2714.636        1.196        0.663      102.402       20.395        0.040      345.029       22.268      860.567
09/19/2013  13:19:00      102.407       72.545       30.212       48.564       61.097       37.818     2358.420     3732.798     1430.238        1.209        0.376      125.499       28.258        0.051      344.780       21.842      860.559
09/19/2013  13:20:00        8.265      -35.640        3.048       33.164       45.029       27.508     1099.864     2027.623      756.677        0.262        0.194       36.586       17.627        0.232      344.839       21.942      860.551
09/19/2013  13:21:00       39.360      -66.588       -2.159       44.623       41.213       31.114     1991.203     1698.492      968.057        0.532        0.233       77.351       24.327        0.099      344.869       21.994      860.536
09/19/2013  13:22:00       52.247     -124.816        6.243       49.798       66.406       36.214     2479.865     4409.714     1311.445        1.327        0.410      135.310       34.852        0.066      344.858       21.976      860.542
09/19/2013  13:23:00      -60.977      -22.843       11.950       87.264       50.126       39.457     7614.997     2512.585     1556.817        0.803        0.584       65.115       30.616        0.221      345.139       22.455      860.507
09/19/2013  13:24:00      126.036     -133.502       -1.722      105.950      129.177       76.282    11225.302    16686.680     5818.921        3.371        1.687      183.597       89.758        0.239      344.997       22.211      860.503
09/19/2013  13:25:00      100.732     -162.553       -1.288       80.370      123.841       66.459     6459.277    15336.635     4416.780        3.139        1.311      191.234       75.597        0.156      344.914       22.069      860.503
09/19/2013  13:26:00       72.389     -122.837       47.111       83.545      140.734       76.917     6979.836    19805.983     5916.148        2.762        1.635      142.581       82.591        0.336      345.120       22.422      860.500
09/19/2013  13:27:00       37.720       59.489       90.792       63.174       85.117       74.299     3991.008     7244.935     5520.375        1.498        0.838       70.440       70.024        0.988      345.068       22.333      860.490
09/19/2013  13:28:00      -18.517      -22.942       13.511       24.725       44.592       32.231      611.306     1988.410     1038.853        0.234        0.182       29.482       26.284        0.795      345.133       22.445      860.473
09/19/2013  13:29:00        3.392        8.569       21.458       24.059       47.450       42.597      578.831     2251.493     1814.485        0.259        0.232        9.216       36.925       16.054      345.077       22.351      860.447
09/19/2013  13:30:00       14.860      -21.049       16.035       29.257       65.159       41.296      855.979     4245.652     1705.320        0.386        0.340       25.766       44.473        2.979      344.998       22.214      860.428
09/19/2013  13:31:00       12.755      -35.487       14.300       35.618       34.612       32.308     1268.624     1198.012     1043.809        0.257        0.176       37.709       18.477        0.240      345.230       22.614      860.423
09/19/2013  13:32:00      -15.679        0.735       15.377       32.831       51.283       27.843     1077.842     2629.964      775.242        0.248        0.224       15.696       27.837        3.145      345.352       22.822      860.414
09/19/2013  13:33:00       17.674       72.397        3.364       38.651       81.606       36.141     1493.898     6659.538     1306.165        0.751        0.473       74.523       43.810        0.346      345.508       23.088      860.382
09/19/2013  13:34:00       29.684      109.857      -19.299       40.813       45.425       31.147     1665.685     2063.408      970.126        0.901        0.235      113.797       26.941        0.056      345.284       22.705      860.367
09/19/2013  13:35:00       62.889       49.006       10.882       48.583       31.828       27.262     2360.329     1013.049      743.204        0.529        0.206       79.728       12.287        0.024      345.185       22.535      860.365
09/19/2013  13:36:00       49.451      -31.019        6.712       66.612       49.011       33.333     4437.178     2402.082     1111.085        0.570        0.398       58.374       32.658        0.313      345.330       22.783      860.354
09/19/2013  13:37:00      110.567     -140.771       -0.572       82.211      112.575       58.719     6758.627    12673.034     3447.897        2.746        1.144      179.002       52.338        0.085      345.247       22.639      860.318
09/19/2013  13:38:00      104.350     -111.023       37.862      127.561      162.152       98.912    16271.698    26293.168     9783.559        3.849        2.617      152.365      111.066        0.531      345.453       22.992      860.287
09/19/2013  13:39:00      274.079     -289.299      -75.425       74.715       98.901       42.772     5582.309     9781.405     1829.435        9.084        0.860      398.514       18.132        0.002      344.805       21.880      860.277
09/19/2013  13:40:00      120.844     -239.998      -49.195      118.896      103.909       66.091    14136.227    10797.123     4367.996        5.196        1.465      268.705       56.694        0.045      344.976       22.175      860.286
09/19/2013  13:41:00       49.748     -149.379      -25.732       74.648       96.742       63.046     5572.294     9358.999     3974.854        2.217        0.945      157.445       52.811        0.113      345.084       22.360      860.293
09/19/2013  13:42:00       28.954      -79.963        0.211       48.516       70.056       40.518     2353.764     4907.817     1641.690        0.807        0.445       85.043       34.362        0.163      345.265       22.671      860.263
09/19/2013  13:43:00       58.068     -104.424       15.872       99.487      124.450       59.402     9897.642    15487.738     3528.598        2.172        1.446      119.483       61.429        0.264      345.441       22.973      860.249
09/19/2013  13:44:00       27.523       26.854      105.287       88.317       90.104       51.900     7799.940     8118.755     2693.659        1.558        0.931       38.453       45.489        1.399      345.490       23.058      860.230
09/19/2013  13:45:00      -11.628      -25.053       55.369       48.154       71.580       48.131     2318.835     5123.665     2316.561        0.679        0.488       27.620       31.192        1.275      345.744       23.494      860.207
09/19/2013  13:46:00       68.564      -46.011       34.728       56.044       69.326       46.357     3140.907     4806.160     2148.952        0.906        0.505       82.571       50.685        0.377      345.279       22.696      860.188
09/19/2013  13:47:00       68.192     -117.627        2.598       52.121       77.005       39.056     2716.561     5929.756     1525.368        1.433        0.509      135.964       36.560        0.072      345.127       22.435      860.177
09/19/2013  13:48:00       54.585      -68.325       21.665       68.405      106.156       62.013     4679.305    11269.110     3845.608        1.395        0.990       87.452       27.750        0.101      345.441       22.973      860.151
09/19/2013  13:49:00      129.098       67.556       18.936      105.564       79.609       45.329    11143.755     6337.627     2054.681        2.056        0.977      145.706       33.909        0.054      345.236       22.621      860.158
09/19/2013  13:50:00       78.732       48.671       37.238       72.231       57.074       37.624     5217.370     3257.408     1415.538        0.992        0.495       92.561       12.508        0.018      345.451       22.991      860.142
09/19/2013  13:51:00      115.677       92.342       18.295       66.609       40.112       42.497     4436.730     1608.949     1805.964        1.505        0.393      148.014       29.201        0.039      345.114       22.412      860.123
09/19/2013  13:52:00      103.795       70.457       44.194       69.872       43.940       43.434     4882.069     1930.739     1886.536        1.319        0.435      125.450       29.118        0.054      344.999       22.216      860.085
09/19/2013  13:53:00      109.343       75.807        1.115       61.538       45.583       38.412     3786.890     2077.822     1475.482        1.252        0.367      133.052       27.452        0.043      345.298       22.728      860.068
09/19/2013  13:54:00      183.139      134.704       25.879       90.923       63.720       56.366     8266.943     4060.289     3177.137        3.393        0.775      227.344       38.995        0.029      345.155       22.481      860.062
09/19/2013  13:55:00      125.678       86.605       33.816      107.819       74.308       54.536    11624.920     5521.612     2974.171        2.228        1.006      152.629       35.608        0.054      345.435       22.961      860.040
09/19/2013  13:56:00       82.670       41.178       43.575       74.885       66.318       62.312     5607.795     4398.011     3882.732        1.216        0.694       92.357       50.218        0.296      345.677       23.378      860.018
09/19/2013  13:57:00       80.267       97.311       63.759      105.938       86.684       56.992    11222.930     7514.166     3248.134        2.098        1.099      126.144       35.958        0.081      345.866       23.703      859.986
09/19/2013  13:58:00      179.462      172.251      112.374      153.818      117.665      103.150    23659.933    13845.057    10639.872        6.132        2.407      248.751       89.302        0.129      345.656       23.340      859.958
09/19/2013  13:59:00      168.053       98.294      101.171      132.351      122.944       88.631    17516.857    15115.274     7855.431        4.431        2.024      194.689       68.373        0.123      345.653       23.334      859.965
09/19/2013  14:00:00      195.503      113.197      101.489      128.476      108.531       74.658    16506.129    11779.034     5573.777        4.759        1.693      225.909       67.143        0.088      345.527       23.118      859.975
09/19/2013  14:01:00       83.379      107.400      111.334      101.912      115.359       60.142    10386.009    13307.806     3617.065        2.909        1.366      135.967       58.273        0.184      345.854       23.680      859.973
09/19/2013  14:02:00      150.641      127.631      135.951      109.411       82.241       76.139    11970.658     6763.570     5797.105        4.099        1.227      197.439       66.641        0.114      345.232       22.610      859.981
09/19/2013  14:03:00      139.590      107.873      112.761      115.029       99.145       82.828    13231.663     9829.806     6860.528        3.687        1.496      176.414       67.022        0.144      345.422       22.937      859.956
09/19/2013  14:04:00       36.551      -43.435       40.488       77.944       98.558       66.675     6075.297     9713.643     4445.563        1.254        1.012       56.767       73.801        1.690      345.737       23.481      859.977
09/19/2013  14:05:00       26.105       -4.514       25.097       42.158       60.469       40.779     1777.270     3656.459     1662.953        0.421        0.355       26.493       28.076        1.123      345.887       23.740      859.978
09/19/2013  14:06:00       44.903      -64.619       19.549       74.252       83.943       37.123     5513.338     7046.348     1378.112        1.025        0.697       78.688       51.842        0.434      345.718       23.450      859.968
09/19/2013  14:07:00       47.853       23.133       61.823       72.934       68.304       52.899     5319.298     4665.487     2798.318        0.971        0.639       53.151       46.002        0.749      345.782       23.558      859.950
09/19/2013  14:08:00       26.294      -92.612        5.294       44.501       73.322       42.804     1980.355     5376.069     1832.188        0.924        0.459       96.273       37.497        0.152      345.296       22.725      859.966
09/19/2013  14:09:00        1.384      -90.176        2.830       55.147       86.982       43.915     3041.190     7565.948     1928.487        1.034        0.627       90.186       43.285        0.230      345.664       23.355      859.946
09/19/2013  14:10:00        8.520       30.437        3.511       53.302       39.762       33.799     2841.124     1580.998     1142.372        0.329        0.278       31.607       18.080        0.327      346.025       23.975      859.955
09/19/2013  14:11:00       11.090      -23.586       26.211       55.402       44.598       31.349     3069.367     1988.961      982.773        0.370        0.302       26.063       15.201        0.340      346.112       24.126      859.948
09/19/2013  14:12:00      -11.223       11.285       32.619       43.330       48.604       26.848     1877.466     2362.324      720.804        0.314        0.248       15.916       14.873        0.873      346.183       24.248      859.932
09/19/2013  14:13:00      136.795      115.147       98.130      114.620       83.365       67.931    13137.819     6949.648     4614.569        3.315        1.235      178.806       52.098        0.085      345.590       23.228      859.914
09/19/2013  14:14:00      187.029      112.012       55.342      101.451       81.485       76.694    10292.211     6639.804     5881.995        3.670        1.141      218.006       46.201        0.045      345.197       22.551      859.904
09/19/2013  14:15:00      136.495      110.346       15.493       86.742       67.850       66.395     7524.222     4603.556     4408.317        2.379        0.827      175.519       35.507        0.041      345.430       22.952      859.875
09/19/2013  14:16:00      164.622      133.104       30.514      117.544       73.481       63.242    13816.570     5399.530     3999.527        3.448        1.161      211.700       40.594        0.037      345.491       23.059      859.857
09/19/2013  14:17:00       20.285       95.833       -6.838       69.140       63.490       44.788     4780.278     4031.022     2005.922        1.023        0.541       97.956       37.409        0.146      345.499       23.073      859.813
09/19/2013  14:18:00        1.912      140.690       -9.130       63.600       84.339       44.037     4044.934     7113.143     1939.216        1.649        0.655      140.703       46.265        0.108      345.573       23.200      859.788
09/19/2013  14:19:00      135.969      119.003       16.888      107.713       67.939       39.870    11602.018     4615.643     1589.580        2.537        0.890      180.692       42.764        0.056      345.644       23.320      859.775
09/19/2013  14:20:00      244.402      172.060       67.303       95.554       85.797       76.272     9130.618     7361.072     5817.362        5.808        1.115      298.893       31.984        0.011      345.675       23.370      859.768
09/19/2013  14:21:00      205.810      134.232       46.691      148.814       89.777       77.560    22145.734     8059.851     6015.607        4.938        1.811      245.715       28.089        0.013      345.601       23.245      859.777
09/19/2013  14:22:00      167.686       92.538       20.574      122.906       76.372       48.936    15105.915     5832.614     2394.712        3.021        1.167      191.525       32.287        0.028      345.616       23.271      859.755
09/19/2013  14:23:00      270.675      138.320       26.961      110.311       72.828       50.881    12168.516     5303.846     2588.828        5.659        1.003      303.969       33.934        0.012      345.469       23.018      859.751
09/19/2013  14:24:00      212.584      125.598       19.292       74.434       60.753       48.649     5540.374     3690.988     2366.721        3.647        0.580      246.914       32.294        0.017      345.398       22.895      859.744
09/19/2013  14:25:00      175.479      122.959       28.916       68.631       58.587       49.716     4710.218     3432.492     2471.713        2.868        0.531      214.271       26.054        0.015      345.434       22.959      859.718
09/19/2013  14:26:00      141.205      107.755       10.996      108.491       71.111       73.365    11770.280     5056.788     5382.396        2.694        1.110      177.623       53.585        0.091      345.615       23.271      859.702
09/19/2013  14:27:00      185.423      133.914       24.554       97.044       80.396       52.567     9417.539     6463.564     2763.320        3.578        0.932      228.724       37.325        0.027      345.492       23.059      859.688
09/19/2013  14:28:00      154.094      141.168       17.598       84.907       73.854       64.023     7209.144     5454.451     4098.885        3.037        0.838      208.982       46.673        0.050      345.349       22.815      859.684
09/19/2013  14:29:00      117.137       51.549       38.454       88.880       80.706       35.302     7899.641     6513.514     1246.240        1.676        0.783      127.978       36.742        0.082      345.649       23.328      859.670
09/19/2013  14:30:00       20.645       74.763       -4.801       36.454       49.909       40.129     1328.914     2490.893     1610.357        0.573        0.272       77.562       32.749        0.178      345.808       23.602      859.641
09/19/2013  14:31:00      110.620      101.129       55.432       74.161       67.691       60.824     5499.793     4582.129     3699.530        1.966        0.689      149.880       32.798        0.048      345.833       23.645      859.646
09/19/2013  14:32:00       85.225       93.031      107.602      104.948       87.975       88.168    11014.055     7739.580     7773.544        2.701        1.326      126.167       54.920        0.189      345.832       23.641      859.647
09/19/2013  14:33:00      169.530       92.447       78.885       84.432       87.389       85.396     7128.734     7636.753     7292.463        3.278        1.103      193.098       68.005        0.124      345.509       23.086      859.656
09/19/2013  14:34:00      131.793       89.815       24.172       76.233       81.170       49.164     5811.442     6588.567     2417.060        2.042        0.741      159.487       28.614        0.032      345.628       23.292      859.650
09/19/2013  14:35:00      117.539       60.697       18.760       74.933       74.741       49.330     5615.028     5586.265     2433.472        1.574        0.682      132.286       42.154        0.102      345.650       23.332      859.623
09/19/2013  14:36:00      107.740       89.354       17.060       97.661       59.160       51.307     9537.672     3499.869     2632.424        1.777        0.783      139.972       33.907        0.059      345.714       23.439      859.592
09/19/2013  14:37:00      159.904      115.690       95.636      114.074       98.412       84.674    13012.797     9684.876     7169.737        3.898        1.493      197.366       80.695        0.167      345.639       23.309      859.586
09/19/2013  14:38:00       41.522        7.856       17.402       61.713       53.254       35.479     3808.479     2836.032     1258.735        0.499        0.395       42.259       25.587        0.367      345.893       23.749      859.581
09/19/2013  14:39:00       87.014     -123.782        5.134       67.041       88.680       51.038     4494.562     7864.194     2604.857        1.894        0.748      151.306       61.925        0.168      345.777       23.548      859.555
09/19/2013  14:40:00       96.317     -153.161      -12.009       59.462       46.518       32.579     3535.670     2163.925     1061.398        1.982        0.338      180.929       29.830        0.027      345.773       23.540      859.530
09/19/2013  14:41:00       64.872      -91.650        1.654       44.798       47.255       25.599     2006.833     2233.041      655.296        0.875        0.245      112.286       18.417        0.027      345.631       23.300      859.520
09/19/2013  14:42:00        9.936       20.574        2.715       16.279       36.751       23.392      264.993     1350.657      547.166        0.135        0.108       22.848       17.406        0.580      346.076       24.064      859.510
09/19/2013  14:43:00       77.778       76.200       21.291       71.968       82.387       61.194     5179.417     6787.674     3744.757        1.401        0.786      108.885       32.819        0.091      345.914       23.783      859.502
09/19/2013  14:44:00      123.703       91.484       48.321       96.852       75.557       70.551     9380.244     5708.842     4977.502        2.303        1.003      153.856       52.970        0.119      345.727       23.464      859.478
09/19/2013  14:45:00      100.859       91.408       10.093       83.311       45.604       50.390     6940.738     2079.718     2539.142        1.509        0.578      136.118       37.548        0.076      345.916       23.786      859.466
09/19/2013  14:46:00      104.343       99.027        5.416       99.179       80.565       41.168     9836.487     6490.758     1694.832        1.937        0.901      143.853       39.358        0.075      345.840       23.657      859.462
09/19/2013  14:47:00      109.862       99.510        1.133       94.459       60.242       44.265     8922.491     3629.053     1959.352        1.824        0.726      148.229       28.413        0.037      345.749       23.500      859.461
09/19/2013  14:48:00       72.671       68.901       11.679       60.157       39.238       32.286     3618.924     1539.615     1042.411        0.818        0.310      100.142       20.542        0.042      345.832       23.643      859.444
09/19/2013  14:49:00       10.854       38.091        2.515       43.935       47.151       23.410     1930.277     2223.255      548.020        0.314        0.235       39.607       21.554        0.296      345.994       23.923      859.434
09/19/2013  14:50:00       88.937       93.587       -0.783       77.463       59.202       39.424     6000.549     3504.901     1554.248        1.386        0.553      129.105       31.694        0.060      345.801       23.589      859.436
09/19/2013  14:51:00      104.427       66.802        3.490       56.467       37.921       28.859     3188.543     1438.037      832.843        1.042        0.273      123.966       14.294        0.013      345.738       23.483      859.438
09/19/2013  14:52:00      110.811      117.451       -3.722       76.725       55.291       57.069     5886.784     3057.138     3256.900        1.914        0.610      161.474       38.037        0.055      345.882       23.729      859.414
09/19/2013  14:53:00      109.536       67.778       15.274       87.070       63.904       53.640     7581.237     4083.685     2877.278        1.568        0.727      128.810       29.082        0.051      345.958       23.859      859.394
09/19/2013  14:54:00       99.475       91.976       18.019       84.768       72.329       54.678     7185.546     5231.538     2989.696        1.704        0.770      135.480       45.510        0.113      346.039       23.997      859.379
09/19/2013  14:55:00      167.740      106.967       32.040      116.471      119.237       66.955    13565.575    14217.549     4483.014        3.643        1.613      198.944       32.935        0.027      346.124       24.144      859.356
09/19/2013  14:56:00      155.464      141.685       94.149      101.071       67.690       58.314    10215.406     4581.979     3400.473        3.565        0.910      210.342       45.048        0.046      346.289       24.426      859.333
09/19/2013  14:57:00      206.984      133.938      126.374      132.985      136.591      117.385    17684.990    18657.051    13779.260        6.343        2.506      246.539      105.059        0.182      345.978       23.891      859.322
09/19/2013  14:58:00      195.612      130.480       84.664      145.849      117.685      105.000    21271.976    13849.792    11024.991        5.429        2.307      235.137       85.815        0.133      345.777       23.548      859.345
09/19/2013  14:59:00      165.879      173.692      177.746      103.140       93.950       77.597    10637.832     8826.633     6021.366        5.738        1.274      240.177       74.498        0.096      345.740       23.482      859.340
09/19/2013  15:00:00       36.710       73.955       24.988       72.212       65.030       40.728     5214.574     4228.929     1658.735        0.927        0.555       82.565       33.188        0.162      345.956       23.857      859.345
09/19/2013  15:01:00       -2.794      100.583       -8.000       48.849       69.571       44.227     2386.258     4840.081     1956.056        0.968        0.459      100.622       27.678        0.076      346.124       24.146      859.332
09/19/2013  15:02:00       55.489      -67.170        3.037       52.932       55.855       28.699     2801.784     3119.772      823.614        0.717        0.337       87.125       12.190        0.020      345.941       23.832      859.324
09/19/2013  15:03:00       17.237      -46.716        3.517       66.247       65.397       46.007     4388.605     4276.822     2116.651        0.663        0.539       49.795       41.913        0.708      346.070       24.054      859.306
09/19/2013  15:04:00       40.020     -129.128       37.774       96.466      206.913       83.363     9305.603    42812.967     6949.316        3.937        2.953      135.187      116.955        0.748      346.101       24.104      859.271
09/19/2013  15:05:00       45.633      -25.373       34.990       56.624      104.600       61.810     3206.268    10941.090     3820.509        1.096        0.898       52.212       68.244        1.708      345.937       23.824      859.278
09/19/2013  15:06:00        0.176       22.920       32.128       25.254       23.691       26.762      637.786      561.269      716.188        0.174        0.096       22.921       18.542        0.654      346.151       24.192      859.261
09/19/2013  15:07:00       26.215       27.658       52.704       30.510       48.694       29.588      930.871     2371.123      875.422        0.420        0.209       38.107       30.323        0.633      346.057       24.030      859.246
09/19/2013  15:08:00      103.003       55.293       66.872      105.745       83.295       64.207    11181.998     6937.993     4122.574        2.019        1.112      116.906       56.527        0.234      346.085       24.076      859.241
09/19/2013  15:09:00      144.411       38.539      -23.437      116.234       83.764       58.339    13510.318     7016.356     3403.414        2.340        1.197      149.465       28.015        0.035      346.236       24.337      859.223
09/19/2013  15:10:00       97.034      100.602      124.189      118.011      110.981       73.481    13926.484    12316.862     5399.453        3.329        1.582      139.773       77.787        0.310      346.482       24.760      859.210
09/19/2013  15:11:00      146.133       -9.914       22.435      113.395      150.813       86.263    12858.327    22744.479     7441.322        3.249        2.152      146.469       73.837        0.254      346.132       24.158      859.178
09/19/2013  15:12:00      134.049     -163.471        7.153       75.284      111.261       47.116     5667.680    12378.942     2219.918        3.250        1.013      211.405       56.582        0.072      345.990       23.912      859.181
09/19/2013  15:13:00       46.709      -29.610       43.124       65.959      103.098       68.665     4350.535    10629.271     4714.918        1.230        0.985       55.304       82.255        2.212      346.206       24.286      859.164
09/19/2013  15:14:00      191.328      129.045       79.609      128.782       78.348       83.055    16584.858     6138.368     6898.086        4.460        1.481      230.779       82.836        0.129      346.075       24.058      859.154
09/19/2013  15:15:00      162.540      131.382      120.835      121.726      109.112       79.340    14817.206    11905.536     6294.886        4.564        1.651      208.999       69.507        0.111      346.166       24.214      859.123
09/19/2013  15:16:00      177.015      100.228       60.701      133.255       98.443       71.606    17757.021     9691.038     5127.489        3.881        1.629      203.421       26.893        0.017      346.295       24.437      859.133
09/19/2013  15:17:00       98.032      114.032       76.168       64.602       60.007       43.818     4173.432     3600.796     1920.040        1.905        0.485      150.378       26.524        0.031      346.328       24.495      859.156
09/19/2013  15:18:00       64.943      -30.531       -5.417       53.992       63.819       43.010     2915.121     4072.914     1849.877        0.701        0.442       71.761       35.082        0.239      346.224       24.318      859.130
09/19/2013  15:19:00       42.428      -11.991       15.736       29.427       42.884       32.596      865.972     1839.052     1062.507        0.298        0.188       44.090       26.882        0.372      346.156       24.202      859.101
09/19/2013  15:20:00       29.378       51.426       -1.382       37.661       50.612       30.105     1418.375     2561.551      906.323        0.420        0.244       59.226       30.992        0.274      346.023       23.972      859.071
09/19/2013  15:21:00       68.782       56.714        5.922       37.661       32.475       29.409     1418.375     1054.620      864.871        0.566        0.167       89.149       24.200        0.074      346.062       24.040      859.038
09/19/2013  15:22:00       52.654      100.159       -7.557       63.566       69.559       38.138     4040.682     4838.464     1454.521        1.160        0.517      113.156       33.305        0.087      346.230       24.327      859.030
09/19/2013  15:23:00       86.415      100.058       11.271       84.420       74.605       56.236     7126.743     5565.855     3162.473        1.673        0.793      132.209       47.999        0.132      346.235       24.335      859.015
09/19/2013  15:24:00      112.398      158.585        9.098      116.326      110.732       74.406    13531.692    12261.486     5536.213        3.459        1.566      194.377       71.181        0.134      346.101       24.103      858.995
09/19/2013  15:25:00      137.211      140.620       23.310      144.749      101.067      100.239    20952.275    10214.537    10047.767        4.017        2.061      196.471       62.307        0.101      346.084       24.073      858.977
09/19/2013  15:26:00      134.612      117.039       17.874      119.964       95.078       70.401    14391.375     9039.734     4956.272        3.026        1.419      178.377       52.121        0.085      346.117       24.132      858.977
09/19/2013  15:27:00      145.519      113.026        5.766       70.955       80.085       65.699     5034.551     6413.616     4316.353        2.487        0.788      184.257       47.643        0.067      346.176       24.232      858.965
09/19/2013  15:28:00      111.955      126.848        3.158       86.433       81.044       65.673     7470.649     6568.073     4312.897        2.349        0.918      169.187       55.832        0.109      346.230       24.327      858.949
09/19/2013  15:29:00       96.518       66.496       18.548      121.438       85.937       60.044    14747.292     7385.151     3605.273        1.990        1.287      117.207       40.260        0.118      346.346       24.525      858.941
09/19/2013  15:30:00      134.672       97.576       17.785       86.335       70.165       75.503     7453.706     4923.153     5700.707        2.302        0.904      166.306       49.266        0.088      346.258       24.374      858.932
09/19/2013  15:31:00      236.328      168.283       27.719      107.276       67.928       77.515    11508.142     4614.168     6008.510        5.353        1.107      290.120       42.321        0.021      346.064       24.039      858.937
09/19/2013  15:32:00      134.227      108.921       13.021       99.743       62.940       44.606     9948.730     3961.469     1989.722        2.297        0.795      172.861       40.603        0.055      346.199       24.273      858.905
09/19/2013  15:33:00      266.270      173.695       31.196      113.741       72.319       71.330    12937.126     5229.987     5088.005        6.264        1.163      317.914       39.946        0.016      346.090       24.084      858.885
09/19/2013  15:34:00      262.933      125.318       20.739      100.839       91.937       66.967    10168.564     8452.487     4484.570        5.418        1.155      291.270       25.031        0.007      346.169       24.220      858.871
09/19/2013  15:35:00       29.540      197.157      -18.877       59.543       78.045       45.813     3545.370     6090.984     2098.865        2.592        0.587      199.358       47.536        0.057      346.131       24.155      858.873
09/19/2013  15:36:00       57.638      172.966       -8.738       62.821       86.144       46.217     3946.472     7420.765     2136.002        2.341        0.675      182.317       50.353        0.076      346.057       24.027      858.869
09/19/2013  15:37:00      223.953      121.870       38.245       67.162       79.283       52.420     4510.711     6285.794     2747.839        4.000        0.677      254.965       18.978        0.006      346.239       24.339      858.852
09/19/2013  15:38:00      287.485      171.008       21.042       88.095       63.060       69.377     7760.757     3976.603     4813.176        6.444        0.828      334.501       52.382        0.025      346.044       24.006      858.829
09/19/2013  15:39:00      240.537      166.997       11.572       96.247       68.862       58.085     9263.532     4742.036     3373.824        5.163        0.869      292.824       31.470        0.012      345.950       23.843      858.823
09/19/2013  15:40:00      101.179       42.518       15.079       66.402       80.132       55.216     4409.260     6421.146     3048.848        1.307        0.694      109.749       50.945        0.215      346.251       24.363      858.822
09/19/2013  15:41:00      161.289       63.565       58.353       97.227       77.290       64.456     9453.130     5973.694     4154.604        2.652        0.979      173.363       23.161        0.018      346.256       24.369      858.814
09/19/2013  15:42:00      270.485      165.199       31.840       92.173       68.631       69.983     8495.859     4710.239     4897.597        5.978        0.905      316.943       46.773        0.022      346.121       24.136      858.806
09/19/2013  15:43:00      269.795      186.867       45.533      105.971       91.254       64.414    11229.752     8327.290     4149.202        6.674        1.185      328.190       46.985        0.020      346.126       24.145      858.817
09/19/2013  15:44:00      138.239       76.286       58.647      125.571       75.485       57.915    15767.963     5698.034     3354.139        2.659        1.241      157.891       67.354        0.182      346.236       24.336      858.822
09/19/2013  15:45:00      192.085      139.114       13.200       72.745       62.372       52.602     5291.882     3890.219     2766.982        3.418        0.597      237.170       25.734        0.012      346.138       24.166      858.832
09/19/2013  15:46:00       53.645      109.432       -7.646       64.921       50.494       36.928     4214.784     2549.676     1363.692        1.152        0.406      121.874       28.563        0.055      346.125       24.148      858.818
09/19/2013  15:47:00       12.827      127.335      -15.116       45.175       82.307       37.411     2040.781     6774.386     1399.573        1.341        0.511      127.980       47.812        0.140      346.141       24.173      858.790
09/19/2013  15:48:00      -38.821      165.504      -30.430       43.837       60.011       27.685     1921.650     3601.342      766.457        1.806        0.314      169.997       25.533        0.023      346.072       24.055      858.757
09/19/2013  15:49:00       50.851      169.282      -24.895       61.763       65.419       43.262     3814.655     4279.699     1871.561        2.091        0.498      176.755       40.550        0.053      346.278       24.407      858.741
09/19/2013  15:50:00      245.663      149.159       66.198      111.823       71.712       77.827    12504.284     5142.675     6057.110        5.534        1.185      287.400       52.149        0.033      346.311       24.461      858.727
09/19/2013  15:51:00      263.787      125.935       19.492      106.913      126.404       67.494    11430.480    15978.040     4555.448        5.889        1.598      292.307       34.100        0.014      346.307       24.458      858.698
09/19/2013  15:52:00       58.500      -14.359       21.221       82.372       47.104       41.027     6785.157     2218.824     1683.215        0.738        0.534       60.236       26.453        0.193      346.638       25.029      858.711
09/19/2013  15:53:00       39.849       21.557       58.122       76.842       70.528       44.777     5904.709     4974.134     2004.939        0.915        0.644       45.307       42.013        0.860      346.616       24.991      858.707
09/19/2013  15:54:00       52.788       10.037       47.239       55.953       95.179       54.334     3130.688     9058.988     2952.199        1.013        0.757       53.734       61.666        1.317      346.561       24.898      858.710
09/19/2013  15:55:00       46.381       20.117       53.434       63.607       91.503       49.040     4045.827     8372.716     2404.929        1.011        0.741       50.556       49.359        0.953      346.532       24.847      858.702
09/19/2013  15:56:00       52.378     -102.523      -15.030       54.318       53.319       38.899     2950.470     2842.948     1513.152        1.039        0.365      115.128       34.861        0.092      346.719       25.169      858.692
09/19/2013  15:57:00       35.517      -75.076       29.226       30.728       48.781       35.630      944.217     2379.547     1269.517        0.617        0.230       83.053       18.822        0.051      346.729       25.185      858.682
09/19/2013  15:58:00       32.816       -0.795       10.829       49.001       39.915       34.166     2401.119     1593.228     1167.293        0.318        0.258       32.826       25.249        0.592      346.530       24.844      858.674
09/19/2013  15:59:00       18.747      -47.060        2.174       26.919       56.430       20.969      724.635     3184.336      439.685        0.346        0.217       50.657       19.068        0.142      346.639       25.030      858.658
09/19/2013  16:00:00       20.857       -7.856       60.321       51.477       77.843       49.060     2649.905     6059.485     2406.869        0.762        0.556       22.288       40.305        3.270      346.718       25.167      858.647
09/19/2013  16:01:00      126.067      126.223      105.971      105.053       77.343       80.244    11036.127     5981.962     6439.037        3.325        1.173      178.396       66.405        0.139      346.444       24.692      858.634
09/19/2013  16:02:00       98.798       42.798       55.370      111.040       81.416       58.304    12329.825     6628.502     3399.398        1.850        1.118      107.670       47.311        0.193      346.645       25.040      858.623
09/19/2013  16:03:00       10.892       45.210       64.434       36.998       69.942       35.396     1368.841     4891.822     1252.881        0.691        0.376       46.504       38.598        0.689      346.805       25.317      858.627
09/19/2013  16:04:00      128.073      103.717       82.014       92.868       62.678       67.628     8624.484     3928.513     4573.590        2.550        0.856      164.803       62.842        0.145      346.406       24.629      858.628
09/19/2013  16:05:00       62.428      -64.977       37.906       75.332      115.447       50.152     5674.866    13327.982     2515.216        1.553        1.076       90.107       43.517        0.233      346.545       24.869      858.617
09/19/2013  16:06:00       67.222     -151.602      -25.590       49.607       64.696       39.737     2460.840     4185.560     1579.014        1.819        0.411      165.837       31.611        0.036      346.325       24.489      858.613
09/19/2013  16:07:00       54.221      -92.625       -3.545       43.334       57.205       32.569     1877.810     3272.380     1060.717        0.887        0.311      107.328       22.554        0.044      346.517       24.822      858.602
09/19/2013  16:08:00       77.033      -19.512       37.258       70.355       72.299       41.489     4949.757     5227.147     1721.356        0.980        0.595       79.466       51.123        0.414      346.604       24.971      858.583
09/19/2013  16:09:00       55.246      -50.311       21.801       66.761       95.301       58.819     4457.035     9082.230     3459.699        1.153        0.850       74.722       68.066        0.830      346.634       25.021      858.563
09/19/2013  16:10:00       36.930       44.078       51.084       33.537       38.110       48.779     1124.754     1452.353     2379.375        0.544        0.248       57.504       28.557        0.247      346.554       24.884      858.567
09/19/2013  16:11:00       34.066       47.019       60.539       35.987       43.356       24.219     1295.086     1879.758      586.574        0.540        0.188       58.063       23.728        0.167      346.524       24.833      858.554
09/19/2013  16:12:00       92.409       25.511       58.554       93.954       67.019       54.655     8827.341     4491.485     2987.115        1.446        0.815       95.865       40.429        0.178      346.502       24.794      858.525
09/19/2013  16:13:00      125.500       91.675       26.156      125.140       69.990       44.950    15659.902     4898.559     2020.527        2.370        1.129      155.417       26.573        0.029      346.653       25.054      858.491
09/19/2013  16:14:00      297.409      162.301       29.297       93.619       94.991       68.375     8764.491     9023.287     4675.185        6.905        1.123      338.812       42.112        0.015      346.373       24.569      858.480
09/19/2013  16:15:00      240.760      141.235       27.688       79.963       90.384       55.936     6394.079     8169.275     3128.882        4.818        0.885      279.129       38.594        0.019      346.437       24.682      858.475
09/19/2013  16:16:00      149.099       98.853       14.517      106.679       65.873       40.749    11380.323     4339.252     1660.510        2.479        0.869      178.892       21.397        0.014      346.486       24.768      858.486
09/19/2013  16:17:00       80.424      129.449      -11.427       84.582       90.253       53.526     7154.043     8145.691     2864.982        2.076        0.908      152.398       51.994        0.116      346.406       24.627      858.469
09/19/2013  16:18:00       42.986      135.115      -19.681       80.147      101.285       43.719     6423.485    10258.560     1911.334        1.954        0.930      141.788       48.172        0.115      346.368       24.564      858.459
09/19/2013  16:19:00       21.390      133.601       -7.114       39.337       97.566       47.879     1547.406     9519.115     2292.415        1.586        0.668      135.302       53.933        0.159      346.457       24.717      858.447
09/19/2013  16:20:00       72.461       68.803        7.770      110.970       68.700       41.355    12314.318     4719.648     1710.239        1.439        0.937       99.922       38.391        0.148      346.546       24.871      858.439
09/19/2013  16:21:00       83.241      101.916       25.852       73.970       57.757       57.428     5471.616     3335.887     3297.924        1.504        0.605      131.590       24.915        0.036      346.562       24.898      858.422
09/19/2013  16:22:00      125.778      111.536       10.590      104.275       84.570       69.238    10873.209     7152.069     4793.918        2.559        1.141      168.108       53.472        0.101      346.463       24.727      858.418
09/19/2013  16:23:00      222.444      167.864       -2.219       80.688       66.428       64.920     6510.505     4412.735     4214.610        4.640        0.757      278.675       51.823        0.035      346.296       24.437      858.419
09/19/2013  16:24:00      125.295       83.150       16.560       63.673       58.632       36.760     4054.207     3437.744     1351.272        1.586        0.442      150.375       31.976        0.045      346.277       24.407      858.411
09/19/2013  16:25:00      110.659       65.928       27.395       53.792       33.173       31.878     2893.555     1100.473     1016.190        1.118        0.251      128.810       17.266        0.018      346.357       24.546      858.382
09/19/2013  16:26:00      111.215       75.282        3.601       65.284       40.679       37.397     4261.998     1654.763     1398.508        1.268        0.366      134.298       17.898        0.018      346.416       24.647      858.377
09/19/2013  16:27:00      121.428       83.936       32.883      101.984       56.657       41.262    10400.737     3209.984     1702.521        1.909        0.766      147.615       18.856        0.016      346.523       24.829      858.383
09/19/2013  16:28:00       30.431       24.407        4.490       39.392       27.312       18.578     1551.727      745.925      345.152        0.209        0.132       39.009       10.098        0.067      346.590       24.946      858.374
09/19/2013  16:29:00       30.772      114.089       -6.506       45.715       73.260       40.423     2089.835     5367.024     1633.988        1.155        0.455      118.166       32.426        0.075      346.699       25.134      858.371
09/19/2013  16:30:00        4.622      292.500      -45.766       29.822       64.114       34.353      889.373     4110.552     1180.112        4.692        0.309      292.536       29.723        0.010      346.477       24.749      858.365
09/19/2013  16:31:00       44.525       91.664        2.238       73.018       60.191       52.961     5331.559     3622.978     2804.889        1.107        0.588      101.906       38.757        0.145      346.487       24.771      858.347
09/19/2013  16:32:00       80.926       50.190        2.808       75.365       45.331       35.068     5679.944     2054.931     1229.790        0.902        0.448       95.227       20.519        0.046      346.480       24.758      858.340
09/19/2013  16:33:00       95.251       88.045        0.134       68.104       41.099       43.768     4638.189     1689.145     1915.636        1.253        0.412      129.710       23.972        0.034      346.576       24.925      858.349
09/19/2013  16:34:00       85.386      106.470        7.190       90.932       79.449       51.684     8268.556     6312.086     2671.227        1.796        0.863      136.479       46.408        0.116      346.667       25.078      858.341
09/19/2013  16:35:00      198.388      155.214       17.236      146.507      103.354       89.838    21464.402    10682.086     8070.899        5.197        2.011      251.891       67.659        0.072      346.612       24.981      858.320
09/19/2013  16:36:00      209.724      139.411       14.022      111.175      105.799       52.889    12359.922    11193.401     2797.219        4.498        1.318      251.833       37.939        0.023      346.584       24.935      858.325
09/19/2013  16:37:00      234.576      159.909       41.467       74.016       59.795       63.336     5478.409     3575.454     4011.498        4.769        0.653      283.896       35.121        0.015      346.419       24.649      858.297
09/19/2013  16:38:00      212.707      104.695       18.426       96.432       77.177       56.327     9299.135     5956.291     3172.756        3.748        0.921      237.077       46.992        0.039      346.431       24.670      858.266
09/19/2013  16:39:00       74.807       45.529       30.903       82.453       63.013       54.524     6798.533     3970.596     2972.868        1.118        0.687       87.572       47.396        0.293      346.444       24.695      858.252
09/19/2013  16:40:00      104.246       35.540       23.531      110.613       78.743       58.603    12235.209     6200.490     3434.300        1.727        1.093      110.138       34.350        0.097      346.448       24.702      858.241
09/19/2013  16:41:00      176.971       90.336       95.520      126.501      134.720       95.804    16002.476    18149.570     9178.417        4.596        2.167      198.694       77.112        0.151      346.594       24.952      858.216
09/19/2013  16:42:00      169.602       87.842       64.472      124.560       95.237       81.212    15515.237     9070.046     6595.338        3.590        1.559      191.000       73.212        0.147      346.537       24.853      858.232
09/19/2013  16:43:00      147.786       90.006       77.537      101.047       86.677       74.313    10210.423     7512.855     5522.397        2.960        1.162      173.037       35.371        0.042      346.550       24.877      858.232
09/19/2013  16:44:00      148.455       77.386       30.873       76.176       53.951       64.281     5802.762     2910.671     4132.024        2.091        0.642      167.414       39.391        0.055      346.537       24.855      858.243
09/19/2013  16:45:00      167.740      115.784       22.602       83.878       84.063       45.090     7035.600     7066.666     2033.074        2.909        0.807      203.821       27.077        0.018      346.591       24.945      858.243
09/19/2013  16:46:00      256.828      119.180       48.362       90.490       68.063       62.202     8188.391     4632.610     3869.068        4.959        0.835      283.133       45.744        0.026      346.497       24.782      858.244
09/19/2013  16:47:00      142.245       65.275       -0.629       71.165       64.679       45.937     5064.484     4183.330     2110.171        1.792        0.568      156.507       36.067        0.053      346.434       24.677      858.256
09/19/2013  16:48:00       85.112      122.612       -5.403       85.888       58.051       44.407     7376.785     3369.875     1971.956        1.751        0.636      149.257       34.915        0.055      346.490       24.773      858.252
09/19/2013  16:49:00      132.205      107.040       11.887      119.067       63.675       47.929    14176.924     4054.563     2297.183        2.480        1.026      170.105       53.318        0.098      346.576       24.919      858.245
09/19/2013  16:50:00      165.031       82.298       26.324       70.952       55.680       39.844     5034.143     3100.239     1587.518        2.221        0.486      184.413       30.114        0.027      346.555       24.885      858.251
09/19/2013  16:51:00       32.583       33.468       34.069       36.991       38.638       24.410     1368.361     1492.871      595.871        0.340        0.173       46.709       21.373        0.209      346.560       24.895      858.244
09/19/2013  16:52:00        4.433       16.124       15.360       25.593       51.084       17.760      654.978     2609.542      315.408        0.205        0.179       16.723       14.854        0.789      346.651       25.052      858.227
09/19/2013  16:53:00       46.794       56.260       -0.500       87.356       50.835       29.355     7631.084     2584.175      861.736        0.821        0.554       73.177       26.105        0.127      346.692       25.122      858.223
09/19/2013  16:54:00      157.607      108.289       22.602       81.462       61.636       49.700     6636.029     3799.012     2470.134        2.499        0.645      191.224       37.824        0.039      346.541       24.860      858.208
09/19/2013  16:55:00       42.322      106.815        6.379       67.943       97.081       48.252     4616.277     9424.630     2328.296        1.480        0.818      114.894       57.643        0.252      346.562       24.897      858.205
09/19/2013  16:56:00      155.831       78.931       11.137       51.990       50.047       36.863     2702.936     2504.661     1358.911        1.860        0.328      174.681       17.051        0.010      346.559       24.893      858.198
09/19/2013  16:57:00       79.874      101.483       -7.754       78.276       75.527       46.807     6127.061     5704.400     2190.929        1.538        0.701      129.146       39.260        0.092      346.581       24.929      858.186
09/19/2013  16:58:00       73.521      134.169        0.807       83.561       82.862       66.978     6982.384     6866.062     4486.105        2.087        0.917      152.992       56.636        0.137      346.403       24.623      858.176
09/19/2013  16:59:00       37.826      290.695      -40.760       69.201       94.943       48.997     4788.736     9014.153     2400.706        5.190        0.810      293.146       57.818        0.039      346.405       24.623      858.161
09/19/2013  17:00:00      122.591      145.863        6.792      115.859       79.963       63.659    13423.370     6394.118     4052.419        3.011        1.193      190.537       47.536        0.062      346.463       24.727      858.157
09/19/2013  17:01:00      176.892      114.238       19.137       57.965       57.280       41.487     3359.923     3281.019     1721.172        2.653        0.418      210.574       21.413        0.010      346.396       24.611      858.146
09/19/2013  17:02:00       36.964       40.033        0.872       39.518       35.916       17.548     1561.680     1289.969      307.945        0.306        0.158       54.488       20.122        0.136      346.453       24.712      858.135
09/19/2013  17:03:00        9.098       54.406      -10.473       33.095       50.921       17.444     1095.309     2592.993      304.307        0.357        0.200       55.161       23.653        0.184      346.521       24.828      858.132
09/19/2013  17:04:00       78.883       73.965        9.517       88.345       35.182       35.520     7804.754     1237.774     1261.668        1.104        0.515      108.136       19.246        0.032      346.568       24.909      858.142
09/19/2013  17:05:00       17.267      101.023       -0.783       47.330       59.212       39.199     2240.141     3506.034     1536.545        0.889        0.364      102.488       37.678        0.135      346.606       24.973      858.135
09/19/2013  17:06:00       55.682       71.954       -9.054       33.716       42.879       25.349     1136.762     1838.649      642.595        0.599        0.181       90.983       22.632        0.062      346.391       24.604      858.144
09/19/2013  17:07:00       45.795       25.262       12.413       27.379       30.804       20.152      749.594      948.876      406.101        0.250        0.105       52.301       12.240        0.055      346.364       24.557      858.133
09/19/2013  17:08:00       41.276       -6.414        3.451       22.576       36.684       16.691      509.687     1345.711      278.593        0.194        0.107       41.771       10.774        0.067      346.278       24.411      858.135
09/19/2013  17:09:00       50.163       73.896        8.694       59.096       37.645       36.138     3492.299     1417.160     1305.950        0.713        0.311       89.314       28.146        0.099      346.626       25.009      858.131
09/19/2013  17:10:00      132.184       85.041       24.379       87.306       67.526       48.342     7622.311     4559.717     2336.926        1.991        0.726      157.176       31.889        0.041      346.616       24.990      858.130
09/19/2013  17:11:00       51.280       89.654       -2.430       48.572       56.485       42.573     2359.239     3190.501     1812.488        0.902        0.368      103.284       34.689        0.113      346.455       24.714      858.128
09/19/2013  17:12:00      130.068       91.741       11.802       53.877       48.224       35.415     2902.736     2325.518     1254.200        1.598        0.324      159.167       27.427        0.030      346.417       24.648      858.101
09/19/2013  17:13:00       82.674       85.563        5.351       67.696       49.097       33.759     4582.725     2410.490     1139.668        1.116        0.407      118.979       26.764        0.051      346.452       24.710      858.090
09/19/2013  17:14:00      122.506      100.792        5.102       87.517       62.148       47.416     7659.256     3862.322     2248.315        1.948        0.688      158.640       35.923        0.051      346.477       24.753      858.072
09/19/2013  17:15:00       56.005      148.172      -19.594       68.288       69.880       49.870     4663.211     4883.183     2486.998        1.875        0.602      158.403       44.584        0.079      346.512       24.811      858.073
09/19/2013  17:16:00       51.713      103.619        0.634       62.280       58.499       45.992     3878.785     3422.102     2115.238        1.141        0.471      115.807       40.183        0.120      346.514       24.817      858.077
09/19/2013  17:17:00       65.604       74.324        5.152       38.260       36.068       34.394     1463.801     1300.912     1182.913        0.690        0.197       99.136       23.122        0.054      346.593       24.952      858.084
09/19/2013  17:18:00       69.412       48.627       11.471       64.722       67.857       50.377     4188.971     4604.576     2537.860        0.932        0.567       84.750       42.912        0.256      346.641       25.034      858.084
09/19/2013  17:19:00      111.686       84.264       32.929       80.514       60.984       49.668     6482.437     3719.007     2466.863        1.666        0.633      139.908       19.333        0.019      346.694       25.126      858.083
09/19/2013  17:20:00       53.300       52.441       70.631       65.909       53.442       44.882     4344.046     2856.052     2014.377        0.990        0.461       74.773       41.034        0.301      346.542       24.863      858.080
09/19/2013  17:21:00      106.121       67.268       51.347       49.014       42.534       48.312     2402.363     1809.115     2334.031        1.248        0.327      125.645       29.128        0.054      346.548       24.876      858.090
09/19/2013  17:22:00      154.769      102.746       10.313       85.818       59.302       51.508     7364.697     3516.677     2653.121        2.407        0.677      185.769       36.822        0.039      346.655       25.057      858.088
09/19/2013  17:23:00      109.158       64.558       34.632       57.347       42.156       34.522     3288.672     1777.102     1191.774        1.177        0.313      126.819       27.630        0.047      346.707       25.147      858.097
09/19/2013  17:24:00       82.103       59.939       38.118       47.758       35.486       32.795     2280.792     1259.259     1075.516        0.820        0.231      101.654       16.683        0.027      346.587       24.943      858.097
09/19/2013  17:25:00      120.159       71.158        8.738       40.179       32.483       32.623     1614.344     1055.169     1064.272        1.166        0.187      139.649        9.612        0.005      346.727       25.184      858.083
09/19/2013  17:26:00      111.355       61.439       30.049       81.662       55.578       44.867     6668.747     3088.915     2013.037        1.442        0.589      127.180       21.947        0.030      346.698       25.132      858.076
09/19/2013  17:27:00      123.161       70.089       36.327       59.096       46.378       33.253     3492.303     2150.922     1105.742        1.407        0.337      141.708       25.828        0.033      346.681       25.102      858.061
09/19/2013  17:28:00      109.233       65.829       51.310       79.000       57.153       50.060     6241.070     3266.431     2505.996        1.545        0.601      127.536       26.183        0.042      346.533       24.848      858.061
09/19/2013  17:29:00      120.518       39.994       24.849       71.715       63.726       47.360     5143.018     4060.943     2242.956        1.409        0.572      126.981       19.511        0.024      346.622       25.000      858.056
09/19/2013  17:30:00       95.620       62.914       58.973       73.282       64.963       44.853     5370.320     4220.192     2011.805        1.409        0.580      114.461       44.093        0.148      346.597       24.960      858.048
09/19/2013  17:31:00       85.876       38.188       29.747       47.295       37.740       32.021     2236.772     1424.285     1025.326        0.720        0.234       93.984       23.475        0.062      346.454       24.713      858.043
09/19/2013  17:32:00       70.988       23.797       38.638       54.586       47.959       46.302     2979.624     2300.088     2143.862        0.726        0.371       74.871       34.931        0.218      346.345       24.526      858.035
09/19/2013  17:33:00       70.730       20.681       19.629       47.147       53.993       32.847     2222.845     2915.198     1078.899        0.602        0.311       73.691       26.047        0.125      346.618       24.995      858.038
09/19/2013  17:34:00      112.345      109.157       25.348       73.547       76.297       56.944     5409.127     5821.210     3242.567        1.982        0.724      156.641       47.994        0.094      346.627       25.010      858.039
09/19/2013  17:35:00      215.267      130.763       21.331      100.461       62.625       60.650    10092.493     3921.894     3678.370        4.079        0.885      251.870       26.129        0.011      346.572       24.914      858.047
09/19/2013  17:36:00      197.914      135.243       34.595      119.343       84.721       53.577    14242.639     7177.611     2870.500        4.147        1.215      239.710       21.973        0.008      346.610       24.979      858.042
09/19/2013  17:37:00      145.177       88.904       24.166       82.585       61.309       45.764     6820.348     3758.816     2094.316        2.112        0.634      170.236       32.596        0.037      346.589       24.943      858.053
09/19/2013  17:38:00      234.395      108.764       43.179      100.462       88.067       61.930    10092.519     7755.865     3835.360        4.516        1.084      258.400       33.536        0.017      346.521       24.826      858.052
09/19/2013  17:39:00      133.197       83.426       23.081       82.886       45.011       44.991     6870.153     2026.023     2024.235        1.808        0.546      157.167       27.991        0.032      346.502       24.795      858.051
09/19/2013  17:40:00      179.297      109.251        7.324       71.296       46.694       38.357     5083.091     2180.287     1471.295        2.643        0.437      209.959       19.173        0.008      346.532       24.845      858.045
09/19/2013  17:41:00      119.513       16.479       28.652       69.724       55.687       45.618     4861.440     3101.012     2080.997        1.271        0.502      120.644       27.999        0.054      346.510       24.808      858.045
09/19/2013  17:42:00       97.941       37.623       60.431       77.425       65.441       43.009     5994.565     4282.576     1849.813        1.339        0.606      104.919       38.152        0.132      346.480       24.756      858.036
09/19/2013  17:43:00      138.800       82.092       28.372       89.127       62.238       41.933     7943.615     3873.553     1758.345        2.019        0.679      161.259       20.359        0.016      346.505       24.800      858.039
09/19/2013  17:44:00      237.989      164.497       35.033       81.053       63.171       62.564     6569.524     3990.550     3914.243        4.970        0.724      289.306       39.933        0.019      346.514       24.813      858.026
09/19/2013  17:45:00      143.059       77.111       29.614       92.441       68.122       48.833     8545.349     4640.628     2384.665        2.143        0.779      162.517       34.633        0.045      346.531       24.844      858.019
09/19/2013  17:46:00      124.608       40.750       32.293       85.791       61.063       45.482     7360.100     3728.681     2068.610        1.569        0.658      131.102       43.742        0.111      346.593       24.950      858.025
09/19/2013  17:47:00      102.013       69.525       17.035       75.164       65.559       45.079     5649.689     4297.954     2032.090        1.375        0.599      123.452       29.136        0.056      346.575       24.921      858.034
09/19/2013  17:48:00       74.179       82.939        3.040       82.233       51.314       58.292     6762.299     2633.136     3398.008        1.259        0.640      111.271       52.085        0.219      346.533       24.847      858.027
09/19/2013  17:49:00      130.704       99.024        8.423       89.053       79.426       57.553     7930.454     6308.492     3312.369        2.225        0.878      163.979       29.678        0.033      346.463       24.727      858.021
09/19/2013  17:50:00      188.336      134.351       21.083      122.981       72.948       53.675    15124.443     5321.340     2880.970        3.864        1.166      231.345       49.646        0.046      346.456       24.714      858.013
09/19/2013  17:51:00      186.496      108.199       22.601       83.475       68.815       43.815     6968.086     4735.520     1919.741        3.031        0.681      215.610       27.818        0.017      346.476       24.749      858.012
09/19/2013  17:52:00      146.979       56.206       26.865       84.146       73.108       53.966     7080.477     5344.780     2912.377        2.041        0.767      157.359       42.063        0.071      346.489       24.773      858.024
09/19/2013  17:53:00       77.588        0.408       23.983       94.174       51.026       39.384     8868.724     2603.672     1551.113        0.981        0.651       77.589       25.538        0.108      346.388       24.601      858.026
09/19/2013  17:54:00       97.206       53.878       54.884       63.095       55.642       48.685     3980.975     3095.995     2370.262        1.240        0.472      111.139       36.855        0.110      346.393       24.607      858.029
09/19/2013  17:55:00      149.796       79.695       31.025       60.572       61.407       38.126     3668.992     3770.802     1453.621        1.932        0.445      169.677       24.991        0.022      346.482       24.760      858.025
09/19/2013  17:56:00      178.997      107.465       43.659       68.789       55.704       54.418     4731.951     3102.991     2961.270        2.814        0.540      208.779       33.363        0.026      346.433       24.674      858.021
09/19/2013  17:57:00      117.520       65.152       27.765       63.126       58.767       45.012     3984.861     3453.608     2026.052        1.414        0.473      134.371       12.857        0.009      346.374       24.575      858.016
09/19/2013  17:58:00      132.899       97.672       54.297       56.046       48.389       53.259     3141.164     2341.538     2836.486        1.923        0.416      164.930       41.499        0.063      346.390       24.602      858.016
09/19/2013  17:59:00      129.407       67.764       43.134       58.526       53.848       45.575     3425.264     2899.576     2077.102        1.580        0.420      146.075       30.299        0.043      346.441       24.690      858.012
09/19/2013  18:00:00       63.225       32.178       33.360       58.742       48.353       28.617     3450.586     2338.019      818.961        0.638        0.330       70.942       21.272        0.090      346.277       24.409      858.010
09/19/2013  18:01:00      138.760       50.822       36.644       69.853       71.920       51.153     4879.427     5172.498     2616.669        1.792        0.633      147.774       27.786        0.035      346.394       24.609      858.007
09/19/2013  18:02:00       42.603       41.829       40.227       49.273       39.645       31.183     2427.797     1571.726      972.380        0.508        0.249       59.705       19.223        0.104      346.244       24.353      858.009
09/19/2013  18:03:00      189.767       85.878       61.553       88.247       67.571       55.768     7787.504     4565.889     3110.086        3.132        0.773      208.294       43.699        0.044      346.291       24.430      858.001
09/19/2013  18:04:00      153.091      101.628       76.652       92.837       64.661       72.343     8618.748     4181.020     5233.532        2.883        0.902      183.753       64.291        0.122      346.364       24.556      857.990
09/19/2013  18:05:00      194.538      110.514       35.075       83.185       89.376       62.488     6919.716     7988.046     3904.746        3.505        0.941      223.737       37.307        0.028      346.379       24.580      857.979
09/19/2013  18:06:00      134.907       67.160       20.103       75.673       62.502       55.757     5726.384     3906.538     3108.868        1.793        0.637      150.699       18.302        0.015      346.344       24.523      857.978
09/19/2013  18:07:00      179.039       88.029       43.259       91.737       68.158       57.448     8415.646     4645.451     3300.327        2.902        0.818      199.509       42.526        0.045      346.309       24.461      857.968
09/19/2013  18:08:00      215.137      123.163       44.692       87.635       77.875       58.713     7679.910     6064.571     3447.163        4.032        0.860      247.897       43.679        0.031      346.341       24.516      857.959
09/19/2013  18:09:00      156.917       81.803       52.482       59.372       63.459       56.672     3525.042     4027.055     3211.692        2.241        0.538      176.960       34.994        0.039      346.297       24.442      857.956
09/19/2013  18:10:00       61.460       44.302        3.909       51.782       49.474       40.195     2681.365     2447.664     1615.669        0.625        0.337       75.763       34.306        0.205      346.274       24.404      857.949
09/19/2013  18:11:00       88.826       57.219        9.597       44.510       30.999       36.023     1981.157      960.908     1297.681        0.775        0.212      105.660       16.811        0.025      346.315       24.474      857.954
09/19/2013  18:12:00      100.232       31.560       20.885       54.437       49.117       36.349     2963.436     2412.464     1321.268        0.909        0.335      105.083       20.223        0.037      346.229       24.326      857.958
09/19/2013  18:13:00       97.065       62.303       35.993       55.018       62.777       37.595     3026.947     3940.935     1413.393        1.149        0.419      115.340       25.640        0.049      346.263       24.384      857.952
09/19/2013  18:14:00      127.158       52.262       45.631       76.323       49.814       46.544     5825.236     2481.476     2166.379        1.573        0.524      137.479       34.626        0.063      346.276       24.406      857.956
09/19/2013  18:15:00      134.919       61.505       49.390      111.181       59.013       47.705    12361.253     3482.592     2275.792        2.127        0.906      148.277       51.005        0.118      346.192       24.260      857.943
09/19/2013  18:16:00      100.312       74.023       61.576       99.074       70.091       53.739     9815.686     4912.743     2887.913        1.847        0.881      124.667       41.801        0.112      346.169       24.222      857.953
09/19/2013  18:17:00      147.913       61.109       12.967       98.053       69.897       42.841     9614.296     4885.630     1835.379        2.105        0.817      160.040       28.248        0.031      346.229       24.324      857.962
09/19/2013  18:18:00      130.751       74.706        9.234       62.199       46.528       39.303     3868.736     2164.869     1544.758        1.517        0.379      150.588       16.210        0.012      346.177       24.236      857.977
09/19/2013  18:19:00      145.289      101.015       17.525       69.303       49.453       42.281     4802.895     2445.589     1787.682        2.033        0.452      176.955       22.522        0.016      346.245       24.352      857.984
09/19/2013  18:20:00      113.390       56.697       22.066       72.013       54.217       35.802     5185.867     2939.473     1281.779        1.298        0.470      126.775       22.632        0.032      346.205       24.285      857.996
09/19/2013  18:21:00      126.631       83.223       40.637       93.938       58.953       29.714     8824.368     3475.469      882.933        1.890        0.659      151.531       29.700        0.038      346.196       24.267      858.003
09/19/2013  18:22:00       58.443       29.088       22.988       38.032       25.559       25.632     1446.420      653.265      656.997        0.377        0.138       65.282       13.877        0.045      345.982       23.903      858.009
09/19/2013  18:23:00      103.282       57.422       19.364       61.627       44.335       35.660     3797.899     1965.573     1271.602        1.069        0.352      118.171       34.153        0.084      346.063       24.040      858.013
09/19/2013  18:24:00       88.520       52.558       10.051       60.676       45.312       39.568     3681.597     2053.204     1565.653        0.900        0.365      102.947       18.614        0.033      346.134       24.163      858.013
09/19/2013  18:25:00       70.701       23.273       10.864       45.530       43.364       25.416     2073.001     1880.452      645.995        0.513        0.230       74.433        7.933        0.011      346.075       24.060      858.016
09/19/2013  18:26:00      141.479       61.050       35.301       92.662       58.618       55.712     8586.221     3436.040     3103.855        2.005        0.756      154.089       43.279        0.079      346.173       24.227      858.018
09/19/2013  18:27:00      133.203       71.913       28.189       58.022       50.049       43.814     3366.501     2504.917     1919.676        1.575        0.390      151.376       33.903        0.050      346.134       24.163      858.019
09/19/2013  18:28:00      112.037       55.979       10.181       64.313       52.296       40.278     4136.161     2734.909     1622.326        1.214        0.425      125.244       37.707        0.091      346.111       24.123      858.023
09/19/2013  18:29:00      200.140      101.443       29.494       81.458       65.879       39.699     6635.348     4340.023     1575.995        3.188        0.628      224.381       37.293        0.028      346.128       24.149      858.022
09/19/2013  18:30:00      136.223       92.957       16.374       77.335       62.355       38.539     5980.733     3888.166     1485.268        1.941        0.568      164.918       35.655        0.047      346.090       24.085      858.022
09/19/2013  18:31:00      148.778       73.188       23.367       69.483       51.465       31.528     4827.904     2648.622      994.028        1.825        0.424      165.805       21.341        0.017      346.074       24.059      858.022
09/19/2013  18:32:00      132.164       93.854       19.537       58.097       39.618       36.517     3375.299     1569.569     1333.463        1.647        0.314      162.098       13.787        0.007      346.123       24.143      858.026
09/19/2013  18:33:00      114.821       72.235       25.161       40.299       30.178       25.295     1623.982      910.723      639.845        1.110        0.159      135.654       19.737        0.021      346.102       24.108      858.036
09/19/2013  18:34:00       65.757       55.111        4.639       44.266       36.899       30.655     1959.521     1361.547      939.749        0.582        0.213       85.797       26.705        0.097      346.062       24.039      858.042
09/19/2013  18:35:00       87.574       61.355        8.103       40.349       34.117       25.865     1628.051     1163.937      669.006        0.748        0.173      106.929       16.471        0.024      346.004       23.940      858.049
09/19/2013  18:36:00      116.107       93.346        3.481       57.870       37.675       36.357     3348.991     1419.419     1321.805        1.415        0.305      148.978       25.493        0.029      346.035       23.992      858.052
09/19/2013  18:37:00       92.438       67.465       15.855       50.954       33.421       27.511     2596.347     1116.942      756.871        0.891        0.224      114.439       16.896        0.022      345.998       23.929      858.059
09/19/2013  18:38:00       39.378       62.948        6.129       30.094       40.029       27.327      905.635     1602.312      746.790        0.440        0.163       74.250       28.504        0.147      345.953       23.852      858.081
09/19/2013  18:39:00       47.674       45.183        8.101       42.666       32.782       23.161     1820.398     1074.689      536.444        0.391        0.172       65.684       17.051        0.067      345.871       23.711      858.080
09/19/2013  18:40:00      106.683       72.648       24.277       57.892       35.266       29.680     3351.506     1243.657      880.882        1.136        0.274      129.070       19.511        0.023      345.939       23.826      858.076
09/19/2013  18:41:00       87.365       51.578       11.505       44.042       31.428       26.826     1939.674      987.706      719.609        0.704        0.182      101.454       18.979        0.035      345.918       23.793      858.071
09/19/2013  18:42:00       99.268       61.093       17.896       39.153       28.010       26.837     1532.956      784.587      720.200        0.847        0.152      116.561       16.132        0.019      345.857       23.688      858.070
09/19/2013  18:43:00       96.802       80.160       11.205       47.682       29.608       25.381     2273.532      876.656      644.170        0.986        0.190      125.684       15.484        0.015      345.852       23.681      858.071
09/19/2013  18:44:00       74.160       52.276       13.571       46.191       28.955       21.675     2133.620      838.383      469.822        0.593        0.172       90.733       17.563        0.037      345.794       23.580      858.083
09/19/2013  18:45:00      110.568       66.286       14.923       28.831       25.884       20.338      831.221      669.971      413.620        0.938        0.096      128.915        7.965        0.004      345.781       23.556      858.080
09/19/2013  18:46:00       71.283       52.350        8.745       46.262       38.719       25.290     2140.137     1499.128      639.597        0.609        0.214       88.441       20.339        0.053      345.660       23.348      858.083
09/19/2013  18:47:00      138.812       91.105       28.218       74.047       52.504       43.499     5483.026     2756.667     1892.175        1.925        0.507      166.039       34.325        0.043      345.739       23.483      858.074
09/19/2013  18:48:00      115.438       81.410       10.688       57.707       37.258       38.636     3330.072     1388.189     1492.743        1.314        0.311      141.257       25.079        0.032      345.701       23.420      858.086
09/19/2013  18:49:00      104.813       86.791       12.697       54.940       45.547       32.072     3018.362     2074.551     1028.595        1.240        0.306      136.082       23.362        0.029      345.667       23.363      858.085
09/19/2013  18:50:00       67.412       33.422       24.457       59.086       33.686       33.830     3491.212     1134.732     1144.477        0.601        0.289       75.243       21.168        0.079      345.591       23.232      858.076
09/19/2013  18:51:00       54.321       65.838        6.445       40.151       40.169       31.313     1612.130     1613.511      980.475        0.577        0.210       85.355       23.700        0.077      345.614       23.271      858.080
09/19/2013  18:52:00       79.238       87.105       -0.173       72.177       50.241       34.874     5209.533     2524.164     1216.171        1.141        0.447      117.753       22.711        0.037      345.603       23.250      858.081
09/19/2013  18:53:00      117.578       83.257       29.133       43.004       33.197       38.916     1849.378     1102.031     1514.421        1.303        0.223      144.071       21.455        0.022      345.661       23.350      858.080
09/19/2013  18:54:00       94.155       71.890        6.425       44.984       48.338       43.253     2023.570     2336.600     1870.787        1.015        0.312      118.463       33.534        0.080      345.658       23.345      858.076
09/19/2013  18:55:00       66.879       73.917        9.543       45.070       38.102       38.343     2031.292     1451.766     1470.218        0.749        0.248       99.682       28.678        0.083      345.580       23.212      858.078
09/19/2013  18:56:00       79.989       65.033       17.913       51.164       35.942       33.128     2617.790     1291.822     1097.440        0.798        0.250      103.090       24.274        0.055      345.522       23.112      858.088
09/19/2013  18:57:00      114.513       54.729       28.990       58.260       29.341       35.124     3394.215      860.917     1233.692        1.122        0.274      126.920       21.417        0.028      345.567       23.190      858.080
09/19/2013  18:58:00      108.951       69.178       14.527       37.426       31.575       28.807     1400.716      996.990      829.858        1.005        0.161      129.057       17.797        0.019      345.480       23.039      858.080
09/19/2013  18:59:00      124.146       87.813       13.475       46.350       27.244       31.869     2148.286      742.243     1015.614        1.360        0.195      152.064       24.409        0.026      345.520       23.109      858.080
09/19/2013  19:00:00      109.106       77.230        0.897       41.107       27.855       29.776     1689.824      775.898      886.620        1.061        0.168      133.673       24.688        0.034      345.446       22.981      858.099
09/19/2013  19:01:00       96.505       57.538       12.089       32.747       27.383       29.390     1072.344      749.840      863.747        0.773        0.134      112.356       19.421        0.030      345.418       22.933      858.098
09/19/2013  19:02:00       62.600       59.557       -0.481       40.397       39.387       26.766     1631.928     1551.337      716.394        0.568        0.195       86.404       23.654        0.075      345.387       22.882      858.105
09/19/2013  19:03:00       67.963       48.592       16.652       47.995       32.333       28.976     2303.506     1045.401      839.596        0.572        0.209       83.547       18.177        0.047      345.386       22.878      858.110
09/19/2013  19:04:00      148.188      111.316       26.149       63.823       35.183       30.195     4073.419     1237.878      911.739        2.063        0.311      185.340       18.560        0.010      345.572       23.197      858.102
09/19/2013  19:05:00      101.249       73.913       15.308       41.253       32.080       32.081     1701.812     1029.098     1029.195        0.985        0.188      125.357       23.117        0.034      345.474       23.030      858.112
09/19/2013  19:06:00       84.463       57.789       21.435       33.691       23.430       26.902     1135.110      548.945      723.724        0.667        0.120      102.341       15.893        0.024      345.375       22.859      858.110
09/19/2013  19:07:00       94.119       63.564       18.537       29.982       26.311       29.552      898.944      692.248      873.323        0.785        0.123      113.573       20.395        0.032      345.401       22.905      858.109
09/19/2013  19:08:00       90.009       70.653       14.860       38.183       28.333       32.205     1457.926      802.735     1037.182        0.831        0.165      114.427       20.257        0.031      345.408       22.916      858.118
09/19/2013  19:09:00       69.646       52.328        6.523       33.192       25.308       21.728     1101.690      640.471      472.109        0.492        0.111       87.113       11.681        0.018      345.392       22.889      858.111
09/19/2013  19:10:00       68.378       42.446       10.699       33.239       28.410       17.788     1104.828      807.146      316.408        0.441        0.111       80.481       10.729        0.018      345.411       22.923      858.119
09/19/2013  19:11:00      111.110       75.684       17.411       50.570       40.176       31.620     2557.374     1614.077      999.824        1.177        0.259      134.437       23.504        0.031      345.480       23.038      858.117
09/19/2013  19:12:00       26.372       30.768       10.294       28.889       31.254       24.279      834.572      976.796      589.464        0.207        0.120       40.524       15.344        0.143      345.260       22.663      858.109
09/19/2013  19:13:00       24.590       42.724        6.594       28.407       27.137       21.465      806.970      736.410      460.728        0.224        0.100       49.295       16.184        0.108      345.219       22.593      858.102
09/19/2013  19:14:00       30.885       41.004       13.155       34.411       35.594       31.470     1184.096     1266.954      990.341        0.312        0.172       51.334       28.144        0.301      345.185       22.535      858.096
09/19/2013  19:15:00       51.597       37.165        6.318       47.747       27.849       17.350     2279.796      775.555      301.030        0.372        0.168       63.589       13.984        0.048      345.135       22.449      858.105
09/19/2013  19:16:00       67.262       50.755        7.111       37.465       22.701       23.203     1403.658      515.322      538.395        0.480        0.123       84.263       21.834        0.067      345.136       22.451      858.099
09/19/2013  19:17:00       67.092       49.799       22.305       45.495       26.476       25.944     2069.763      700.984      673.077        0.546        0.172       83.554       18.263        0.048      345.144       22.464      858.102
09/19/2013  19:18:00       93.048       58.677       15.551       23.293       25.354       22.657      542.549      642.822      513.328        0.702        0.085      110.004       15.240        0.019      345.222       22.598      858.105
09/19/2013  19:19:00       93.135       64.956       16.199       37.864       20.487       23.156     1433.654      419.734      536.191        0.777        0.119      113.549       12.853        0.013      345.304       22.737      858.108
09/19/2013  19:20:00       36.212       49.917       -2.553       28.581       27.137       20.583      816.897      736.436      423.657        0.289        0.099       61.669       15.683        0.065      345.168       22.506      858.103
09/19/2013  19:21:00       32.713       39.741        4.162       32.526       25.015       16.517     1057.928      625.758      272.813        0.231        0.098       51.473       15.743        0.094      345.197       22.556      858.106
09/19/2013  19:22:00       25.009       26.795       -1.564       28.541       18.484       16.020      814.599      341.672      256.638        0.138        0.071       36.653        9.164        0.063      345.175       22.519      858.099
09/19/2013  19:23:00       53.915       30.547       16.324       30.725       26.731       20.310      944.039      714.551      412.511        0.309        0.104       61.967       11.576        0.035      345.052       22.308      858.100
09/19/2013  19:24:00       52.511       30.479        8.126       34.698       16.968       11.115     1203.935      287.924      123.547        0.268        0.081       60.716        7.630        0.016      345.234       22.619      858.095
09/19/2013  19:25:00        7.634       25.348        5.125       20.401       24.234       17.182      416.188      587.281      295.209        0.101        0.065       26.472       15.615        0.348      345.113       22.412      858.094
09/19/2013  19:26:00       16.339       52.350       -8.596       25.826       20.219       13.031      666.992      408.808      169.805        0.216        0.062       54.840        9.516        0.030      345.303       22.736      858.093
09/19/2013  19:27:00       18.972       66.508       -4.466       23.609       36.291       20.219      557.386     1317.037      408.793        0.354        0.114       69.162       23.815        0.119      345.279       22.696      858.096
09/19/2013  19:28:00       17.185       76.861       -6.668       20.906       26.187       12.658      437.062      685.761      160.214        0.376        0.064       78.759       12.961        0.027      345.317       22.761      858.088
09/19/2013  19:29:00        2.443       88.961       -7.672       14.138       16.168        6.100      199.890      261.412       37.215        0.424        0.025       88.994        3.794        0.002      345.259       22.662      858.095
09/19/2013  19:30:00        9.682      102.516      -16.937       15.881       14.331        9.779      252.195      205.381       95.624        0.572        0.028      102.972        7.717        0.006      345.402       22.906      858.098
09/19/2013  19:31:00       13.581      117.741      -19.929       17.270       13.049        7.976      298.264      170.281       63.624        0.749        0.027      118.522        5.316        0.002      345.390       22.887      858.106
09/19/2013  19:32:00       17.774      109.048      -16.373       16.967       14.955        8.047      287.892      223.664       64.752        0.653        0.029      110.487        5.265        0.002      345.338       22.796      858.100
09/19/2013  19:33:00        0.010       86.116      -11.321       16.749       15.554        9.414      280.528      241.913       88.625        0.408        0.031       86.116        7.427        0.007      345.240       22.628      858.113
09/19/2013  19:34:00      -25.336       78.070      -15.237       18.490       17.961       10.364      341.898      322.603      107.408        0.387        0.039       82.078        8.928        0.012      345.157       22.488      858.115
09/19/2013  19:35:00      -36.373       28.895       -9.919       17.435       16.653       10.598      303.994      277.311      112.308        0.147        0.035       46.453        6.080        0.017      345.093       22.378      858.119
09/19/2013  19:36:00      -35.622       77.187      -15.688       20.937       19.610       10.092      438.363      384.558      101.857        0.420        0.046       85.010        5.382        0.004      345.085       22.363      858.133
09/19/2013  19:37:00      -31.699       78.589      -16.330       22.106       19.145       10.494      488.657      366.532      110.130        0.421        0.048       84.741        6.805        0.006      345.097       22.384      858.136
09/19/2013  19:38:00      -25.823       90.957      -15.691       16.764       19.734        9.214      281.045      389.446       84.891        0.497        0.038       94.551        7.005        0.005      345.189       22.540      858.156
09/19/2013  19:39:00      -31.891       67.211      -13.168       18.623       23.440        7.622      346.809      549.430       58.089        0.333        0.048       74.393        6.587        0.008      345.088       22.369      858.152
09/19/2013  19:40:00      -38.208       15.727       -7.291       13.817       12.746        6.985      190.920      162.469       48.795        0.108        0.020       41.318        4.375        0.011      344.927       22.095      858.170
09/19/2013  19:41:00      -43.370       44.933      -13.347       18.526       27.219       12.736      343.208      740.863      162.202        0.266        0.062       62.449       12.112        0.038      344.985       22.194      858.175
09/19/2013  19:42:00      -41.594       28.040       -6.653       20.288       28.170       16.967      411.585      793.562      287.865        0.203        0.075       50.163       16.147        0.104      344.877       22.008      858.184
09/19/2013  19:43:00      -31.158        1.851       -5.022       10.926       18.165        9.824      119.369      329.963       96.504        0.077        0.027       31.213        9.545        0.094      344.677       21.663      858.185
09/19/2013  19:44:00      -29.226        2.358       -0.241       24.160       19.069       17.279      583.696      363.617      298.571        0.105        0.062       29.321       13.776        0.221      344.697       21.700      858.194
09/19/2013  19:45:00      -26.939       -2.696       -4.357       17.795       19.153       10.988      316.678      366.836      120.735        0.078        0.040       27.074       10.831        0.160      344.696       21.698      858.195
09/19/2013  19:46:00      -39.821       32.826       -8.903       26.107       27.750       14.021      681.560      770.049      196.590        0.220        0.082       51.607        8.565        0.028      344.797       21.871      858.205
09/19/2013  19:47:00      -34.042       -2.601       -2.798       18.955       12.098       11.688      359.303      146.366      136.614        0.091        0.032       34.141        8.791        0.066      344.534       21.421      858.212
09/19/2013  19:48:00      -43.596       -6.926       -5.662       10.001       19.870       13.453      100.023      394.825      180.989        0.133        0.034       44.142        8.814        0.040      344.439       21.256      858.220
09/19/2013  19:49:00      -45.924      -14.770      -12.385       13.869       12.760        7.732      192.344      162.815       59.784        0.145        0.021       48.241        6.364        0.017      344.440       21.260      858.232
09/19/2013  19:50:00      -56.885      -18.607      -15.361       10.483       10.800       11.700      109.886      116.647      136.881        0.209        0.018       59.850        3.540        0.003      344.422       21.230      858.231
09/19/2013  19:51:00      -52.645      -17.917      -12.075       12.347       11.773       11.356      152.455      138.593      128.957        0.183        0.021       55.610        5.212        0.009      344.313       21.044      858.244
09/19/2013  19:52:00      -73.165       -5.725      -16.052       13.582       15.302        8.997      184.470      234.164       80.947        0.307        0.025       73.389        3.380        0.002      344.325       21.063      858.247
09/19/2013  19:53:00      -66.285      -17.510      -13.687       12.608       11.987       11.235      158.957      143.690      126.218        0.266        0.021       68.559        4.978        0.005      344.349       21.105      858.269
09/19/2013  19:54:00      -72.483      -16.354      -12.985       13.051       16.137       10.647      170.337      260.416      113.348        0.312        0.027       74.305        7.959        0.011      344.189       20.832      858.280
09/19/2013  19:55:00      -71.319       -2.157      -12.610       11.828       15.892        9.442      139.905      252.567       89.157        0.287        0.024       71.351        4.295        0.004      344.258       20.949      858.295
09/19/2013  19:56:00      -54.058       -5.938       -8.357       14.893       14.369       10.235      221.800      206.462      104.746        0.178        0.027       54.383        5.572        0.010      344.167       20.793      858.304
09/19/2013  19:57:00      -51.371      -15.951       -8.621       19.230       17.925       10.284      369.810      321.297      105.766        0.188        0.040       53.791        6.693        0.015      344.113       20.700      858.324
09/19/2013  19:58:00      -63.576      -19.390      -14.310       15.760       19.985        9.362      248.381      399.417       87.641        0.268        0.037       66.467        6.732        0.010      344.090       20.661      858.330
09/19/2013  19:59:00      -72.543      -22.752      -18.346       20.328       14.775       11.792      413.232      218.310      139.055        0.344        0.039       76.027        4.134        0.003      344.034       20.566      858.334
09/19/2013  20:00:00      -69.282      -22.526      -14.122       17.778       23.429       12.274      316.071      548.913      150.652        0.326        0.051       72.852       12.798        0.031      344.025       20.551      858.340
09/19/2013  20:01:00      -64.924      -21.006      -15.630       19.505       18.130       12.757      380.431      328.688      162.730        0.289        0.044       68.238        5.835        0.007      343.910       20.354      858.348
09/19/2013  20:02:00      -62.721      -14.784       -5.980       28.914       16.972       13.954      836.039      288.054      194.721        0.275        0.066       64.440       11.629        0.033      343.793       20.155      858.349
09/19/2013  20:03:00      -88.135       -9.362      -10.253       14.975       13.953       14.661      224.256      194.695      214.953        0.430        0.032       88.630        9.884        0.012      343.757       20.092      858.341
09/19/2013  20:04:00     -100.954      -15.418      -15.409       16.409       17.493       14.771      269.250      305.994      218.170        0.573        0.040      102.125        9.501        0.009      343.663       19.935      858.348
09/19/2013  20:05:00      -95.974      -19.729      -11.724       17.902       22.693       16.703      320.490      514.987      278.986        0.543        0.056       97.981        9.889        0.010      343.641       19.895      858.345
09/19/2013  20:06:00      -86.757      -31.562      -10.371       19.191       20.389       15.228      368.280      415.709      231.887        0.482        0.051       92.320        5.623        0.004      343.646       19.902      858.350
09/19/2013  20:07:00     -101.802      -16.073      -18.234       19.931       17.384       11.281      397.245      302.212      127.256        0.589        0.041      103.063        9.881        0.009      343.646       19.904      858.354
09/19/2013  20:08:00     -112.064      -36.050      -13.026       24.703       25.068       15.388      610.247      628.424      236.778        0.775        0.074      117.720       11.392        0.009      343.613       19.848      858.354
09/19/2013  20:09:00      -83.896      -28.000       -7.882       26.324       27.969       19.914      692.943      782.263      396.586        0.488        0.094       88.445       14.411        0.027      343.532       19.709      858.354
09/19/2013  20:10:00      -78.287      -42.149        3.717       31.368       39.721       19.637      983.966     1577.724      385.601        0.543        0.147       88.913       20.343        0.052      343.419       19.518      858.360
09/19/2013  20:11:00      -82.398      -38.015      -17.118       22.334       14.858       10.330      498.791      220.753      106.708        0.468        0.041       90.744        5.369        0.004      343.267       19.258      858.380
09/19/2013  20:12:00     -115.752      -27.406      -10.030       18.880       18.267       15.038      356.472      333.691      226.155        0.758        0.046      118.952        6.342        0.003      343.428       19.532      858.389
09/19/2013  20:13:00     -130.536      -38.092      -19.080       14.141       15.670        9.840      199.963      245.546       96.817        0.970        0.027      135.980        2.312        0.000      343.543       19.730      858.397
09/19/2013  20:14:00     -118.973      -51.048      -16.853       26.617       26.539       15.855      708.490      704.313      251.391        0.935        0.083      129.462       12.443        0.009      343.418       19.515      858.403
09/19/2013  20:15:00      -92.479      -43.373       -4.875       30.997       28.493       20.676      960.818      811.854      427.504        0.633        0.110      102.144       18.352        0.032      343.304       19.322      858.410
09/19/2013  20:16:00      -52.744      -15.087       -4.128       26.146       25.032       18.052      683.600      626.597      325.864        0.233        0.082       54.860       12.701        0.054      343.462       19.589      858.416
09/19/2013  20:17:00      -70.343      -14.182        4.440       32.215       24.448       15.028     1037.809      597.703      225.845        0.351        0.093       71.759       15.455        0.046      343.449       19.567      858.424
09/19/2013  20:18:00      -89.554        5.270       -7.468       35.252       23.870       15.411     1242.691      569.781      237.492        0.508        0.102       89.709       11.510        0.016      343.545       19.731      858.422
09/19/2013  20:19:00     -140.047       15.670      -10.725       44.259       38.291       23.588     1958.855     1466.206      556.408        1.198        0.199      140.921       19.523        0.019      343.674       19.950      858.415
09/19/2013  20:20:00     -199.735       63.478      -21.901       56.466       32.464       24.980     3188.396     1053.883      623.981        2.463        0.243      209.580       19.675        0.009      343.615       19.848      858.418
09/19/2013  20:21:00     -222.973       64.567      -28.580       43.098       38.285       29.251     1857.408     1465.733      855.629        2.944        0.209      232.133       17.106        0.005      343.527       19.697      858.415
09/19/2013  20:22:00     -188.750       48.000      -24.681       45.870       39.242       24.988     2104.094     1539.909      624.391        2.140        0.213      194.757       18.726        0.009      343.427       19.530      858.422
09/19/2013  20:23:00     -186.296       30.242      -15.114       47.636       38.420       24.759     2269.176     1476.097      612.988        2.010        0.218      188.735       12.572        0.004      343.448       19.565      858.431
09/19/2013  20:24:00      -82.447       -6.472       -6.798       55.012       46.293       24.200     3026.308     2143.080      585.619        0.632        0.288       82.701       26.504        0.103      343.306       19.324      858.427
09/19/2013  20:25:00      -55.407        2.803       -4.350       36.445       34.033       24.611     1328.269     1158.236      605.717        0.309        0.155       55.478       18.330        0.109      343.226       19.189      858.432
09/19/2013  20:26:00      -93.934       10.746      -10.558       26.129       22.010       19.530      682.750      484.449      381.431        0.530        0.077       94.546       14.347        0.023      343.315       19.339      858.450
09/19/2013  20:27:00      -47.192        0.279        4.858       35.172       29.432       27.463     1237.038      866.258      754.195        0.255        0.143       47.193       20.375        0.186      343.180       19.111      858.445
09/19/2013  20:28:00       10.607        7.299       -2.998       14.500       17.167       12.241      210.253      294.698      149.840        0.041        0.033       12.876        6.074        0.223      343.163       19.082      858.457
09/19/2013  20:29:00      -47.816       -2.376      -10.864       23.184       24.555       16.460      537.484      602.934      270.915        0.191        0.071       47.875       14.119        0.087      343.361       19.418      858.453
09/19/2013  20:30:00      -71.553      -21.894      -12.173       24.560       21.534       17.022      603.183      463.705      289.762        0.355        0.068       74.828       12.847        0.029      343.369       19.434      858.457
09/19/2013  20:31:00      -84.681       -3.716      -18.537       30.611       21.529       16.349      937.037      463.486      267.294        0.460        0.083       84.762       13.376        0.025      343.410       19.502      858.469
09/19/2013  20:32:00      -87.405       -2.491      -15.062       25.010       14.305       14.692      625.482      204.629      215.851        0.446        0.052       87.440       12.489        0.020      343.485       19.629      858.473
09/19/2013  20:33:00      -80.357      -12.938      -13.498       24.164       21.772       15.515      583.922      474.037      240.713        0.405        0.065       81.392        5.628        0.005      343.425       19.527      858.484
09/19/2013  20:34:00      -87.933       -7.032      -15.031       30.671       32.992       19.691      940.703     1088.465      387.729        0.521        0.121       88.213       20.017        0.051      343.365       19.424      858.501
09/19/2013  20:35:00      -70.547       -7.066       -1.626       39.182       23.025       21.433     1535.249      530.159      459.375        0.378        0.126       70.899       18.360        0.067      343.252       19.233      858.505
09/19/2013  20:36:00      -80.329       -3.375       -3.515       30.649       31.557       18.289      939.352      995.815      334.480        0.437        0.113       80.400       16.889        0.044      343.222       19.182      858.518
09/19/2013  20:37:00     -128.320        6.036      -15.940       32.739       31.701       19.189     1071.844     1004.963      368.221        0.960        0.122      128.462       14.806        0.013      343.265       19.254      858.527
09/19/2013  20:38:00     -102.854       -0.654      -17.548       32.131       28.777       20.107     1032.375      828.090      404.298        0.658        0.113      102.856       14.812        0.021      343.207       19.157      858.535
09/19/2013  20:39:00     -100.574        2.993      -25.068       34.811       29.708       22.140     1211.796      882.580      490.177        0.667        0.129      100.619       11.834        0.014      343.182       19.113      858.552
09/19/2013  20:40:00      -81.357        9.343      -19.004       38.573       31.271       25.998     1487.876      977.897      675.897        0.510        0.157       81.892       13.397        0.027      343.135       19.035      858.558
09/19/2013  20:41:00      -85.742       16.007      -14.231       38.084       32.627       19.497     1450.378     1064.513      380.144        0.535        0.145       87.223        8.937        0.010      343.060       18.906      858.566
09/19/2013  20:42:00      -62.547       15.603      -18.731       37.817       43.461       23.205     1430.161     1888.828      538.480        0.418        0.193       64.464       16.263        0.064      343.121       19.010      858.570
09/19/2013  20:43:00      -64.577       25.365      -11.886       47.397       36.080       28.080     2246.434     1301.793      788.476        0.464        0.217       69.380       24.783        0.128      343.023       18.844      858.584
09/19/2013  20:44:00     -103.198       12.742       -5.738       49.061       48.722       30.711     2406.985     2373.804      943.147        0.828        0.286      103.982       29.709        0.082      343.094       18.964      858.586
09/19/2013  20:45:00      -98.039       23.516      -15.606       46.495       46.532       28.470     2161.765     2165.243      810.551        0.777        0.257      100.820       19.326        0.037      343.058       18.902      858.585
09/19/2013  20:46:00     -146.122       29.167      -28.923       54.748       46.138       24.544     2997.312     2128.672      602.429        1.438        0.286      149.004       12.351        0.007      343.124       19.014      858.582
09/19/2013  20:47:00     -145.683       17.169      -15.534       65.406       46.378       28.639     4277.908     2150.952      820.174        1.450        0.362      146.691       24.382        0.028      343.106       18.983      858.580
09/19/2013  20:48:00     -129.669       -8.032      -20.640       44.923       38.866       23.358     2018.037     1510.563      545.586        1.069        0.204      129.918        8.484        0.004      343.063       18.910      858.579
09/19/2013  20:49:00      -65.540        1.711        2.061       47.460       32.284       20.879     2252.481     1042.260      435.931        0.402        0.187       65.563       20.540        0.098      342.954       18.726      858.585
09/19/2013  20:50:00     -106.334      -45.002       -0.029       44.569       42.155       23.216     1986.366     1777.071      538.964        0.882        0.215      115.465        6.451        0.003      343.019       18.837      858.594
09/19/2013  20:51:00     -120.931      -40.414       -6.066       48.843       42.844       25.870     2385.687     1835.580      669.264        1.059        0.245      127.505       12.936        0.010      342.905       18.642      858.603
09/19/2013  20:52:00     -133.058      -39.440       -6.801       56.985       39.407       27.357     3247.293     1552.880      748.379        1.243        0.277      138.780       27.839        0.040      342.940       18.701      858.601
09/19/2013  20:53:00     -101.166        4.148      -13.205       46.480       42.008       25.882     2160.420     1764.677      669.862        0.751        0.230      101.251       22.644        0.050      342.891       18.618      858.605
09/19/2013  20:54:00      -65.460       15.360       -1.167       48.567       40.690       25.678     2358.715     1655.713      659.338        0.460        0.234       67.238       23.233        0.119      342.822       18.500      858.607
09/19/2013  20:55:00     -101.702       16.305      -12.227       55.804       40.245       29.913     3114.095     1619.622      894.810        0.819        0.281      103.001       26.154        0.064      342.832       18.517      858.616
09/19/2013  20:56:00     -155.027       -0.322      -19.183       47.575       43.808       23.667     2263.412     1919.113      560.136        1.457        0.237      155.027       24.992        0.026      342.903       18.639      858.615
09/19/2013  20:57:00     -149.709       10.708      -19.296       48.731       29.717       21.780     2374.724      883.114      474.348        1.332        0.187      150.091       19.454        0.017      342.952       18.722      858.624
09/19/2013  20:58:00     -134.414      -15.088      -14.834       41.271       31.592       22.256     1703.263      998.045      495.310        1.086        0.160      135.258       19.032        0.020      342.888       18.613      858.633
09/19/2013  20:59:00     -142.449       -3.212      -10.052       54.200       40.181       25.379     2937.614     1614.517      644.069        1.280        0.260      142.486       24.119        0.029      342.863       18.570      858.639
09/19/2013  21:00:00     -102.119       -7.636        2.000       72.695       41.626       32.802     5284.593     1732.723     1075.987        0.929        0.405      102.404       31.286        0.093      342.800       18.462      858.649
09/19/2013  21:01:00     -121.039       -5.125       -8.010       62.086       56.546       29.533     3854.663     3197.452      872.208        1.133        0.396      121.148       28.461        0.055      342.777       18.424      858.657
09/19/2013  21:02:00      -73.716       17.635       -2.060       50.488       39.804       28.933     2549.072     1584.387      837.136        0.536        0.249       75.796       26.634        0.123      342.734       18.352      858.663
09/19/2013  21:03:00      -72.892        9.274        0.512       39.431       41.480       29.467     1554.806     1720.568      868.320        0.477        0.207       73.479       31.980        0.189      342.699       18.292      858.673
09/19/2013  21:04:00      -87.596       13.269       -7.744       38.084       41.177       23.680     1450.378     1695.581      560.738        0.581        0.185       88.596       21.909        0.061      342.811       18.481      858.670
09/19/2013  21:05:00     -105.660      -15.254       -8.732       41.104       32.131       21.854     1689.556     1032.418      477.601        0.734        0.160      106.756       13.712        0.016      342.847       18.543      858.681
09/19/2013  21:06:00     -122.834        1.384       -7.310       68.809       34.909       26.788     4734.612     1218.664      717.603        1.091        0.334      122.842       34.332        0.078      342.755       18.387      858.688
09/19/2013  21:07:00     -123.836       -8.237      -16.904       39.380       26.424       19.344     1550.763      698.248      374.174        0.916        0.131      124.109       18.109        0.021      342.813       18.485      858.689
09/19/2013  21:08:00     -133.298      -63.659      -11.366       29.603       28.849       18.411      876.364      832.262      338.955        1.200        0.102      147.718        9.317        0.004      342.798       18.459      858.696
09/19/2013  21:09:00     -116.279      -53.478       -5.672       49.330       35.802       19.494     2433.483     1281.798      380.015        1.025        0.205      127.988       15.429        0.015      342.796       18.457      858.698
09/19/2013  21:10:00     -135.239      -59.612        0.402       28.349       50.513       19.437      803.644     2551.570      377.779        1.279        0.187      147.795       16.577        0.013      342.832       18.519      858.695
09/19/2013  21:11:00     -127.314      -19.026       -4.425       46.196       38.787       23.477     2134.033     1504.401      551.180        1.039        0.209      128.727       22.302        0.030      342.764       18.404      858.698
09/19/2013  21:12:00     -101.906      -26.555       -6.894       35.043       29.395       18.445     1228.023      864.050      340.201        0.678        0.122      105.309       14.621        0.019      342.774       18.419      858.694
09/19/2013  21:13:00      -77.101      -16.101        1.976       44.345       39.233       23.746     1966.477     1539.253      563.887        0.514        0.203       78.764       23.623        0.090      342.695       18.283      858.701
09/19/2013  21:14:00      -78.335      -21.014       -0.657       41.968       27.853       20.450     1761.348      775.807      418.212        0.477        0.148       81.105       20.038        0.061      342.650       18.209      858.701
09/19/2013  21:15:00     -103.063      -24.255       -3.729       39.303       36.616       23.444     1544.736     1340.751      549.604        0.733        0.172      105.878       21.515        0.041      342.672       18.246      858.701
09/19/2013  21:16:00     -105.789      -19.583       -5.768       40.381       22.635       21.059     1630.621      512.328      443.461        0.710        0.129      107.586       21.196        0.039      342.692       18.280      858.695
09/19/2013  21:17:00     -149.081      -54.529       -7.416       29.722       22.064       16.377      883.406      486.807      268.200        1.345        0.082      158.740       14.747        0.009      342.745       18.370      858.697
09/19/2013  21:18:00     -147.006      -37.838       -8.418       29.309       25.645       17.129      858.989      657.657      293.400        1.246        0.091      151.798       18.394        0.015      342.800       18.463      858.696
09/19/2013  21:19:00      -63.385      -29.401       -0.076       24.590       23.698       18.447      604.646      561.587      340.295        0.319        0.075       69.872       15.737        0.051      342.757       18.389      858.689
09/19/2013  21:20:00      -94.295      -40.922       -5.845       24.452       22.593       18.633      597.877      510.447      347.174        0.603        0.073      102.792       13.580        0.017      342.814       18.487      858.689
09/19/2013  21:21:00     -102.796      -27.622      -15.441       13.437       13.835       12.497      180.546      191.409      156.182        0.605        0.026      106.443        7.073        0.004      342.732       18.346      858.682
09/19/2013  21:22:00      -85.744      -48.425       -1.028       21.830       17.125       15.829      476.533      293.259      250.560        0.536        0.051       98.473       13.185        0.018      342.742       18.365      858.684
09/19/2013  21:23:00      -62.804      -21.426        8.515       31.638       23.663       15.120     1000.977      559.925      228.629        0.313        0.089       66.358       16.472        0.062      342.635       18.182      858.683
09/19/2013  21:24:00      -97.665      -49.865       -3.485       25.926       23.417       12.904      672.161      548.343      166.514        0.671        0.069      109.659        9.898        0.008      342.642       18.194      858.685
09/19/2013  21:25:00     -128.259      -45.747      -10.314       19.937       15.942       15.553      397.479      254.134      241.890        0.977        0.045      136.174       11.814        0.008      342.597       18.116      858.677
09/19/2013  21:26:00     -100.313      -46.303        2.302       45.015       29.890       25.566     2026.370      893.416      653.624        0.789        0.179      110.484       27.974        0.064      342.504       17.960      858.684
09/19/2013  21:27:00      -69.306      -34.787        4.226       43.506       37.266       20.280     1892.756     1388.753      411.271        0.486        0.185       77.547       23.374        0.091      342.391       17.769      858.700
09/19/2013  21:28:00      -34.022      -39.293       13.844       40.674       28.556       23.983     1654.364      815.469      575.171        0.297        0.152       51.976       25.556        0.242      342.475       17.909      858.705
09/19/2013  21:29:00      -90.285      -70.191       -5.607       38.297       27.737       20.791     1466.650      769.319      432.256        0.789        0.133      114.360       19.531        0.029      342.546       18.032      858.713
09/19/2013  21:30:00      -93.867      -78.974       -8.494       34.331       24.591       16.378     1178.596      604.727      268.234        0.859        0.103      122.670       14.912        0.015      342.579       18.087      858.721
09/19/2013  21:31:00     -100.822      -73.615       -9.331       25.716       19.454       17.582      661.321      378.450      309.125        0.851        0.067      124.837       14.389        0.013      342.497       17.948      858.706
09/19/2013  21:32:00      -96.436      -67.632       -9.333       27.513       20.658       17.675      756.990      426.765      312.404        0.773        0.075      117.788       12.614        0.011      342.429       17.832      858.694
09/19/2013  21:33:00      -99.076      -66.839       -8.053       23.151       20.550       18.036      535.974      422.301      325.291        0.782        0.064      119.514       14.625        0.015      342.393       17.772      858.696
09/19/2013  21:34:00      -54.591      -42.093       -1.270       38.695       34.208       26.017     1497.333     1170.219      676.860        0.405        0.167       68.935       26.820        0.151      342.372       17.737      858.688
09/19/2013  21:35:00      -53.463      -61.173        2.866       57.432       48.056       32.921     3298.418     2309.408     1083.796        0.665        0.335       81.243       34.531        0.181      342.386       17.760      858.678
09/19/2013  21:36:00     -123.021      -97.254      -15.119       31.061       30.877       25.014      964.809      953.386      625.692        1.368        0.127      156.820       16.720        0.011      342.543       18.027      858.689
09/19/2013  21:37:00     -138.859      -91.343      -13.911       23.242       29.056       17.061      540.207      844.270      291.076        1.475        0.084      166.209       14.060        0.007      342.533       18.009      858.683
09/19/2013  21:38:00     -104.046      -76.688       -4.393       47.358       36.703       23.415     2242.823     1347.107      548.240        1.043        0.207      129.254       25.773        0.040      342.427       17.829      858.677
09/19/2013  21:39:00      -83.654      -62.564       -4.668       43.784       31.623       22.606     1917.016     1000.008      511.021        0.718        0.171      104.462       22.627        0.047      342.395       17.775      858.693
09/19/2013  21:40:00     -102.492      -72.984       -2.875       40.476       33.262       22.169     1638.293     1106.376      491.463        0.954        0.162      125.822       21.091        0.028      342.354       17.703      858.686
09/19/2013  21:41:00      -97.221      -77.900       -0.305       34.158       24.602       20.379     1166.767      605.279      415.292        0.885        0.109      124.581       12.691        0.010      342.346       17.691      858.673
09/19/2013  21:42:00     -104.564      -84.678       -7.573       32.693       32.180       21.321     1068.815     1035.544      454.597        1.036        0.128      134.551        7.581        0.003      342.358       17.712      858.671
09/19/2013  21:43:00      -84.467      -70.959       -8.564       38.640       26.774       22.059     1493.019      716.859      486.578        0.747        0.135      110.317       12.007        0.012      342.288       17.591      858.668
09/19/2013  21:44:00     -135.019      -49.088      -12.798       24.306       25.172       13.707      590.780      633.615      187.871        1.111        0.071      143.665        3.234        0.001      342.187       17.422      858.659
09/19/2013  21:45:00     -134.528      -42.966       -4.168       31.340       25.788       12.926      982.185      665.046      167.084        1.089        0.091      141.223        9.208        0.004      342.220       17.477      858.666
09/19/2013  21:46:00     -118.292      -44.086        2.448       31.380       27.776       19.724      984.694      771.481      389.024        0.904        0.107      126.240       19.296        0.023      342.090       17.256      858.676
09/19/2013  21:47:00     -110.787      -55.017       -4.463       42.647       28.688       18.102     1818.747      822.990      327.674        0.914        0.148      123.695       18.637        0.023      342.111       17.292      858.669
09/19/2013  21:48:00     -151.343      -50.416      -10.415       23.841       26.215       17.330      568.373      687.252      300.324        1.356        0.078      159.520       15.014        0.009      342.113       17.295      858.682
09/19/2013  21:49:00     -155.870      -78.740       -6.676       22.382       25.573       15.258      500.936      653.968      232.801        1.596        0.069      174.630        6.957        0.002      342.128       17.320      858.687
09/19/2013  21:50:00     -117.744      -61.062       -0.869       44.319       28.650       23.019     1964.130      820.842      529.857        1.045        0.166      132.635       21.794        0.027      342.102       17.277      858.686
09/19/2013  21:51:00     -100.939      -59.280        3.890       47.759       37.868       20.402     2280.893     1434.000      416.238        0.892        0.207      117.059       24.605        0.044      342.075       17.231      858.700
09/19/2013  21:52:00      -59.276      -53.892       10.583       43.759       43.615       27.318     1914.857     1902.264      746.271        0.555        0.228       80.112       29.179        0.133      342.101       17.275      858.710
09/19/2013  21:53:00      -81.457      -74.338        8.263       82.781       48.824       39.180     6852.652     2383.807     1535.088        1.150        0.539      110.279       45.770        0.172      341.996       17.095      858.705
09/19/2013  21:54:00     -129.024     -107.785        6.867       68.503       62.387       34.553     4692.679     3892.178     1193.915        1.904        0.489      168.121       36.137        0.046      341.975       17.060      858.717
09/19/2013  21:55:00     -104.805      -87.200        2.927       77.845       53.402       32.356     6059.869     2851.741     1046.932        1.428        0.498      136.338       35.267        0.067      341.957       17.030      858.712
09/19/2013  21:56:00     -135.338     -102.329       -1.163       60.631       45.807       31.047     3676.094     2098.305      963.946        1.776        0.337      169.669       33.321        0.039      341.997       17.097      858.710
09/19/2013  21:57:00     -105.126      -85.804       -1.583       68.157       33.858       26.395     4645.434     1146.333      696.673        1.245        0.324      135.697       26.827        0.039      341.980       17.070      858.716
09/19/2013  21:58:00      -98.941      -86.025       -1.107       51.401       42.330       23.085     2642.057     1791.836      532.922        1.108        0.248      131.109       27.860        0.045      341.974       17.061      858.713
09/19/2013  21:59:00      -78.563      -72.996        9.809       59.321       46.135       28.631     3518.970     2128.429      819.762        0.903        0.323      107.241       32.922        0.094      341.982       17.074      858.709
09/19/2013  22:00:00     -120.725      -86.051        5.321       63.009       48.317       35.004     3970.138     2334.497     1225.265        1.477        0.376      148.254       30.224        0.042      342.026       17.147      858.713
09/19/2013  22:01:00     -145.192      -90.471       -1.225       48.360       41.731       30.292     2338.732     1741.457      917.585        1.713        0.250      171.073       28.637        0.028      342.047       17.183      858.709
09/19/2013  22:02:00      -93.816      -79.155        2.814       65.556       41.738       33.504     4297.539     1742.086     1122.514        1.112        0.358      122.748       34.582        0.079      342.018       17.135      858.720
09/19/2013  22:03:00     -111.429      -72.176        2.015       56.157       40.783       31.295     3153.592     1663.259      979.351        1.171        0.290      132.763       27.467        0.043      342.067       17.218      858.736
09/19/2013  22:04:00      -94.005      -62.347        6.689       67.903       40.625       30.649     4610.840     1650.368      939.380        0.998        0.360      112.801       33.183        0.087      342.071       17.224      858.741
09/19/2013  22:05:00     -103.185      -79.594       -0.880       57.751       42.363       25.903     3335.131     1794.633      670.972        1.139        0.290      130.317       21.719        0.028      342.112       17.293      858.737
09/19/2013  22:06:00     -116.057      -61.920       -3.597       40.990       32.442       21.381     1680.202     1052.460      457.143        1.025        0.159      131.542       21.789        0.027      342.107       17.286      858.723
09/19/2013  22:07:00     -107.147      -85.796       -1.656       31.926       32.036       23.246     1019.287     1026.289      540.381        1.071        0.129      137.264       13.276        0.009      342.158       17.372      858.707
09/19/2013  22:08:00     -109.582      -55.914       -0.937       44.999       30.663       25.108     2024.908      940.224      630.431        0.936        0.180      123.023       26.699        0.047      342.122       17.310      858.708
09/19/2013  22:09:00     -113.241      -49.201       -1.318       53.425       35.957       25.744     2854.225     1292.940      662.753        1.003        0.240      123.467       25.709        0.043      342.081       17.240      858.687
09/19/2013  22:10:00     -136.342      -48.429        0.622       31.803       31.677       22.110     1011.462     1003.449      488.840        1.172        0.125      144.688       15.977        0.012      342.086       17.250      858.681
09/19/2013  22:11:00     -127.518      -45.226        0.336       51.116       35.244       24.544     2612.886     1242.150      602.416        1.138        0.223      135.301       25.356        0.035      342.054       17.194      858.676
09/19/2013  22:12:00     -139.202      -44.891        0.908       44.851       40.226       22.375     2011.576     1618.092      500.637        1.276        0.207      146.262       20.929        0.020      342.079       17.237      858.665
09/19/2013  22:13:00     -149.950      -42.547       -0.453       46.131       31.161       22.333     2128.105      971.011      498.774        1.395        0.180      155.870       23.811        0.023      342.080       17.240      858.668
09/19/2013  22:14:00     -149.290      -46.829       -7.512       29.149       28.172       22.168      849.693      793.651      491.403        1.334        0.107      156.462       18.967        0.015      342.021       17.139      858.661
09/19/2013  22:15:00     -155.123      -60.916       -7.969       18.322       17.890       14.750      335.704      320.046      217.572        1.436        0.044      166.655        9.930        0.004      342.001       17.106      858.644
09/19/2013  22:16:00     -134.463      -56.922       -2.817       22.536       26.979       13.447      507.878      727.880      180.825        1.137        0.071      146.015        9.992        0.005      341.927       16.979      858.646
09/19/2013  22:17:00     -120.061      -45.385       -8.768       23.123       28.054       16.838      534.667      787.004      283.520        0.908        0.080      128.353       14.588        0.013      341.868       16.879      858.638
09/19/2013  22:18:00     -153.898      -43.009       -8.555       20.297       21.582       15.581      411.957      465.771      242.753        1.336        0.056      159.794       10.975        0.005      341.809       16.780      858.629
09/19/2013  22:19:00     -134.991      -40.028       -2.997       36.312       25.902       22.007     1318.572      670.938      484.322        1.115        0.124      140.801       21.124        0.023      341.777       16.725      858.624
09/19/2013  22:20:00     -132.714      -35.247       -2.443       28.648       24.677       15.097      820.699      608.939      227.927        1.026        0.083      137.315       15.028        0.012      341.813       16.784      858.620
09/19/2013  22:21:00     -133.450      -45.098       -5.675       29.376       26.402       16.324      862.976      697.044      266.476        1.085        0.091      140.865       16.477        0.014      341.808       16.778      858.608
09/19/2013  22:22:00     -153.600      -36.706       -6.863       21.171       28.315       13.734      448.214      801.750      188.617        1.321        0.072      157.925       12.179        0.006      341.740       16.662      858.601
09/19/2013  22:23:00     -154.065      -49.148      -10.377       27.754       30.862       18.470      770.310      952.488      341.153        1.416        0.103      161.714       14.203        0.008      341.748       16.677      858.611
09/19/2013  22:24:00     -137.363      -70.906       -8.555       37.054       22.663       22.555     1373.034      513.596      508.740        1.318        0.120      154.584       21.331        0.019      341.620       16.458      858.609
09/19/2013  22:25:00     -133.073      -57.086       -4.291       32.650       26.098       19.864     1065.998      681.128      394.559        1.156        0.107      144.801       15.714        0.012      341.612       16.445      858.609
09/19/2013  22:26:00     -115.101      -43.564       -5.393       41.696       36.195       20.502     1738.519     1310.075      420.342        0.932        0.173      123.069       15.774        0.016      341.583       16.397      858.626
09/19/2013  22:27:00      -94.471      -51.573        0.833       35.824       31.408       17.341     1283.354      986.476      300.709        0.708        0.129      107.631       13.848        0.017      341.598       16.422      858.637
09/19/2013  22:28:00     -112.467      -37.977       -2.338       35.053       30.454       21.837     1228.717      927.466      476.835        0.836        0.132      118.706       20.052        0.029      341.619       16.458      858.639
09/19/2013  22:29:00     -107.822      -54.797       -7.005       27.760       26.140       15.289      770.622      683.309      233.760        0.818        0.084      120.947       12.805        0.011      341.649       16.507      858.638
09/19/2013  22:30:00      -51.144      -45.317        6.441       39.185       28.945       14.825     1535.489      837.833      219.788        0.365        0.130       68.332       14.691        0.046      341.611       16.443      858.660
09/19/2013  22:31:00      -54.160      -29.006        1.471       33.729       27.372       17.336     1137.639      749.206      300.539        0.298        0.109       61.438       14.751        0.058      341.649       16.510      858.673
09/19/2013  22:32:00      -21.977      -22.991        0.113       27.300       33.539       19.475      745.286     1124.832      379.269        0.163        0.112       31.806       17.227        0.293      341.642       16.496      858.682
09/19/2013  22:33:00      -77.996      -60.755       -4.035       45.943       24.837       23.000     2110.761      616.869      528.985        0.652        0.163       98.866       20.930        0.045      341.662       16.531      858.690
09/19/2013  22:34:00     -128.104      -78.337      -14.313       23.479       22.260       19.388      551.248      495.498      375.888        1.209        0.071      150.158       11.661        0.006      341.696       16.588      858.711
09/19/2013  22:35:00      -59.836      -39.466        6.937       39.787       25.837       20.747     1582.997      667.536      430.446        0.393        0.134       71.679       20.087        0.079      341.627       16.471      858.720
09/19/2013  22:36:00      -11.803      -37.759       18.416       33.195       28.704       20.806     1101.898      823.928      432.875        0.213        0.118       39.561       15.739        0.158      341.599       16.425      858.724
09/19/2013  22:37:00      -60.446      -43.476        0.310       37.083       24.083       17.490     1375.130      580.010      305.904        0.390        0.113       74.457       16.789        0.051      341.650       16.510      858.740
09/19/2013  22:38:00     -121.525      -99.078       -5.881       68.992       69.540       29.165     4759.848     4835.772      850.620        1.753        0.522      156.795       31.385        0.040      341.552       16.342      858.732
09/19/2013  22:39:00     -176.113      -93.810      -10.440       58.787       47.385       32.751     3455.931     2245.312     1072.601        2.335        0.339      199.539       33.534        0.028      341.494       16.243      858.713
09/19/2013  22:40:00     -162.121      -93.733       -2.478       37.610       30.866       24.692     1414.490      952.684      609.684        1.903        0.149      187.268       23.072        0.015      341.503       16.261      858.701
09/19/2013  22:41:00     -120.633      -77.077      -10.167       28.393       29.163       18.363      806.177      850.496      337.193        1.129        0.100      143.154       12.594        0.008      341.501       16.256      858.694
09/19/2013  22:42:00     -112.319      -46.912        2.197       47.293       28.966       23.186     2236.643      839.032      537.580        0.922        0.181      121.722       26.838        0.049      341.412       16.107      858.686
09/19/2013  22:43:00      -52.440      -51.604        2.272       51.915       35.214       20.999     2695.165     1240.019      440.959        0.490        0.219       73.573       25.846        0.123      341.455       16.178      858.697
09/19/2013  22:44:00      -66.593      -74.166        7.583       42.612       46.461       27.051     1815.794     2158.640      731.739        0.735        0.235       99.676       25.686        0.066      341.425       16.129      858.701
09/19/2013  22:45:00     -134.513     -128.431       -9.037       37.113       33.574       29.767     1377.341     1127.243      886.070        1.903        0.170      185.979       24.702        0.018      341.508       16.268      858.700
09/19/2013  22:46:00     -123.707      -93.362       -8.211       44.318       43.694       21.793     1964.072     1909.192      474.945        1.422        0.217      154.983       19.117        0.015      341.454       16.176      858.709
09/19/2013  22:47:00      -95.605      -75.485        2.351       57.967       35.448       28.426     3360.133     1256.549      808.047        1.013        0.271      121.812       31.582        0.067      341.405       16.094      858.713
09/19/2013  22:48:00     -114.363      -85.819        3.108       55.858       39.163       27.804     3120.085     1533.730      773.051        1.294        0.271      142.982       27.756        0.038      341.395       16.077      858.712
09/19/2013  22:49:00     -138.795      -98.000       -7.041       46.299       27.515       21.117     2143.556      757.103      445.938        1.613        0.167      169.906       21.225        0.016      341.396       16.079      858.718
09/19/2013  22:50:00     -139.044      -74.179       -5.481       28.784       28.423       17.842      828.493      807.891      318.348        1.341        0.098      157.594       11.601        0.005      341.376       16.046      858.710
09/19/2013  22:51:00     -152.973      -55.595      -11.244       28.565       35.278       21.789      815.948     1244.555      474.754        1.458        0.127      162.762       19.782        0.015      341.422       16.123      858.704
09/19/2013  22:52:00     -146.420      -30.762       -9.760       28.717       24.721       19.370      824.641      611.141      375.209        1.215        0.091      149.617       11.854        0.006      341.416       16.113      858.702
09/19/2013  22:53:00     -140.436      -11.102       -5.916       32.459       28.579       18.214     1053.607      816.783      331.754        1.104        0.110      140.874       11.954        0.007      341.367       16.031      858.695
09/19/2013  22:54:00     -148.804       -1.502      -12.156       52.620       28.691       21.623     2768.830      823.183      467.570        1.318        0.203      148.811       25.193        0.029      341.353       16.006      858.688
09/19/2013  22:55:00     -146.330      -19.326       -8.807       47.726       32.545       26.529     2277.782     1059.180      703.788        1.295        0.202      147.601       25.628        0.030      341.430       16.137      858.691
09/19/2013  22:56:00     -140.185      -36.740       -0.885       42.196       33.724       21.278     1780.520     1137.291      452.762        1.219        0.169      144.920       20.877        0.021      341.400       16.086      858.683
09/19/2013  22:57:00     -167.664      -58.838       -3.611       38.208       22.884       20.730     1459.846      523.698      429.746        1.700        0.121      177.688       21.290        0.014      341.338       15.981      858.675
09/19/2013  22:58:00     -152.382      -64.440       -5.287       23.162       26.086       19.718      536.472      680.463      388.811        1.450        0.080      165.447       13.344        0.007      341.284       15.890      858.680
09/19/2013  22:59:00     -149.799      -34.833       -0.881       27.327       21.285       16.521      746.788      453.041      272.955        1.256        0.074      153.795       16.323        0.011      341.173       15.703      858.679
09/19/2013  23:00:00     -135.940      -36.562       -8.940       27.089       24.027       12.942      733.815      577.292      167.488        1.069        0.074      140.771       11.658        0.007      341.240       15.815      858.678
09/19/2013  23:01:00     -106.328      -55.613        0.527       29.944       23.374       17.578      896.619      546.350      308.990        0.808        0.088      119.994       14.337        0.014      341.215       15.773      858.693
09/19/2013  23:02:00     -121.393      -40.334       -0.793       22.558       20.847       12.179      508.871      434.586      148.328        0.873        0.055      127.919        7.030        0.003      341.261       15.851      858.688
09/19/2013  23:03:00      -99.851      -39.995        1.280       33.445       26.727       16.688     1118.535      714.343      278.477        0.684        0.106      107.563       17.144        0.025      341.271       15.867      858.679
09/19/2013  23:04:00      -95.626      -49.921       -4.497       26.448       28.933       13.813      699.488      837.119      190.798        0.669        0.086      107.872       11.355        0.011      341.265       15.859      858.677
09/19/2013  23:05:00     -106.667      -42.003       -6.432       35.480       17.039       13.309     1258.848      290.329      177.119        0.745        0.086      114.639       15.323        0.018      341.288       15.896      858.665
09/19/2013  23:06:00     -148.182      -59.105       -8.780       12.370       11.146       10.364      153.015      124.241      107.411        1.296        0.019      159.535        5.920        0.001      341.275       15.874      858.653
09/19/2013  23:07:00     -137.867      -64.789       -0.726       33.516       25.775       18.570     1123.325      664.352      344.837        1.267        0.107      152.331       17.064        0.013      341.222       15.785      858.636
09/19/2013  23:08:00     -128.569      -61.785       -4.320       25.127       19.055       16.127      631.374      363.092      260.085        1.081        0.063      142.644       14.472        0.010      341.110       15.594      858.635
09/19/2013  23:09:00     -101.281      -44.122       -7.270       18.645       22.820       14.940      347.620      520.732      223.192        0.667        0.055      110.474       12.525        0.013      341.088       15.559      858.627
09/19/2013  23:10:00      -87.437      -29.286       -6.949       25.959       26.089       15.689      673.863      680.645      246.149        0.508        0.080       92.211       14.293        0.024      341.055       15.503      858.627
09/19/2013  23:11:00     -111.196      -58.072       -3.179       18.245       17.406       13.015      332.894      302.985      169.380        0.828        0.040      125.447        8.443        0.005      341.070       15.528      858.621
09/19/2013  23:12:00     -123.670      -46.091       -7.406       19.529       18.305       14.995      381.386      335.075      224.853        0.921        0.047      131.980       11.348        0.007      341.038       15.473      858.620
09/19/2013  23:13:00      -87.131      -60.820       -3.573       36.939       22.889       17.618     1364.520      523.900      310.400        0.675        0.110      106.259       16.298        0.024      341.025       15.451      858.611
09/19/2013  23:14:00      -35.402      -42.046        8.603       28.880       25.005       19.781      834.046      625.258      391.272        0.247        0.093       54.965       15.169        0.076      341.042       15.482      858.607
09/19/2013  23:15:00      -50.467      -45.142        6.260       39.963       25.260       17.711     1597.079      638.074      313.662        0.359        0.127       67.711       18.441        0.074      341.021       15.445      858.612
09/19/2013  23:16:00     -107.324      -61.352       -5.921       26.345       18.396       18.223      694.069      338.406      332.092        0.834        0.068      123.622       13.232        0.011      341.071       15.531      858.601
09/19/2013  23:17:00     -120.329      -44.871      -11.941       13.509       17.078        8.564      182.485      291.667       73.348        0.859        0.027      128.423        6.965        0.003      341.096       15.570      858.591
09/19/2013  23:18:00     -123.155      -36.217      -13.382       11.098       11.230       10.322      123.165      126.111      106.553        0.851        0.018      128.370        2.933        0.001      341.069       15.526      858.591
09/19/2013  23:19:00     -115.703      -39.776       -8.791       10.298       16.172       11.611      106.046      261.541      134.815        0.777        0.025      122.349        4.702        0.001      341.045       15.486      858.583
09/19/2013  23:20:00      -99.841      -45.572      -10.252       13.544       17.230        8.032      183.439      296.861       64.520        0.635        0.027      109.750        3.688        0.001      340.982       15.380      858.574
09/19/2013  23:21:00      -93.007      -43.072       -4.312       20.549       17.843       10.966      422.244      318.387      120.244        0.569        0.043      102.496        6.394        0.004      340.982       15.377      858.588
09/19/2013  23:22:00     -106.716      -34.090       -9.366        9.429        9.182        9.812       88.901       84.303       96.278        0.645        0.013      112.029        3.791        0.001      340.965       15.351      858.598
09/19/2013  23:23:00      -99.765      -47.398      -12.001       12.633       13.558       12.751      159.590      183.831      162.596        0.642        0.025      110.452        5.126        0.002      340.955       15.331      858.586
09/19/2013  23:24:00      -92.651      -48.578       -6.232       28.622       18.923       15.453      819.195      358.097      238.794        0.620        0.071      104.614        8.625        0.007      340.950       15.325      858.587
09/19/2013  23:25:00      -78.779      -52.546       -1.172       43.951       25.065       21.291     1931.714      628.259      453.325        0.599        0.151       94.695       22.897        0.058      340.812       15.090      858.598
09/19/2013  23:26:00     -109.061      -54.991       -6.905       25.603       18.618       13.481      655.523      346.640      181.729        0.807        0.059      122.141       14.360        0.014      340.713       14.922      858.597
09/19/2013  23:27:00      -99.805      -52.538       -2.765       28.525       18.181       20.218      813.669      330.546      408.787        0.714        0.078      112.788       17.650        0.024      340.734       14.959      858.600
09/19/2013  23:28:00     -102.930      -70.765       -6.792       25.425       22.663       14.400      646.444      513.606      207.348        0.851        0.068      124.910        7.580        0.004      340.770       15.020      858.604
09/19/2013  23:29:00      -98.861      -41.467      -10.838       14.027       23.363       13.492      196.767      545.819      182.039        0.627        0.046      107.205        8.202        0.006      340.761       15.003      858.602
09/19/2013  23:30:00      -93.278      -49.230       -6.827       12.683       13.203        9.231      160.857      174.309       85.208        0.580        0.021      105.472        5.830        0.003      340.798       15.068      858.590
09/19/2013  23:31:00      -75.490      -53.973       -3.654       17.465       15.291       13.632      305.029      233.811      185.840        0.467        0.036       92.800        8.295        0.008      340.840       15.138      858.586
09/19/2013  23:32:00     -101.872      -55.733       -6.729       12.238        9.256        8.822      149.777       85.672       77.835        0.692        0.016      116.121        4.901        0.002      340.789       15.051      858.586
09/19/2013  23:33:00     -112.882      -46.410      -19.607       10.741        9.208        8.646      115.369       84.784       74.748        0.778        0.014      122.050        3.112        0.001      340.724       14.943      858.584
09/19/2013  23:34:00     -111.973      -41.552      -11.084        9.754       12.632        9.503       95.139      159.576       90.307        0.737        0.017      119.434        7.645        0.004      340.669       14.849      858.569
09/19/2013  23:35:00     -113.066      -35.876      -12.835        9.809       13.267        9.554       96.211      176.014       91.275        0.730        0.018      118.621        2.785        0.001      340.632       14.788      858.566
09/19/2013  23:36:00      -93.778      -47.707       -3.446       21.608       20.916       12.543      466.904      437.499      157.317        0.607        0.053      105.215        7.351        0.005      340.584       14.705      858.569
09/19/2013  23:37:00      -84.333      -49.338       -5.717       30.630       22.526       21.520      938.193      507.426      463.131        0.574        0.095       97.705       12.852        0.017      340.516       14.590      858.558
09/19/2013  23:38:00      -72.846      -49.348        1.984       46.442       31.484       24.532     2156.818      991.220      601.798        0.575        0.187       87.987       20.692        0.055      340.429       14.443      858.536
09/19/2013  23:39:00     -101.455      -67.179       -1.070       37.687       30.142       19.753     1420.317      908.531      390.182        0.876        0.136      121.681       19.966        0.027      340.495       14.557      858.529
09/19/2013  23:40:00     -116.945      -47.737       -9.022       20.549       19.701       15.059      422.242      388.115      226.769        0.854        0.052      126.313       11.508        0.008      340.509       14.578      858.523
09/19/2013  23:41:00      -95.072      -52.090        0.168       28.693       27.993       17.477      823.268      783.635      305.432        0.683        0.096      108.406        8.706        0.006      340.566       14.675      858.513
09/19/2013  23:42:00      -88.260      -50.324        1.715       28.381       22.502       21.183      805.503      506.349      448.706        0.604        0.088      101.598       14.998        0.022      340.596       14.726      858.506
09/19/2013  23:43:00      -50.401      -37.553        6.504       37.625       28.239       20.820     1415.673      797.419      433.466        0.332        0.132       62.853       19.690        0.098      340.564       14.671      858.516
09/19/2013  23:44:00      -63.847      -53.843        4.624       43.293       29.299       23.448     1874.268      858.413      549.825        0.514        0.164       83.520       23.505        0.079      340.546       14.641      858.515
09/19/2013  23:45:00      -94.248      -56.993       -2.616       43.482       29.453       21.327     1890.654      867.494      454.846        0.767        0.161      110.140       20.243        0.034      340.597       14.727      858.518
09/19/2013  23:46:00     -134.028      -54.407       -2.677       25.599       21.455       15.788      655.318      460.311      249.252        1.115        0.068      144.650       15.005        0.011      340.633       14.789      858.522
09/19/2013  23:47:00     -112.296      -51.648        1.138       34.906       26.475       20.625     1218.399      700.924      425.380        0.881        0.117      123.604       21.759        0.031      340.595       14.723      858.520
09/19/2013  23:48:00     -136.981      -67.159       -4.099       24.263       23.428       15.941      588.683      548.869      254.119        1.234        0.070      152.559       12.684        0.007      340.585       14.706      858.508
09/19/2013  23:49:00     -121.507      -53.776        2.571       31.390       27.734       17.057      985.358      769.189      290.946        0.985        0.102      132.875       16.013        0.015      340.502       14.566      858.503
09/19/2013  23:50:00      -83.115      -47.396        0.434       51.946       23.614       23.078     2698.416      557.644      532.609        0.647        0.189       95.679       18.678        0.038      340.427       14.439      858.504
09/19/2013  23:51:00      -86.100      -56.584        2.399       49.181       32.403       27.138     2418.722     1049.963      736.455        0.741        0.210      103.029       25.022        0.059      340.467       14.508      858.499
09/19/2013  23:52:00      -82.906      -51.985        3.865       49.786       34.711       23.072     2478.686     1204.874      532.316        0.690        0.211       97.856       26.349        0.073      340.466       14.506      858.504
09/19/2013  23:53:00      -94.074      -65.099       -4.748       36.400       28.009       19.151     1324.966      784.485      366.752        0.779        0.124      114.402       14.529        0.016      340.487       14.541      858.512
09/19/2013  23:54:00      -99.685      -45.730        1.375       28.535       26.246       17.081      814.263      688.841      291.746        0.691        0.090      109.673       18.033        0.027      340.442       14.465      858.508
09/19/2013  23:55:00      -69.316      -49.841        0.329       39.588       27.756       21.636     1567.180      770.372      468.123        0.505        0.140       85.375       22.238        0.068      340.432       14.448      858.504
09/19/2013  23:56:00     -102.572      -35.856       -2.066       23.472       23.705       14.540      550.948      561.919      211.411        0.657        0.066      108.659       11.153        0.011      340.437       14.456      858.505
09/19/2013  23:57:00      -94.758      -45.695        2.038       26.909       18.779       13.896      724.111      352.633      193.090        0.617        0.063      105.201       12.077        0.013      340.414       14.418      858.504
09/19/2013  23:58:00      -28.761      -26.914        6.862       31.736       29.386       14.781     1007.172      863.562      218.472        0.184        0.104       39.390       16.209        0.169      340.368       14.340      858.493
09/19/2013  23:59:00      -44.207      -43.640        3.397       43.065       33.196       20.094     1854.555     1101.988      403.755        0.361        0.168       62.118       20.851        0.113      340.374       14.352      858.479
